<?xml version="1.0" encoding="UTF-8" standalone="no" ?>
<gpx xmlns="http://www.topografix.com/GPX/1/1" xmlns:xsi="http://www.w3.org/2001/XMLSchema-instance" xsi:schemaLocation="http://www.topografix.com/GPX/1/1 http://www.topografix.com/GPX/1/1/gpx.xsd" version="1.1" creator="VisuGPX - https://www.visugpx.com">
  <metadata>
    <name>GILHOC SUR ORMEZE 6 Le dolmen de Colombier le Jeune</name>
  </metadata>
  <trk>
    <name><![CDATA[GILHOC SUR ORMEZE 6 Le dolmen de Colombier le Jeune_1]]></name>
    <extensions>
      <line xmlns="http://www.topografix.com/GPX/gpx_style/0/2">
        <color>0000FF</color>
        <width>4</width>
      </line>
    </extensions>
    <trkseg>
      <trkpt lat="44.98607" lon="4.68786">
        <ele>492</ele>
        <time>2019-01-02T10:03:17+01:00</time>
      </trkpt>
      <trkpt lat="44.98609" lon="4.68776">
        <ele>492</ele>
        <time>2019-01-02T10:03:19+01:00</time>
      </trkpt>
      <trkpt lat="44.98608" lon="4.68772">
        <ele>492</ele>
        <time>2019-01-02T10:03:21+01:00</time>
      </trkpt>
      <trkpt lat="44.98608" lon="4.6877">
        <ele>492</ele>
        <time>2019-01-02T10:03:23+01:00</time>
      </trkpt>
      <trkpt lat="44.98608" lon="4.68768">
        <ele>492</ele>
        <time>2019-01-02T10:03:25+01:00</time>
      </trkpt>
      <trkpt lat="44.98607" lon="4.68764">
        <ele>492</ele>
        <time>2019-01-02T10:03:27+01:00</time>
      </trkpt>
      <trkpt lat="44.98607" lon="4.68763">
        <ele>493</ele>
        <time>2019-01-02T10:03:28+01:00</time>
      </trkpt>
      <trkpt lat="44.98606" lon="4.68757">
        <ele>493</ele>
        <time>2019-01-02T10:03:31+01:00</time>
      </trkpt>
      <trkpt lat="44.98604" lon="4.68753">
        <ele>493</ele>
        <time>2019-01-02T10:03:33+01:00</time>
      </trkpt>
      <trkpt lat="44.98603" lon="4.68743">
        <ele>493</ele>
        <time>2019-01-02T10:03:38+01:00</time>
      </trkpt>
      <trkpt lat="44.98603" lon="4.68738">
        <ele>492</ele>
        <time>2019-01-02T10:03:41+01:00</time>
      </trkpt>
      <trkpt lat="44.98602" lon="4.68733">
        <ele>492</ele>
        <time>2019-01-02T10:03:44+01:00</time>
      </trkpt>
      <trkpt lat="44.98601" lon="4.6873">
        <ele>492</ele>
        <time>2019-01-02T10:03:46+01:00</time>
      </trkpt>
      <trkpt lat="44.98601" lon="4.68718">
        <ele>492</ele>
        <time>2019-01-02T10:03:53+01:00</time>
      </trkpt>
      <trkpt lat="44.98598" lon="4.687">
        <ele>491</ele>
        <time>2019-01-02T10:04:02+01:00</time>
      </trkpt>
      <trkpt lat="44.98597" lon="4.68693">
        <ele>490</ele>
        <time>2019-01-02T10:04:06+01:00</time>
      </trkpt>
      <trkpt lat="44.98593" lon="4.68676">
        <ele>490</ele>
        <time>2019-01-02T10:04:15+01:00</time>
      </trkpt>
      <trkpt lat="44.98592" lon="4.68669">
        <ele>490</ele>
        <time>2019-01-02T10:04:19+01:00</time>
      </trkpt>
      <trkpt lat="44.98592" lon="4.68658">
        <ele>490</ele>
        <time>2019-01-02T10:04:25+01:00</time>
      </trkpt>
      <trkpt lat="44.98592" lon="4.68646">
        <ele>490</ele>
        <time>2019-01-02T10:04:31+01:00</time>
      </trkpt>
      <trkpt lat="44.98592" lon="4.68642">
        <ele>490</ele>
        <time>2019-01-02T10:04:33+01:00</time>
      </trkpt>
      <trkpt lat="44.98588" lon="4.68626">
        <ele>491</ele>
        <time>2019-01-02T10:04:43+01:00</time>
      </trkpt>
      <trkpt lat="44.98586" lon="4.68612">
        <ele>491</ele>
        <time>2019-01-02T10:04:51+01:00</time>
      </trkpt>
      <trkpt lat="44.98589" lon="4.68596">
        <ele>491</ele>
        <time>2019-01-02T10:05:01+01:00</time>
      </trkpt>
      <trkpt lat="44.98594" lon="4.68585">
        <ele>491</ele>
        <time>2019-01-02T10:05:08+01:00</time>
      </trkpt>
      <trkpt lat="44.98599" lon="4.68577">
        <ele>491</ele>
        <time>2019-01-02T10:05:14+01:00</time>
      </trkpt>
      <trkpt lat="44.98607" lon="4.68566">
        <ele>491</ele>
        <time>2019-01-02T10:05:23+01:00</time>
      </trkpt>
      <trkpt lat="44.98616" lon="4.68555">
        <ele>490</ele>
        <time>2019-01-02T10:05:32+01:00</time>
      </trkpt>
      <trkpt lat="44.98623" lon="4.68543">
        <ele>490</ele>
        <time>2019-01-02T10:05:41+01:00</time>
      </trkpt>
      <trkpt lat="44.98629" lon="4.68536">
        <ele>490</ele>
        <time>2019-01-02T10:05:47+01:00</time>
      </trkpt>
      <trkpt lat="44.98631" lon="4.68531">
        <ele>490</ele>
        <time>2019-01-02T10:05:51+01:00</time>
      </trkpt>
      <trkpt lat="44.98639" lon="4.68519">
        <ele>489</ele>
        <time>2019-01-02T10:06:00+01:00</time>
      </trkpt>
      <trkpt lat="44.98644" lon="4.68508">
        <ele>489</ele>
        <time>2019-01-02T10:06:07+01:00</time>
      </trkpt>
      <trkpt lat="44.98653" lon="4.68493">
        <ele>489</ele>
        <time>2019-01-02T10:06:17+01:00</time>
      </trkpt>
      <trkpt lat="44.98657" lon="4.68482">
        <ele>488</ele>
        <time>2019-01-02T10:06:25+01:00</time>
      </trkpt>
      <trkpt lat="44.98659" lon="4.68463">
        <ele>488</ele>
        <time>2019-01-02T10:06:36+01:00</time>
      </trkpt>
      <trkpt lat="44.9866" lon="4.6845">
        <ele>488</ele>
        <time>2019-01-02T10:06:45+01:00</time>
      </trkpt>
      <trkpt lat="44.9866" lon="4.68439">
        <ele>488</ele>
        <time>2019-01-02T10:06:52+01:00</time>
      </trkpt>
      <trkpt lat="44.98661" lon="4.68425">
        <ele>488</ele>
        <time>2019-01-02T10:07:00+01:00</time>
      </trkpt>
      <trkpt lat="44.98662" lon="4.68416">
        <ele>488</ele>
        <time>2019-01-02T10:07:04+01:00</time>
      </trkpt>
      <trkpt lat="44.98662" lon="4.684">
        <ele>488</ele>
        <time>2019-01-02T10:07:13+01:00</time>
      </trkpt>
      <trkpt lat="44.98663" lon="4.68383">
        <ele>487</ele>
        <time>2019-01-02T10:07:21+01:00</time>
      </trkpt>
      <trkpt lat="44.98664" lon="4.68363">
        <ele>486</ele>
        <time>2019-01-02T10:07:31+01:00</time>
      </trkpt>
      <trkpt lat="44.98664" lon="4.68358">
        <ele>486</ele>
        <time>2019-01-02T10:07:33+01:00</time>
      </trkpt>
      <trkpt lat="44.98667" lon="4.6834">
        <ele>485</ele>
        <time>2019-01-02T10:07:43+01:00</time>
      </trkpt>
      <trkpt lat="44.98668" lon="4.68326">
        <ele>485</ele>
        <time>2019-01-02T10:07:52+01:00</time>
      </trkpt>
      <trkpt lat="44.98671" lon="4.68313">
        <ele>484</ele>
        <time>2019-01-02T10:08:00+01:00</time>
      </trkpt>
      <trkpt lat="44.98673" lon="4.68308">
        <ele>484</ele>
        <time>2019-01-02T10:08:03+01:00</time>
      </trkpt>
      <trkpt lat="44.98674" lon="4.68301">
        <ele>483</ele>
        <time>2019-01-02T10:08:07+01:00</time>
      </trkpt>
      <trkpt lat="44.98675" lon="4.68298">
        <ele>483</ele>
        <time>2019-01-02T10:08:09+01:00</time>
      </trkpt>
      <trkpt lat="44.98679" lon="4.68285">
        <ele>483</ele>
        <time>2019-01-02T10:08:17+01:00</time>
      </trkpt>
      <trkpt lat="44.98682" lon="4.68271">
        <ele>482</ele>
        <time>2019-01-02T10:08:25+01:00</time>
      </trkpt>
      <trkpt lat="44.98682" lon="4.68253">
        <ele>482</ele>
        <time>2019-01-02T10:08:34+01:00</time>
      </trkpt>
      <trkpt lat="44.98684" lon="4.68234">
        <ele>480</ele>
        <time>2019-01-02T10:08:45+01:00</time>
      </trkpt>
      <trkpt lat="44.98682" lon="4.68219">
        <ele>479</ele>
        <time>2019-01-02T10:08:53+01:00</time>
      </trkpt>
      <trkpt lat="44.98681" lon="4.68202">
        <ele>478</ele>
        <time>2019-01-02T10:09:02+01:00</time>
      </trkpt>
      <trkpt lat="44.98677" lon="4.68185">
        <ele>477</ele>
        <time>2019-01-02T10:09:11+01:00</time>
      </trkpt>
      <trkpt lat="44.98673" lon="4.6817">
        <ele>477</ele>
        <time>2019-01-02T10:09:20+01:00</time>
      </trkpt>
      <trkpt lat="44.98669" lon="4.68158">
        <ele>476</ele>
        <time>2019-01-02T10:09:27+01:00</time>
      </trkpt>
      <trkpt lat="44.98664" lon="4.68142">
        <ele>475</ele>
        <time>2019-01-02T10:09:37+01:00</time>
      </trkpt>
      <trkpt lat="44.98657" lon="4.68124">
        <ele>474</ele>
        <time>2019-01-02T10:09:47+01:00</time>
      </trkpt>
      <trkpt lat="44.98652" lon="4.68108">
        <ele>473</ele>
        <time>2019-01-02T10:09:57+01:00</time>
      </trkpt>
      <trkpt lat="44.98647" lon="4.68089">
        <ele>471</ele>
        <time>2019-01-02T10:10:08+01:00</time>
      </trkpt>
      <trkpt lat="44.98646" lon="4.68076">
        <ele>471</ele>
        <time>2019-01-02T10:10:16+01:00</time>
      </trkpt>
      <trkpt lat="44.98648" lon="4.68058">
        <ele>470</ele>
        <time>2019-01-02T10:10:26+01:00</time>
      </trkpt>
      <trkpt lat="44.9865" lon="4.68043">
        <ele>470</ele>
        <time>2019-01-02T10:10:35+01:00</time>
      </trkpt>
      <trkpt lat="44.98653" lon="4.68037">
        <ele>469</ele>
        <time>2019-01-02T10:10:39+01:00</time>
      </trkpt>
      <trkpt lat="44.98655" lon="4.6803">
        <ele>469</ele>
        <time>2019-01-02T10:10:43+01:00</time>
      </trkpt>
      <trkpt lat="44.98661" lon="4.68015">
        <ele>468</ele>
        <time>2019-01-02T10:10:52+01:00</time>
      </trkpt>
      <trkpt lat="44.98665" lon="4.68006">
        <ele>468</ele>
        <time>2019-01-02T10:10:58+01:00</time>
      </trkpt>
      <trkpt lat="44.98669" lon="4.67996">
        <ele>468</ele>
        <time>2019-01-02T10:11:05+01:00</time>
      </trkpt>
      <trkpt lat="44.98675" lon="4.67983">
        <ele>467</ele>
        <time>2019-01-02T10:11:14+01:00</time>
      </trkpt>
      <trkpt lat="44.98679" lon="4.67973">
        <ele>466</ele>
        <time>2019-01-02T10:11:21+01:00</time>
      </trkpt>
      <trkpt lat="44.98681" lon="4.67959">
        <ele>466</ele>
        <time>2019-01-02T10:11:30+01:00</time>
      </trkpt>
      <trkpt lat="44.98681" lon="4.67954">
        <ele>466</ele>
        <time>2019-01-02T10:11:33+01:00</time>
      </trkpt>
      <trkpt lat="44.98679" lon="4.67938">
        <ele>465</ele>
        <time>2019-01-02T10:11:43+01:00</time>
      </trkpt>
      <trkpt lat="44.98679" lon="4.67933">
        <ele>465</ele>
        <time>2019-01-02T10:11:47+01:00</time>
      </trkpt>
      <trkpt lat="44.9868" lon="4.67932">
        <ele>465</ele>
        <time>2019-01-02T10:11:48+01:00</time>
      </trkpt>
      <trkpt lat="44.98687" lon="4.67936">
        <ele>465</ele>
        <time>2019-01-02T10:11:56+01:00</time>
      </trkpt>
      <trkpt lat="44.98692" lon="4.67943">
        <ele>465</ele>
        <time>2019-01-02T10:12:00+01:00</time>
      </trkpt>
      <trkpt lat="44.98697" lon="4.67953">
        <ele>465</ele>
        <time>2019-01-02T10:12:05+01:00</time>
      </trkpt>
      <trkpt lat="44.98699" lon="4.67958">
        <ele>465</ele>
        <time>2019-01-02T10:12:08+01:00</time>
      </trkpt>
      <trkpt lat="44.98703" lon="4.67969">
        <ele>465</ele>
        <time>2019-01-02T10:12:14+01:00</time>
      </trkpt>
      <trkpt lat="44.98704" lon="4.67976">
        <ele>465</ele>
        <time>2019-01-02T10:12:19+01:00</time>
      </trkpt>
      <trkpt lat="44.98708" lon="4.67992">
        <ele>465</ele>
        <time>2019-01-02T10:12:29+01:00</time>
      </trkpt>
      <trkpt lat="44.98712" lon="4.68007">
        <ele>465</ele>
        <time>2019-01-02T10:12:37+01:00</time>
      </trkpt>
      <trkpt lat="44.98718" lon="4.68018">
        <ele>465</ele>
        <time>2019-01-02T10:12:44+01:00</time>
      </trkpt>
      <trkpt lat="44.98726" lon="4.68028">
        <ele>465</ele>
        <time>2019-01-02T10:12:53+01:00</time>
      </trkpt>
      <trkpt lat="44.98735" lon="4.6804">
        <ele>465</ele>
        <time>2019-01-02T10:13:02+01:00</time>
      </trkpt>
      <trkpt lat="44.9874" lon="4.68052">
        <ele>465</ele>
        <time>2019-01-02T10:13:11+01:00</time>
      </trkpt>
      <trkpt lat="44.98748" lon="4.68064">
        <ele>465</ele>
        <time>2019-01-02T10:13:20+01:00</time>
      </trkpt>
      <trkpt lat="44.98754" lon="4.68075">
        <ele>465</ele>
        <time>2019-01-02T10:13:29+01:00</time>
      </trkpt>
      <trkpt lat="44.98763" lon="4.68085">
        <ele>465</ele>
        <time>2019-01-02T10:13:37+01:00</time>
      </trkpt>
      <trkpt lat="44.98772" lon="4.68094">
        <ele>465</ele>
        <time>2019-01-02T10:13:45+01:00</time>
      </trkpt>
      <trkpt lat="44.9878" lon="4.681">
        <ele>464</ele>
        <time>2019-01-02T10:13:52+01:00</time>
      </trkpt>
      <trkpt lat="44.9879" lon="4.6811">
        <ele>463</ele>
        <time>2019-01-02T10:14:01+01:00</time>
      </trkpt>
      <trkpt lat="44.98797" lon="4.68119">
        <ele>463</ele>
        <time>2019-01-02T10:14:07+01:00</time>
      </trkpt>
      <trkpt lat="44.98805" lon="4.6813">
        <ele>462</ele>
        <time>2019-01-02T10:14:16+01:00</time>
      </trkpt>
      <trkpt lat="44.98809" lon="4.68134">
        <ele>462</ele>
        <time>2019-01-02T10:14:24+01:00</time>
      </trkpt>
      <trkpt lat="44.98812" lon="4.68139">
        <ele>461</ele>
        <time>2019-01-02T10:14:31+01:00</time>
      </trkpt>
      <trkpt lat="44.98815" lon="4.68143">
        <ele>461</ele>
        <time>2019-01-02T10:14:34+01:00</time>
      </trkpt>
      <trkpt lat="44.98817" lon="4.68146">
        <ele>461</ele>
        <time>2019-01-02T10:14:36+01:00</time>
      </trkpt>
      <trkpt lat="44.98826" lon="4.68156">
        <ele>460</ele>
        <time>2019-01-02T10:14:45+01:00</time>
      </trkpt>
      <trkpt lat="44.98827" lon="4.68156">
        <ele>460</ele>
        <time>2019-01-02T10:14:46+01:00</time>
      </trkpt>
      <trkpt lat="44.98831" lon="4.68157">
        <ele>459</ele>
        <time>2019-01-02T10:14:49+01:00</time>
      </trkpt>
      <trkpt lat="44.98837" lon="4.6815">
        <ele>459</ele>
        <time>2019-01-02T10:14:55+01:00</time>
      </trkpt>
      <trkpt lat="44.98838" lon="4.68145">
        <ele>459</ele>
        <time>2019-01-02T10:14:58+01:00</time>
      </trkpt>
      <trkpt lat="44.98842" lon="4.68133">
        <ele>459</ele>
        <time>2019-01-02T10:15:06+01:00</time>
      </trkpt>
      <trkpt lat="44.98844" lon="4.68125">
        <ele>459</ele>
        <time>2019-01-02T10:15:13+01:00</time>
      </trkpt>
      <trkpt lat="44.9885" lon="4.68112">
        <ele>459</ele>
        <time>2019-01-02T10:15:22+01:00</time>
      </trkpt>
      <trkpt lat="44.98855" lon="4.68099">
        <ele>459</ele>
        <time>2019-01-02T10:15:31+01:00</time>
      </trkpt>
      <trkpt lat="44.98859" lon="4.68093">
        <ele>459</ele>
        <time>2019-01-02T10:15:35+01:00</time>
      </trkpt>
      <trkpt lat="44.98869" lon="4.68079">
        <ele>460</ele>
        <time>2019-01-02T10:15:44+01:00</time>
      </trkpt>
      <trkpt lat="44.98874" lon="4.68064">
        <ele>460</ele>
        <time>2019-01-02T10:15:52+01:00</time>
      </trkpt>
      <trkpt lat="44.98878" lon="4.68044">
        <ele>461</ele>
        <time>2019-01-02T10:16:01+01:00</time>
      </trkpt>
      <trkpt lat="44.98877" lon="4.6803">
        <ele>462</ele>
        <time>2019-01-02T10:16:08+01:00</time>
      </trkpt>
      <trkpt lat="44.98874" lon="4.68018">
        <ele>463</ele>
        <time>2019-01-02T10:16:16+01:00</time>
      </trkpt>
      <trkpt lat="44.9887" lon="4.68001">
        <ele>463</ele>
        <time>2019-01-02T10:16:26+01:00</time>
      </trkpt>
      <trkpt lat="44.98869" lon="4.67987">
        <ele>464</ele>
        <time>2019-01-02T10:16:35+01:00</time>
      </trkpt>
      <trkpt lat="44.98867" lon="4.67972">
        <ele>464</ele>
        <time>2019-01-02T10:16:43+01:00</time>
      </trkpt>
      <trkpt lat="44.98867" lon="4.6796">
        <ele>465</ele>
        <time>2019-01-02T10:16:52+01:00</time>
      </trkpt>
      <trkpt lat="44.98867" lon="4.67947">
        <ele>465</ele>
        <time>2019-01-02T10:17:00+01:00</time>
      </trkpt>
      <trkpt lat="44.98868" lon="4.67926">
        <ele>466</ele>
        <time>2019-01-02T10:17:10+01:00</time>
      </trkpt>
      <trkpt lat="44.98868" lon="4.67911">
        <ele>468</ele>
        <time>2019-01-02T10:17:18+01:00</time>
      </trkpt>
      <trkpt lat="44.98868" lon="4.67901">
        <ele>469</ele>
        <time>2019-01-02T10:17:25+01:00</time>
      </trkpt>
      <trkpt lat="44.98867" lon="4.67889">
        <ele>470</ele>
        <time>2019-01-02T10:17:32+01:00</time>
      </trkpt>
      <trkpt lat="44.98867" lon="4.67886">
        <ele>470</ele>
        <time>2019-01-02T10:17:34+01:00</time>
      </trkpt>
      <trkpt lat="44.9887" lon="4.67873">
        <ele>472</ele>
        <time>2019-01-02T10:17:43+01:00</time>
      </trkpt>
      <trkpt lat="44.9887" lon="4.67865">
        <ele>473</ele>
        <time>2019-01-02T10:17:48+01:00</time>
      </trkpt>
      <trkpt lat="44.98871" lon="4.67849">
        <ele>475</ele>
        <time>2019-01-02T10:17:58+01:00</time>
      </trkpt>
      <trkpt lat="44.98874" lon="4.67837">
        <ele>475</ele>
        <time>2019-01-02T10:18:06+01:00</time>
      </trkpt>
      <trkpt lat="44.98878" lon="4.67827">
        <ele>476</ele>
        <time>2019-01-02T10:18:13+01:00</time>
      </trkpt>
      <trkpt lat="44.9888" lon="4.67815">
        <ele>476</ele>
        <time>2019-01-02T10:18:20+01:00</time>
      </trkpt>
      <trkpt lat="44.98885" lon="4.67803">
        <ele>477</ele>
        <time>2019-01-02T10:18:28+01:00</time>
      </trkpt>
      <trkpt lat="44.98889" lon="4.67791">
        <ele>477</ele>
        <time>2019-01-02T10:18:37+01:00</time>
      </trkpt>
      <trkpt lat="44.9889" lon="4.6779">
        <ele>476</ele>
        <time>2019-01-02T10:18:38+01:00</time>
      </trkpt>
      <trkpt lat="44.9889" lon="4.67785">
        <ele>477</ele>
        <time>2019-01-02T10:18:40+01:00</time>
      </trkpt>
      <trkpt lat="44.98893" lon="4.6778">
        <ele>476</ele>
        <time>2019-01-02T10:18:44+01:00</time>
      </trkpt>
      <trkpt lat="44.98893" lon="4.67775">
        <ele>476</ele>
        <time>2019-01-02T10:18:47+01:00</time>
      </trkpt>
      <trkpt lat="44.98895" lon="4.67772">
        <ele>476</ele>
        <time>2019-01-02T10:18:49+01:00</time>
      </trkpt>
      <trkpt lat="44.98901" lon="4.67762">
        <ele>475</ele>
        <time>2019-01-02T10:18:58+01:00</time>
      </trkpt>
      <trkpt lat="44.98905" lon="4.67754">
        <ele>474</ele>
        <time>2019-01-02T10:19:05+01:00</time>
      </trkpt>
      <trkpt lat="44.98909" lon="4.67745">
        <ele>473</ele>
        <time>2019-01-02T10:19:11+01:00</time>
      </trkpt>
      <trkpt lat="44.98912" lon="4.67739">
        <ele>474</ele>
        <time>2019-01-02T10:19:18+01:00</time>
      </trkpt>
      <trkpt lat="44.98917" lon="4.67732">
        <ele>473</ele>
        <time>2019-01-02T10:19:25+01:00</time>
      </trkpt>
      <trkpt lat="44.98924" lon="4.67722">
        <ele>475</ele>
        <time>2019-01-02T10:19:33+01:00</time>
      </trkpt>
      <trkpt lat="44.98928" lon="4.67709">
        <ele>477</ele>
        <time>2019-01-02T10:19:42+01:00</time>
      </trkpt>
      <trkpt lat="44.98933" lon="4.677">
        <ele>478</ele>
        <time>2019-01-02T10:19:50+01:00</time>
      </trkpt>
      <trkpt lat="44.98934" lon="4.67689">
        <ele>479</ele>
        <time>2019-01-02T10:19:56+01:00</time>
      </trkpt>
      <trkpt lat="44.98934" lon="4.67682">
        <ele>480</ele>
        <time>2019-01-02T10:19:59+01:00</time>
      </trkpt>
      <trkpt lat="44.98937" lon="4.67678">
        <ele>480</ele>
        <time>2019-01-02T10:20:03+01:00</time>
      </trkpt>
      <trkpt lat="44.98938" lon="4.67669">
        <ele>481</ele>
        <time>2019-01-02T10:20:10+01:00</time>
      </trkpt>
      <trkpt lat="44.98938" lon="4.67662">
        <ele>482</ele>
        <time>2019-01-02T10:20:14+01:00</time>
      </trkpt>
      <trkpt lat="44.98936" lon="4.67648">
        <ele>484</ele>
        <time>2019-01-02T10:20:21+01:00</time>
      </trkpt>
      <trkpt lat="44.98942" lon="4.67635">
        <ele>485</ele>
        <time>2019-01-02T10:20:28+01:00</time>
      </trkpt>
      <trkpt lat="44.98947" lon="4.67629">
        <ele>484</ele>
        <time>2019-01-02T10:20:32+01:00</time>
      </trkpt>
      <trkpt lat="44.98945" lon="4.67615">
        <ele>486</ele>
        <time>2019-01-02T10:20:40+01:00</time>
      </trkpt>
      <trkpt lat="44.98944" lon="4.67606">
        <ele>488</ele>
        <time>2019-01-02T10:20:46+01:00</time>
      </trkpt>
      <trkpt lat="44.98947" lon="4.67596">
        <ele>489</ele>
        <time>2019-01-02T10:20:54+01:00</time>
      </trkpt>
      <trkpt lat="44.9895" lon="4.67594">
        <ele>489</ele>
        <time>2019-01-02T10:21:01+01:00</time>
      </trkpt>
      <trkpt lat="44.98951" lon="4.67594">
        <ele>488</ele>
        <time>2019-01-02T10:21:07+01:00</time>
      </trkpt>
      <trkpt lat="44.98952" lon="4.67595">
        <ele>488</ele>
        <time>2019-01-02T10:21:11+01:00</time>
      </trkpt>
      <trkpt lat="44.98957" lon="4.67593">
        <ele>488</ele>
        <time>2019-01-02T10:21:19+01:00</time>
      </trkpt>
      <trkpt lat="44.9896" lon="4.67589">
        <ele>488</ele>
        <time>2019-01-02T10:21:26+01:00</time>
      </trkpt>
      <trkpt lat="44.98967" lon="4.67581">
        <ele>488</ele>
        <time>2019-01-02T10:21:34+01:00</time>
      </trkpt>
      <trkpt lat="44.98971" lon="4.67574">
        <ele>488</ele>
        <time>2019-01-02T10:21:41+01:00</time>
      </trkpt>
      <trkpt lat="44.98974" lon="4.67568">
        <ele>489</ele>
        <time>2019-01-02T10:21:48+01:00</time>
      </trkpt>
      <trkpt lat="44.98978" lon="4.67562">
        <ele>490</ele>
        <time>2019-01-02T10:21:55+01:00</time>
      </trkpt>
      <trkpt lat="44.98982" lon="4.67553">
        <ele>491</ele>
        <time>2019-01-02T10:22:02+01:00</time>
      </trkpt>
      <trkpt lat="44.98984" lon="4.67549">
        <ele>491</ele>
        <time>2019-01-02T10:22:06+01:00</time>
      </trkpt>
      <trkpt lat="44.98986" lon="4.67542">
        <ele>492</ele>
        <time>2019-01-02T10:22:13+01:00</time>
      </trkpt>
      <trkpt lat="44.9899" lon="4.67533">
        <ele>493</ele>
        <time>2019-01-02T10:22:20+01:00</time>
      </trkpt>
      <trkpt lat="44.98993" lon="4.67526">
        <ele>494</ele>
        <time>2019-01-02T10:22:25+01:00</time>
      </trkpt>
      <trkpt lat="44.98995" lon="4.67518">
        <ele>495</ele>
        <time>2019-01-02T10:22:32+01:00</time>
      </trkpt>
      <trkpt lat="44.98995" lon="4.67517">
        <ele>496</ele>
        <time>2019-01-02T10:22:33+01:00</time>
      </trkpt>
      <trkpt lat="44.98995" lon="4.67508">
        <ele>497</ele>
        <time>2019-01-02T10:22:39+01:00</time>
      </trkpt>
      <trkpt lat="44.98994" lon="4.67503">
        <ele>498</ele>
        <time>2019-01-02T10:22:46+01:00</time>
      </trkpt>
      <trkpt lat="44.98997" lon="4.67497">
        <ele>499</ele>
        <time>2019-01-02T10:22:52+01:00</time>
      </trkpt>
      <trkpt lat="44.99003" lon="4.67493">
        <ele>498</ele>
        <time>2019-01-02T10:22:58+01:00</time>
      </trkpt>
      <trkpt lat="44.99008" lon="4.67492">
        <ele>497</ele>
        <time>2019-01-02T10:23:05+01:00</time>
      </trkpt>
      <trkpt lat="44.9901" lon="4.6749">
        <ele>497</ele>
        <time>2019-01-02T10:23:11+01:00</time>
      </trkpt>
      <trkpt lat="44.99011" lon="4.67489">
        <ele>497</ele>
        <time>2019-01-02T10:23:14+01:00</time>
      </trkpt>
      <trkpt lat="44.99018" lon="4.67488">
        <ele>495</ele>
        <time>2019-01-02T10:23:22+01:00</time>
      </trkpt>
      <trkpt lat="44.99024" lon="4.67485">
        <ele>494</ele>
        <time>2019-01-02T10:23:29+01:00</time>
      </trkpt>
      <trkpt lat="44.99028" lon="4.6748">
        <ele>494</ele>
        <time>2019-01-02T10:23:35+01:00</time>
      </trkpt>
      <trkpt lat="44.99032" lon="4.67472">
        <ele>494</ele>
        <time>2019-01-02T10:23:43+01:00</time>
      </trkpt>
      <trkpt lat="44.99034" lon="4.67465">
        <ele>494</ele>
        <time>2019-01-02T10:23:49+01:00</time>
      </trkpt>
      <trkpt lat="44.99034" lon="4.67464">
        <ele>494</ele>
        <time>2019-01-02T10:23:51+01:00</time>
      </trkpt>
      <trkpt lat="44.99035" lon="4.67459">
        <ele>494</ele>
        <time>2019-01-02T10:23:54+01:00</time>
      </trkpt>
      <trkpt lat="44.99035" lon="4.67452">
        <ele>494</ele>
        <time>2019-01-02T10:24:00+01:00</time>
      </trkpt>
      <trkpt lat="44.99034" lon="4.67451">
        <ele>494</ele>
        <time>2019-01-02T10:24:01+01:00</time>
      </trkpt>
      <trkpt lat="44.99033" lon="4.67447">
        <ele>495</ele>
        <time>2019-01-02T10:24:04+01:00</time>
      </trkpt>
      <trkpt lat="44.99028" lon="4.67442">
        <ele>496</ele>
        <time>2019-01-02T10:24:11+01:00</time>
      </trkpt>
      <trkpt lat="44.99021" lon="4.6744">
        <ele>498</ele>
        <time>2019-01-02T10:24:18+01:00</time>
      </trkpt>
      <trkpt lat="44.99015" lon="4.67432">
        <ele>500</ele>
        <time>2019-01-02T10:24:27+01:00</time>
      </trkpt>
      <trkpt lat="44.99007" lon="4.67425">
        <ele>502</ele>
        <time>2019-01-02T10:24:34+01:00</time>
      </trkpt>
      <trkpt lat="44.99002" lon="4.67424">
        <ele>503</ele>
        <time>2019-01-02T10:24:42+01:00</time>
      </trkpt>
      <trkpt lat="44.98996" lon="4.67429">
        <ele>504</ele>
        <time>2019-01-02T10:24:50+01:00</time>
      </trkpt>
      <trkpt lat="44.98991" lon="4.67433">
        <ele>504</ele>
        <time>2019-01-02T10:24:56+01:00</time>
      </trkpt>
      <trkpt lat="44.98993" lon="4.67436">
        <ele>504</ele>
        <time>2019-01-02T10:25:04+01:00</time>
      </trkpt>
      <trkpt lat="44.98987" lon="4.67432">
        <ele>505</ele>
        <time>2019-01-02T10:25:20+01:00</time>
      </trkpt>
      <trkpt lat="44.98986" lon="4.67437">
        <ele>505</ele>
        <time>2019-01-02T10:25:28+01:00</time>
      </trkpt>
      <trkpt lat="44.98983" lon="4.67438">
        <ele>505</ele>
        <time>2019-01-02T10:25:36+01:00</time>
      </trkpt>
      <trkpt lat="44.98982" lon="4.67438">
        <ele>505</ele>
        <time>2019-01-02T10:25:39+01:00</time>
      </trkpt>
      <trkpt lat="44.98975" lon="4.67437">
        <ele>507</ele>
        <time>2019-01-02T10:25:47+01:00</time>
      </trkpt>
      <trkpt lat="44.9897" lon="4.67436">
        <ele>508</ele>
        <time>2019-01-02T10:25:54+01:00</time>
      </trkpt>
      <trkpt lat="44.98963" lon="4.67433">
        <ele>509</ele>
        <time>2019-01-02T10:26:01+01:00</time>
      </trkpt>
      <trkpt lat="44.98962" lon="4.67433">
        <ele>509</ele>
        <time>2019-01-02T10:26:02+01:00</time>
      </trkpt>
      <trkpt lat="44.98957" lon="4.67433">
        <ele>510</ele>
        <time>2019-01-02T10:26:07+01:00</time>
      </trkpt>
      <trkpt lat="44.98955" lon="4.67433">
        <ele>510</ele>
        <time>2019-01-02T10:26:08+01:00</time>
      </trkpt>
      <trkpt lat="44.98948" lon="4.67434">
        <ele>511</ele>
        <time>2019-01-02T10:26:14+01:00</time>
      </trkpt>
      <trkpt lat="44.98938" lon="4.67434">
        <ele>513</ele>
        <time>2019-01-02T10:26:23+01:00</time>
      </trkpt>
      <trkpt lat="44.98931" lon="4.67433">
        <ele>514</ele>
        <time>2019-01-02T10:26:30+01:00</time>
      </trkpt>
      <trkpt lat="44.98927" lon="4.67433">
        <ele>515</ele>
        <time>2019-01-02T10:26:36+01:00</time>
      </trkpt>
      <trkpt lat="44.98925" lon="4.67431">
        <ele>515</ele>
        <time>2019-01-02T10:26:43+01:00</time>
      </trkpt>
      <trkpt lat="44.98923" lon="4.67428">
        <ele>516</ele>
        <time>2019-01-02T10:26:52+01:00</time>
      </trkpt>
      <trkpt lat="44.98922" lon="4.67428">
        <ele>516</ele>
        <time>2019-01-02T10:27:02+01:00</time>
      </trkpt>
      <trkpt lat="44.98921" lon="4.67427">
        <ele>516</ele>
        <time>2019-01-02T10:27:12+01:00</time>
      </trkpt>
      <trkpt lat="44.98919" lon="4.67426">
        <ele>517</ele>
        <time>2019-01-02T10:27:25+01:00</time>
      </trkpt>
      <trkpt lat="44.9892" lon="4.67428">
        <ele>516</ele>
        <time>2019-01-02T10:27:38+01:00</time>
      </trkpt>
      <trkpt lat="44.98921" lon="4.67427">
        <ele>516</ele>
        <time>2019-01-02T10:27:48+01:00</time>
      </trkpt>
      <trkpt lat="44.98919" lon="4.67427">
        <ele>517</ele>
        <time>2019-01-02T10:28:00+01:00</time>
      </trkpt>
      <trkpt lat="44.98918" lon="4.67422">
        <ele>517</ele>
        <time>2019-01-02T10:28:08+01:00</time>
      </trkpt>
      <trkpt lat="44.98917" lon="4.67417">
        <ele>518</ele>
        <time>2019-01-02T10:28:12+01:00</time>
      </trkpt>
      <trkpt lat="44.98912" lon="4.67408">
        <ele>519</ele>
        <time>2019-01-02T10:28:20+01:00</time>
      </trkpt>
      <trkpt lat="44.98911" lon="4.67405">
        <ele>519</ele>
        <time>2019-01-02T10:28:22+01:00</time>
      </trkpt>
      <trkpt lat="44.9891" lon="4.67401">
        <ele>519</ele>
        <time>2019-01-02T10:28:25+01:00</time>
      </trkpt>
      <trkpt lat="44.98904" lon="4.67393">
        <ele>520</ele>
        <time>2019-01-02T10:28:33+01:00</time>
      </trkpt>
      <trkpt lat="44.98898" lon="4.67385">
        <ele>521</ele>
        <time>2019-01-02T10:28:41+01:00</time>
      </trkpt>
      <trkpt lat="44.98895" lon="4.67382">
        <ele>521</ele>
        <time>2019-01-02T10:28:44+01:00</time>
      </trkpt>
      <trkpt lat="44.98888" lon="4.6737">
        <ele>523</ele>
        <time>2019-01-02T10:28:54+01:00</time>
      </trkpt>
      <trkpt lat="44.98888" lon="4.67366">
        <ele>523</ele>
        <time>2019-01-02T10:29:01+01:00</time>
      </trkpt>
      <trkpt lat="44.98887" lon="4.6735">
        <ele>523</ele>
        <time>2019-01-02T10:29:10+01:00</time>
      </trkpt>
      <trkpt lat="44.98888" lon="4.67343">
        <ele>523</ele>
        <time>2019-01-02T10:29:14+01:00</time>
      </trkpt>
      <trkpt lat="44.9889" lon="4.6733">
        <ele>523</ele>
        <time>2019-01-02T10:29:22+01:00</time>
      </trkpt>
      <trkpt lat="44.98889" lon="4.67314">
        <ele>523</ele>
        <time>2019-01-02T10:29:32+01:00</time>
      </trkpt>
      <trkpt lat="44.98886" lon="4.673">
        <ele>525</ele>
        <time>2019-01-02T10:29:41+01:00</time>
      </trkpt>
      <trkpt lat="44.98883" lon="4.67293">
        <ele>525</ele>
        <time>2019-01-02T10:29:46+01:00</time>
      </trkpt>
      <trkpt lat="44.98878" lon="4.6728">
        <ele>527</ele>
        <time>2019-01-02T10:29:55+01:00</time>
      </trkpt>
      <trkpt lat="44.98873" lon="4.67266">
        <ele>528</ele>
        <time>2019-01-02T10:30:05+01:00</time>
      </trkpt>
      <trkpt lat="44.98866" lon="4.67255">
        <ele>530</ele>
        <time>2019-01-02T10:30:13+01:00</time>
      </trkpt>
      <trkpt lat="44.98862" lon="4.67251">
        <ele>531</ele>
        <time>2019-01-02T10:30:17+01:00</time>
      </trkpt>
      <trkpt lat="44.98854" lon="4.67245">
        <ele>533</ele>
        <time>2019-01-02T10:30:26+01:00</time>
      </trkpt>
      <trkpt lat="44.98845" lon="4.67243">
        <ele>536</ele>
        <time>2019-01-02T10:30:35+01:00</time>
      </trkpt>
      <trkpt lat="44.98837" lon="4.6724">
        <ele>537</ele>
        <time>2019-01-02T10:30:43+01:00</time>
      </trkpt>
      <trkpt lat="44.9883" lon="4.67233">
        <ele>539</ele>
        <time>2019-01-02T10:30:52+01:00</time>
      </trkpt>
      <trkpt lat="44.98823" lon="4.67222">
        <ele>541</ele>
        <time>2019-01-02T10:31:00+01:00</time>
      </trkpt>
      <trkpt lat="44.98821" lon="4.67213">
        <ele>541</ele>
        <time>2019-01-02T10:31:07+01:00</time>
      </trkpt>
      <trkpt lat="44.98818" lon="4.67203">
        <ele>542</ele>
        <time>2019-01-02T10:31:14+01:00</time>
      </trkpt>
      <trkpt lat="44.98815" lon="4.67193">
        <ele>542</ele>
        <time>2019-01-02T10:31:21+01:00</time>
      </trkpt>
      <trkpt lat="44.98811" lon="4.67181">
        <ele>543</ele>
        <time>2019-01-02T10:31:28+01:00</time>
      </trkpt>
      <trkpt lat="44.98809" lon="4.67174">
        <ele>544</ele>
        <time>2019-01-02T10:31:35+01:00</time>
      </trkpt>
      <trkpt lat="44.9881" lon="4.67173">
        <ele>544</ele>
        <time>2019-01-02T10:31:36+01:00</time>
      </trkpt>
      <trkpt lat="44.98806" lon="4.67167">
        <ele>545</ele>
        <time>2019-01-02T10:31:41+01:00</time>
      </trkpt>
      <trkpt lat="44.988" lon="4.67156">
        <ele>547</ele>
        <time>2019-01-02T10:31:48+01:00</time>
      </trkpt>
      <trkpt lat="44.98798" lon="4.67146">
        <ele>548</ele>
        <time>2019-01-02T10:31:55+01:00</time>
      </trkpt>
      <trkpt lat="44.98797" lon="4.67137">
        <ele>549</ele>
        <time>2019-01-02T10:32:02+01:00</time>
      </trkpt>
      <trkpt lat="44.98793" lon="4.67126">
        <ele>551</ele>
        <time>2019-01-02T10:32:10+01:00</time>
      </trkpt>
      <trkpt lat="44.98791" lon="4.6712">
        <ele>552</ele>
        <time>2019-01-02T10:32:13+01:00</time>
      </trkpt>
      <trkpt lat="44.9879" lon="4.67116">
        <ele>552</ele>
        <time>2019-01-02T10:32:16+01:00</time>
      </trkpt>
      <trkpt lat="44.98787" lon="4.67108">
        <ele>554</ele>
        <time>2019-01-02T10:32:21+01:00</time>
      </trkpt>
      <trkpt lat="44.98785" lon="4.671">
        <ele>554</ele>
        <time>2019-01-02T10:32:26+01:00</time>
      </trkpt>
      <trkpt lat="44.98786" lon="4.67092">
        <ele>554</ele>
        <time>2019-01-02T10:32:31+01:00</time>
      </trkpt>
      <trkpt lat="44.98788" lon="4.67083">
        <ele>553</ele>
        <time>2019-01-02T10:32:39+01:00</time>
      </trkpt>
      <trkpt lat="44.98791" lon="4.67074">
        <ele>553</ele>
        <time>2019-01-02T10:32:46+01:00</time>
      </trkpt>
      <trkpt lat="44.98792" lon="4.6707">
        <ele>553</ele>
        <time>2019-01-02T10:32:49+01:00</time>
      </trkpt>
      <trkpt lat="44.9879" lon="4.67059">
        <ele>554</ele>
        <time>2019-01-02T10:32:55+01:00</time>
      </trkpt>
      <trkpt lat="44.98785" lon="4.67048">
        <ele>557</ele>
        <time>2019-01-02T10:33:02+01:00</time>
      </trkpt>
      <trkpt lat="44.98782" lon="4.67037">
        <ele>558</ele>
        <time>2019-01-02T10:33:09+01:00</time>
      </trkpt>
      <trkpt lat="44.9878" lon="4.67028">
        <ele>559</ele>
        <time>2019-01-02T10:33:15+01:00</time>
      </trkpt>
      <trkpt lat="44.98779" lon="4.67018">
        <ele>560</ele>
        <time>2019-01-02T10:33:21+01:00</time>
      </trkpt>
      <trkpt lat="44.98778" lon="4.67009">
        <ele>561</ele>
        <time>2019-01-02T10:33:27+01:00</time>
      </trkpt>
      <trkpt lat="44.98777" lon="4.67006">
        <ele>562</ele>
        <time>2019-01-02T10:33:29+01:00</time>
      </trkpt>
      <trkpt lat="44.98776" lon="4.66992">
        <ele>563</ele>
        <time>2019-01-02T10:33:38+01:00</time>
      </trkpt>
      <trkpt lat="44.9878" lon="4.66984">
        <ele>562</ele>
        <time>2019-01-02T10:33:44+01:00</time>
      </trkpt>
      <trkpt lat="44.98779" lon="4.66972">
        <ele>564</ele>
        <time>2019-01-02T10:33:51+01:00</time>
      </trkpt>
      <trkpt lat="44.98777" lon="4.66963">
        <ele>565</ele>
        <time>2019-01-02T10:33:57+01:00</time>
      </trkpt>
      <trkpt lat="44.98775" lon="4.66954">
        <ele>567</ele>
        <time>2019-01-02T10:34:03+01:00</time>
      </trkpt>
      <trkpt lat="44.98777" lon="4.66942">
        <ele>568</ele>
        <time>2019-01-02T10:34:11+01:00</time>
      </trkpt>
      <trkpt lat="44.9878" lon="4.66933">
        <ele>568</ele>
        <time>2019-01-02T10:34:18+01:00</time>
      </trkpt>
      <trkpt lat="44.98781" lon="4.66929">
        <ele>568</ele>
        <time>2019-01-02T10:34:23+01:00</time>
      </trkpt>
      <trkpt lat="44.9879" lon="4.66922">
        <ele>566</ele>
        <time>2019-01-02T10:34:32+01:00</time>
      </trkpt>
      <trkpt lat="44.98795" lon="4.66922">
        <ele>565</ele>
        <time>2019-01-02T10:34:39+01:00</time>
      </trkpt>
      <trkpt lat="44.98803" lon="4.66922">
        <ele>563</ele>
        <time>2019-01-02T10:34:47+01:00</time>
      </trkpt>
      <trkpt lat="44.98808" lon="4.66922">
        <ele>562</ele>
        <time>2019-01-02T10:34:52+01:00</time>
      </trkpt>
      <trkpt lat="44.98813" lon="4.66921">
        <ele>561</ele>
        <time>2019-01-02T10:35:00+01:00</time>
      </trkpt>
      <trkpt lat="44.98815" lon="4.66921">
        <ele>560</ele>
        <time>2019-01-02T10:35:08+01:00</time>
      </trkpt>
      <trkpt lat="44.98814" lon="4.66921">
        <ele>560</ele>
        <time>2019-01-02T10:35:21+01:00</time>
      </trkpt>
      <trkpt lat="44.98815" lon="4.66921">
        <ele>560</ele>
        <time>2019-01-02T10:35:31+01:00</time>
      </trkpt>
      <trkpt lat="44.98816" lon="4.66918">
        <ele>560</ele>
        <time>2019-01-02T10:35:40+01:00</time>
      </trkpt>
      <trkpt lat="44.98818" lon="4.66915">
        <ele>560</ele>
        <time>2019-01-02T10:35:48+01:00</time>
      </trkpt>
      <trkpt lat="44.9882" lon="4.66913">
        <ele>560</ele>
        <time>2019-01-02T10:35:58+01:00</time>
      </trkpt>
      <trkpt lat="44.98825" lon="4.66907">
        <ele>559</ele>
        <time>2019-01-02T10:36:05+01:00</time>
      </trkpt>
      <trkpt lat="44.9883" lon="4.66897">
        <ele>558</ele>
        <time>2019-01-02T10:36:13+01:00</time>
      </trkpt>
      <trkpt lat="44.98831" lon="4.66893">
        <ele>558</ele>
        <time>2019-01-02T10:36:16+01:00</time>
      </trkpt>
      <trkpt lat="44.9883" lon="4.66881">
        <ele>559</ele>
        <time>2019-01-02T10:36:25+01:00</time>
      </trkpt>
      <trkpt lat="44.9883" lon="4.66879">
        <ele>559</ele>
        <time>2019-01-02T10:36:27+01:00</time>
      </trkpt>
      <trkpt lat="44.98829" lon="4.66875">
        <ele>559</ele>
        <time>2019-01-02T10:36:30+01:00</time>
      </trkpt>
      <trkpt lat="44.98829" lon="4.66876">
        <ele>559</ele>
        <time>2019-01-02T10:36:42+01:00</time>
      </trkpt>
      <trkpt lat="44.98828" lon="4.66874">
        <ele>560</ele>
        <time>2019-01-02T10:36:50+01:00</time>
      </trkpt>
      <trkpt lat="44.98826" lon="4.66869">
        <ele>560</ele>
        <time>2019-01-02T10:36:57+01:00</time>
      </trkpt>
      <trkpt lat="44.98826" lon="4.66867">
        <ele>560</ele>
        <time>2019-01-02T10:37:08+01:00</time>
      </trkpt>
      <trkpt lat="44.98826" lon="4.66865">
        <ele>561</ele>
        <time>2019-01-02T10:37:10+01:00</time>
      </trkpt>
      <trkpt lat="44.98819" lon="4.66853">
        <ele>563</ele>
        <time>2019-01-02T10:37:18+01:00</time>
      </trkpt>
      <trkpt lat="44.98819" lon="4.66851">
        <ele>564</ele>
        <time>2019-01-02T10:37:19+01:00</time>
      </trkpt>
      <trkpt lat="44.98816" lon="4.66846">
        <ele>565</ele>
        <time>2019-01-02T10:37:23+01:00</time>
      </trkpt>
      <trkpt lat="44.98813" lon="4.66839">
        <ele>566</ele>
        <time>2019-01-02T10:37:27+01:00</time>
      </trkpt>
      <trkpt lat="44.9881" lon="4.66825">
        <ele>567</ele>
        <time>2019-01-02T10:37:35+01:00</time>
      </trkpt>
      <trkpt lat="44.98808" lon="4.66812">
        <ele>566</ele>
        <time>2019-01-02T10:37:42+01:00</time>
      </trkpt>
      <trkpt lat="44.98807" lon="4.66808">
        <ele>566</ele>
        <time>2019-01-02T10:37:44+01:00</time>
      </trkpt>
      <trkpt lat="44.98802" lon="4.66796">
        <ele>567</ele>
        <time>2019-01-02T10:37:52+01:00</time>
      </trkpt>
      <trkpt lat="44.98799" lon="4.66781">
        <ele>566</ele>
        <time>2019-01-02T10:38:00+01:00</time>
      </trkpt>
      <trkpt lat="44.98799" lon="4.6678">
        <ele>566</ele>
        <time>2019-01-02T10:38:01+01:00</time>
      </trkpt>
      <trkpt lat="44.98797" lon="4.66777">
        <ele>567</ele>
        <time>2019-01-02T10:38:03+01:00</time>
      </trkpt>
      <trkpt lat="44.98792" lon="4.66767">
        <ele>568</ele>
        <time>2019-01-02T10:38:11+01:00</time>
      </trkpt>
      <trkpt lat="44.98788" lon="4.66758">
        <ele>569</ele>
        <time>2019-01-02T10:38:18+01:00</time>
      </trkpt>
      <trkpt lat="44.98784" lon="4.66748">
        <ele>570</ele>
        <time>2019-01-02T10:38:24+01:00</time>
      </trkpt>
      <trkpt lat="44.98779" lon="4.66738">
        <ele>571</ele>
        <time>2019-01-02T10:38:31+01:00</time>
      </trkpt>
      <trkpt lat="44.98773" lon="4.66725">
        <ele>572</ele>
        <time>2019-01-02T10:38:40+01:00</time>
      </trkpt>
      <trkpt lat="44.98768" lon="4.66715">
        <ele>574</ele>
        <time>2019-01-02T10:38:47+01:00</time>
      </trkpt>
      <trkpt lat="44.98767" lon="4.66712">
        <ele>574</ele>
        <time>2019-01-02T10:38:49+01:00</time>
      </trkpt>
      <trkpt lat="44.9876" lon="4.66697">
        <ele>575</ele>
        <time>2019-01-02T10:38:59+01:00</time>
      </trkpt>
      <trkpt lat="44.98759" lon="4.66692">
        <ele>575</ele>
        <time>2019-01-02T10:39:04+01:00</time>
      </trkpt>
      <trkpt lat="44.98755" lon="4.66682">
        <ele>576</ele>
        <time>2019-01-02T10:39:10+01:00</time>
      </trkpt>
      <trkpt lat="44.9875" lon="4.66671">
        <ele>577</ele>
        <time>2019-01-02T10:39:18+01:00</time>
      </trkpt>
      <trkpt lat="44.98745" lon="4.66662">
        <ele>578</ele>
        <time>2019-01-02T10:39:25+01:00</time>
      </trkpt>
      <trkpt lat="44.98741" lon="4.66651">
        <ele>579</ele>
        <time>2019-01-02T10:39:33+01:00</time>
      </trkpt>
      <trkpt lat="44.9874" lon="4.6665">
        <ele>579</ele>
        <time>2019-01-02T10:39:34+01:00</time>
      </trkpt>
      <trkpt lat="44.98733" lon="4.66635">
        <ele>581</ele>
        <time>2019-01-02T10:39:44+01:00</time>
      </trkpt>
      <trkpt lat="44.98731" lon="4.66627">
        <ele>581</ele>
        <time>2019-01-02T10:39:50+01:00</time>
      </trkpt>
      <trkpt lat="44.9873" lon="4.66616">
        <ele>581</ele>
        <time>2019-01-02T10:39:56+01:00</time>
      </trkpt>
      <trkpt lat="44.98729" lon="4.66609">
        <ele>581</ele>
        <time>2019-01-02T10:40:00+01:00</time>
      </trkpt>
      <trkpt lat="44.98727" lon="4.66602">
        <ele>581</ele>
        <time>2019-01-02T10:40:06+01:00</time>
      </trkpt>
      <trkpt lat="44.98723" lon="4.66589">
        <ele>581</ele>
        <time>2019-01-02T10:40:14+01:00</time>
      </trkpt>
      <trkpt lat="44.98719" lon="4.66576">
        <ele>581</ele>
        <time>2019-01-02T10:40:23+01:00</time>
      </trkpt>
      <trkpt lat="44.98714" lon="4.66563">
        <ele>582</ele>
        <time>2019-01-02T10:40:34+01:00</time>
      </trkpt>
      <trkpt lat="44.98712" lon="4.66559">
        <ele>583</ele>
        <time>2019-01-02T10:40:37+01:00</time>
      </trkpt>
      <trkpt lat="44.98711" lon="4.66553">
        <ele>583</ele>
        <time>2019-01-02T10:40:41+01:00</time>
      </trkpt>
      <trkpt lat="44.98708" lon="4.66549">
        <ele>583</ele>
        <time>2019-01-02T10:40:45+01:00</time>
      </trkpt>
      <trkpt lat="44.98702" lon="4.66535">
        <ele>584</ele>
        <time>2019-01-02T10:40:54+01:00</time>
      </trkpt>
      <trkpt lat="44.98698" lon="4.66523">
        <ele>585</ele>
        <time>2019-01-02T10:41:02+01:00</time>
      </trkpt>
      <trkpt lat="44.98696" lon="4.66514">
        <ele>585</ele>
        <time>2019-01-02T10:41:08+01:00</time>
      </trkpt>
      <trkpt lat="44.98693" lon="4.66504">
        <ele>585</ele>
        <time>2019-01-02T10:41:15+01:00</time>
      </trkpt>
      <trkpt lat="44.98693" lon="4.66499">
        <ele>585</ele>
        <time>2019-01-02T10:41:20+01:00</time>
      </trkpt>
      <trkpt lat="44.98692" lon="4.66493">
        <ele>586</ele>
        <time>2019-01-02T10:41:25+01:00</time>
      </trkpt>
      <trkpt lat="44.98691" lon="4.66488">
        <ele>586</ele>
        <time>2019-01-02T10:41:31+01:00</time>
      </trkpt>
      <trkpt lat="44.98689" lon="4.66487">
        <ele>586</ele>
        <time>2019-01-02T10:41:34+01:00</time>
      </trkpt>
      <trkpt lat="44.98689" lon="4.66475">
        <ele>587</ele>
        <time>2019-01-02T10:41:42+01:00</time>
      </trkpt>
      <trkpt lat="44.98688" lon="4.66472">
        <ele>587</ele>
        <time>2019-01-02T10:41:49+01:00</time>
      </trkpt>
      <trkpt lat="44.98687" lon="4.66472">
        <ele>587</ele>
        <time>2019-01-02T10:41:56+01:00</time>
      </trkpt>
      <trkpt lat="44.98688" lon="4.66472">
        <ele>587</ele>
        <time>2019-01-02T10:42:03+01:00</time>
      </trkpt>
      <trkpt lat="44.98687" lon="4.66473">
        <ele>587</ele>
        <time>2019-01-02T10:42:08+01:00</time>
      </trkpt>
      <trkpt lat="44.98687" lon="4.66466">
        <ele>587</ele>
        <time>2019-01-02T10:42:12+01:00</time>
      </trkpt>
      <trkpt lat="44.98684" lon="4.66447">
        <ele>588</ele>
        <time>2019-01-02T10:42:22+01:00</time>
      </trkpt>
      <trkpt lat="44.98681" lon="4.66435">
        <ele>589</ele>
        <time>2019-01-02T10:42:29+01:00</time>
      </trkpt>
      <trkpt lat="44.9868" lon="4.66429">
        <ele>589</ele>
        <time>2019-01-02T10:42:32+01:00</time>
      </trkpt>
      <trkpt lat="44.98677" lon="4.66419">
        <ele>590</ele>
        <time>2019-01-02T10:42:39+01:00</time>
      </trkpt>
      <trkpt lat="44.98676" lon="4.66412">
        <ele>590</ele>
        <time>2019-01-02T10:42:43+01:00</time>
      </trkpt>
      <trkpt lat="44.98674" lon="4.66393">
        <ele>592</ele>
        <time>2019-01-02T10:42:53+01:00</time>
      </trkpt>
      <trkpt lat="44.98674" lon="4.66388">
        <ele>592</ele>
        <time>2019-01-02T10:42:56+01:00</time>
      </trkpt>
      <trkpt lat="44.98676" lon="4.66376">
        <ele>592</ele>
        <time>2019-01-02T10:43:03+01:00</time>
      </trkpt>
      <trkpt lat="44.98677" lon="4.66372">
        <ele>592</ele>
        <time>2019-01-02T10:43:05+01:00</time>
      </trkpt>
      <trkpt lat="44.98679" lon="4.66364">
        <ele>593</ele>
        <time>2019-01-02T10:43:10+01:00</time>
      </trkpt>
      <trkpt lat="44.9868" lon="4.66355">
        <ele>593</ele>
        <time>2019-01-02T10:43:15+01:00</time>
      </trkpt>
      <trkpt lat="44.98681" lon="4.66347">
        <ele>593</ele>
        <time>2019-01-02T10:43:20+01:00</time>
      </trkpt>
      <trkpt lat="44.98683" lon="4.66333">
        <ele>594</ele>
        <time>2019-01-02T10:43:29+01:00</time>
      </trkpt>
      <trkpt lat="44.98683" lon="4.66332">
        <ele>594</ele>
        <time>2019-01-02T10:43:30+01:00</time>
      </trkpt>
      <trkpt lat="44.98686" lon="4.66322">
        <ele>595</ele>
        <time>2019-01-02T10:43:35+01:00</time>
      </trkpt>
      <trkpt lat="44.98691" lon="4.66313">
        <ele>596</ele>
        <time>2019-01-02T10:43:43+01:00</time>
      </trkpt>
      <trkpt lat="44.98692" lon="4.66312">
        <ele>596</ele>
        <time>2019-01-02T10:43:44+01:00</time>
      </trkpt>
      <trkpt lat="44.98693" lon="4.66304">
        <ele>597</ele>
        <time>2019-01-02T10:43:49+01:00</time>
      </trkpt>
      <trkpt lat="44.98697" lon="4.66294">
        <ele>598</ele>
        <time>2019-01-02T10:43:54+01:00</time>
      </trkpt>
      <trkpt lat="44.987" lon="4.66282">
        <ele>600</ele>
        <time>2019-01-02T10:44:00+01:00</time>
      </trkpt>
      <trkpt lat="44.98698" lon="4.66275">
        <ele>601</ele>
        <time>2019-01-02T10:44:05+01:00</time>
      </trkpt>
      <trkpt lat="44.98699" lon="4.66265">
        <ele>603</ele>
        <time>2019-01-02T10:44:13+01:00</time>
      </trkpt>
      <trkpt lat="44.9871" lon="4.66263">
        <ele>602</ele>
        <time>2019-01-02T10:44:22+01:00</time>
      </trkpt>
      <trkpt lat="44.98711" lon="4.66264">
        <ele>602</ele>
        <time>2019-01-02T10:44:23+01:00</time>
      </trkpt>
      <trkpt lat="44.98721" lon="4.6627">
        <ele>599</ele>
        <time>2019-01-02T10:44:31+01:00</time>
      </trkpt>
      <trkpt lat="44.98728" lon="4.66274">
        <ele>598</ele>
        <time>2019-01-02T10:44:39+01:00</time>
      </trkpt>
      <trkpt lat="44.98735" lon="4.66276">
        <ele>596</ele>
        <time>2019-01-02T10:44:46+01:00</time>
      </trkpt>
      <trkpt lat="44.98745" lon="4.66279">
        <ele>594</ele>
        <time>2019-01-02T10:44:54+01:00</time>
      </trkpt>
      <trkpt lat="44.98746" lon="4.6628">
        <ele>594</ele>
        <time>2019-01-02T10:44:55+01:00</time>
      </trkpt>
      <trkpt lat="44.98751" lon="4.66284">
        <ele>593</ele>
        <time>2019-01-02T10:44:59+01:00</time>
      </trkpt>
      <trkpt lat="44.98759" lon="4.66289">
        <ele>591</ele>
        <time>2019-01-02T10:45:06+01:00</time>
      </trkpt>
      <trkpt lat="44.98761" lon="4.66292">
        <ele>591</ele>
        <time>2019-01-02T10:45:09+01:00</time>
      </trkpt>
      <trkpt lat="44.98763" lon="4.66295">
        <ele>590</ele>
        <time>2019-01-02T10:45:11+01:00</time>
      </trkpt>
      <trkpt lat="44.9877" lon="4.66303">
        <ele>589</ele>
        <time>2019-01-02T10:45:20+01:00</time>
      </trkpt>
      <trkpt lat="44.98776" lon="4.66308">
        <ele>587</ele>
        <time>2019-01-02T10:45:28+01:00</time>
      </trkpt>
      <trkpt lat="44.98777" lon="4.66309">
        <ele>587</ele>
        <time>2019-01-02T10:45:29+01:00</time>
      </trkpt>
      <trkpt lat="44.98784" lon="4.66311">
        <ele>587</ele>
        <time>2019-01-02T10:45:36+01:00</time>
      </trkpt>
      <trkpt lat="44.98797" lon="4.66311">
        <ele>587</ele>
        <time>2019-01-02T10:45:45+01:00</time>
      </trkpt>
      <trkpt lat="44.98806" lon="4.66303">
        <ele>588</ele>
        <time>2019-01-02T10:45:52+01:00</time>
      </trkpt>
      <trkpt lat="44.98813" lon="4.663">
        <ele>589</ele>
        <time>2019-01-02T10:46:01+01:00</time>
      </trkpt>
      <trkpt lat="44.98811" lon="4.66303">
        <ele>588</ele>
        <time>2019-01-02T10:46:09+01:00</time>
      </trkpt>
      <trkpt lat="44.98811" lon="4.663">
        <ele>589</ele>
        <time>2019-01-02T10:46:16+01:00</time>
      </trkpt>
      <trkpt lat="44.98812" lon="4.66296">
        <ele>589</ele>
        <time>2019-01-02T10:46:24+01:00</time>
      </trkpt>
      <trkpt lat="44.98812" lon="4.663">
        <ele>589</ele>
        <time>2019-01-02T10:46:31+01:00</time>
      </trkpt>
      <trkpt lat="44.98811" lon="4.66298">
        <ele>589</ele>
        <time>2019-01-02T10:46:39+01:00</time>
      </trkpt>
      <trkpt lat="44.9881" lon="4.66301">
        <ele>589</ele>
        <time>2019-01-02T10:46:49+01:00</time>
      </trkpt>
      <trkpt lat="44.9881" lon="4.66301">
        <ele>589</ele>
        <time>2019-01-02T10:46:50+01:00</time>
      </trkpt>
      <trkpt lat="44.98811" lon="4.66302">
        <ele>589</ele>
        <time>2019-01-02T10:46:51+01:00</time>
      </trkpt>
      <trkpt lat="44.98811" lon="4.66302">
        <ele>588</ele>
        <time>2019-01-02T10:46:52+01:00</time>
      </trkpt>
      <trkpt lat="44.98811" lon="4.66302">
        <ele>588</ele>
        <time>2019-01-02T10:46:53+01:00</time>
      </trkpt>
      <trkpt lat="44.98811" lon="4.66301">
        <ele>589</ele>
        <time>2019-01-02T10:46:56+01:00</time>
      </trkpt>
      <trkpt lat="44.98811" lon="4.663">
        <ele>589</ele>
        <time>2019-01-02T10:46:59+01:00</time>
      </trkpt>
      <trkpt lat="44.9882" lon="4.66285">
        <ele>591</ele>
        <time>2019-01-02T10:47:06+01:00</time>
      </trkpt>
      <trkpt lat="44.98823" lon="4.66262">
        <ele>593</ele>
        <time>2019-01-02T10:47:18+01:00</time>
      </trkpt>
      <trkpt lat="44.98822" lon="4.66259">
        <ele>594</ele>
        <time>2019-01-02T10:47:19+01:00</time>
      </trkpt>
      <trkpt lat="44.98818" lon="4.6624">
        <ele>595</ele>
        <time>2019-01-02T10:47:28+01:00</time>
      </trkpt>
      <trkpt lat="44.98817" lon="4.6622">
        <ele>596</ele>
        <time>2019-01-02T10:47:38+01:00</time>
      </trkpt>
      <trkpt lat="44.98819" lon="4.66205">
        <ele>596</ele>
        <time>2019-01-02T10:47:45+01:00</time>
      </trkpt>
      <trkpt lat="44.98818" lon="4.66188">
        <ele>597</ele>
        <time>2019-01-02T10:47:54+01:00</time>
      </trkpt>
      <trkpt lat="44.98817" lon="4.66165">
        <ele>598</ele>
        <time>2019-01-02T10:48:05+01:00</time>
      </trkpt>
      <trkpt lat="44.98816" lon="4.66152">
        <ele>597</ele>
        <time>2019-01-02T10:48:12+01:00</time>
      </trkpt>
      <trkpt lat="44.98813" lon="4.66136">
        <ele>597</ele>
        <time>2019-01-02T10:48:20+01:00</time>
      </trkpt>
      <trkpt lat="44.9881" lon="4.66117">
        <ele>597</ele>
        <time>2019-01-02T10:48:30+01:00</time>
      </trkpt>
      <trkpt lat="44.98808" lon="4.66107">
        <ele>597</ele>
        <time>2019-01-02T10:48:38+01:00</time>
      </trkpt>
      <trkpt lat="44.98814" lon="4.66106">
        <ele>596</ele>
        <time>2019-01-02T10:48:47+01:00</time>
      </trkpt>
      <trkpt lat="44.98819" lon="4.66113">
        <ele>595</ele>
        <time>2019-01-02T10:48:56+01:00</time>
      </trkpt>
      <trkpt lat="44.98829" lon="4.66124">
        <ele>593</ele>
        <time>2019-01-02T10:49:06+01:00</time>
      </trkpt>
      <trkpt lat="44.98841" lon="4.66131">
        <ele>590</ele>
        <time>2019-01-02T10:49:15+01:00</time>
      </trkpt>
      <trkpt lat="44.98854" lon="4.66135">
        <ele>587</ele>
        <time>2019-01-02T10:49:25+01:00</time>
      </trkpt>
      <trkpt lat="44.98862" lon="4.66139">
        <ele>585</ele>
        <time>2019-01-02T10:49:32+01:00</time>
      </trkpt>
      <trkpt lat="44.98875" lon="4.66144">
        <ele>582</ele>
        <time>2019-01-02T10:49:42+01:00</time>
      </trkpt>
      <trkpt lat="44.98889" lon="4.6614">
        <ele>577</ele>
        <time>2019-01-02T10:49:52+01:00</time>
      </trkpt>
      <trkpt lat="44.98902" lon="4.66137">
        <ele>573</ele>
        <time>2019-01-02T10:50:02+01:00</time>
      </trkpt>
      <trkpt lat="44.9891" lon="4.66133">
        <ele>571</ele>
        <time>2019-01-02T10:50:14+01:00</time>
      </trkpt>
      <trkpt lat="44.98918" lon="4.66137">
        <ele>569</ele>
        <time>2019-01-02T10:50:25+01:00</time>
      </trkpt>
      <trkpt lat="44.98932" lon="4.66138">
        <ele>567</ele>
        <time>2019-01-02T10:50:37+01:00</time>
      </trkpt>
      <trkpt lat="44.98941" lon="4.66128">
        <ele>564</ele>
        <time>2019-01-02T10:50:48+01:00</time>
      </trkpt>
      <trkpt lat="44.98947" lon="4.66117">
        <ele>563</ele>
        <time>2019-01-02T10:51:00+01:00</time>
      </trkpt>
      <trkpt lat="44.98951" lon="4.66113">
        <ele>562</ele>
        <time>2019-01-02T10:51:12+01:00</time>
      </trkpt>
      <trkpt lat="44.98949" lon="4.66112">
        <ele>563</ele>
        <time>2019-01-02T10:51:18+01:00</time>
      </trkpt>
      <trkpt lat="44.98954" lon="4.66112">
        <ele>562</ele>
        <time>2019-01-02T10:51:30+01:00</time>
      </trkpt>
      <trkpt lat="44.98956" lon="4.6611">
        <ele>561</ele>
        <time>2019-01-02T10:51:41+01:00</time>
      </trkpt>
      <trkpt lat="44.98957" lon="4.66114">
        <ele>561</ele>
        <time>2019-01-02T10:51:52+01:00</time>
      </trkpt>
      <trkpt lat="44.98957" lon="4.66115">
        <ele>561</ele>
        <time>2019-01-02T10:51:53+01:00</time>
      </trkpt>
      <trkpt lat="44.9896" lon="4.66122">
        <ele>561</ele>
        <time>2019-01-02T10:52:04+01:00</time>
      </trkpt>
      <trkpt lat="44.98965" lon="4.66129">
        <ele>561</ele>
        <time>2019-01-02T10:52:13+01:00</time>
      </trkpt>
      <trkpt lat="44.98972" lon="4.66141">
        <ele>560</ele>
        <time>2019-01-02T10:52:24+01:00</time>
      </trkpt>
      <trkpt lat="44.98978" lon="4.66151">
        <ele>559</ele>
        <time>2019-01-02T10:52:33+01:00</time>
      </trkpt>
      <trkpt lat="44.98987" lon="4.66159">
        <ele>557</ele>
        <time>2019-01-02T10:52:42+01:00</time>
      </trkpt>
      <trkpt lat="44.98996" lon="4.66164">
        <ele>556</ele>
        <time>2019-01-02T10:52:52+01:00</time>
      </trkpt>
      <trkpt lat="44.99009" lon="4.66168">
        <ele>554</ele>
        <time>2019-01-02T10:53:02+01:00</time>
      </trkpt>
      <trkpt lat="44.9902" lon="4.66176">
        <ele>552</ele>
        <time>2019-01-02T10:53:11+01:00</time>
      </trkpt>
      <trkpt lat="44.99027" lon="4.66188">
        <ele>551</ele>
        <time>2019-01-02T10:53:20+01:00</time>
      </trkpt>
      <trkpt lat="44.99034" lon="4.66197">
        <ele>549</ele>
        <time>2019-01-02T10:53:29+01:00</time>
      </trkpt>
      <trkpt lat="44.99039" lon="4.66206">
        <ele>548</ele>
        <time>2019-01-02T10:53:38+01:00</time>
      </trkpt>
      <trkpt lat="44.99046" lon="4.6622">
        <ele>546</ele>
        <time>2019-01-02T10:53:48+01:00</time>
      </trkpt>
      <trkpt lat="44.99051" lon="4.6623">
        <ele>545</ele>
        <time>2019-01-02T10:53:57+01:00</time>
      </trkpt>
      <trkpt lat="44.99057" lon="4.66233">
        <ele>544</ele>
        <time>2019-01-02T10:54:04+01:00</time>
      </trkpt>
      <trkpt lat="44.99073" lon="4.66225">
        <ele>543</ele>
        <time>2019-01-02T10:54:16+01:00</time>
      </trkpt>
      <trkpt lat="44.99077" lon="4.66235">
        <ele>542</ele>
        <time>2019-01-02T10:54:26+01:00</time>
      </trkpt>
      <trkpt lat="44.99075" lon="4.66241">
        <ele>542</ele>
        <time>2019-01-02T10:54:31+01:00</time>
      </trkpt>
      <trkpt lat="44.99072" lon="4.66252">
        <ele>541</ele>
        <time>2019-01-02T10:54:40+01:00</time>
      </trkpt>
      <trkpt lat="44.99066" lon="4.66258">
        <ele>540</ele>
        <time>2019-01-02T10:54:51+01:00</time>
      </trkpt>
      <trkpt lat="44.99064" lon="4.6626">
        <ele>540</ele>
        <time>2019-01-02T10:54:53+01:00</time>
      </trkpt>
      <trkpt lat="44.99056" lon="4.66264">
        <ele>541</ele>
        <time>2019-01-02T10:55:03+01:00</time>
      </trkpt>
      <trkpt lat="44.99049" lon="4.66265">
        <ele>541</ele>
        <time>2019-01-02T10:55:13+01:00</time>
      </trkpt>
      <trkpt lat="44.99041" lon="4.66266">
        <ele>542</ele>
        <time>2019-01-02T10:55:23+01:00</time>
      </trkpt>
      <trkpt lat="44.99041" lon="4.66277">
        <ele>540</ele>
        <time>2019-01-02T10:55:31+01:00</time>
      </trkpt>
      <trkpt lat="44.99048" lon="4.66286">
        <ele>538</ele>
        <time>2019-01-02T10:55:39+01:00</time>
      </trkpt>
      <trkpt lat="44.99055" lon="4.663">
        <ele>535</ele>
        <time>2019-01-02T10:55:47+01:00</time>
      </trkpt>
      <trkpt lat="44.99063" lon="4.66311">
        <ele>532</ele>
        <time>2019-01-02T10:55:55+01:00</time>
      </trkpt>
      <trkpt lat="44.99074" lon="4.6631">
        <ele>531</ele>
        <time>2019-01-02T10:56:03+01:00</time>
      </trkpt>
      <trkpt lat="44.99077" lon="4.66308">
        <ele>530</ele>
        <time>2019-01-02T10:56:06+01:00</time>
      </trkpt>
      <trkpt lat="44.99085" lon="4.66305">
        <ele>530</ele>
        <time>2019-01-02T10:56:13+01:00</time>
      </trkpt>
      <trkpt lat="44.99088" lon="4.66304">
        <ele>530</ele>
        <time>2019-01-02T10:56:15+01:00</time>
      </trkpt>
      <trkpt lat="44.99096" lon="4.66299">
        <ele>531</ele>
        <time>2019-01-02T10:56:22+01:00</time>
      </trkpt>
      <trkpt lat="44.99107" lon="4.66293">
        <ele>532</ele>
        <time>2019-01-02T10:56:30+01:00</time>
      </trkpt>
      <trkpt lat="44.99111" lon="4.66291">
        <ele>532</ele>
        <time>2019-01-02T10:56:34+01:00</time>
      </trkpt>
      <trkpt lat="44.9912" lon="4.66284">
        <ele>532</ele>
        <time>2019-01-02T10:56:43+01:00</time>
      </trkpt>
      <trkpt lat="44.99132" lon="4.66275">
        <ele>533</ele>
        <time>2019-01-02T10:56:51+01:00</time>
      </trkpt>
      <trkpt lat="44.99142" lon="4.66261">
        <ele>533</ele>
        <time>2019-01-02T10:57:00+01:00</time>
      </trkpt>
      <trkpt lat="44.99142" lon="4.6626">
        <ele>533</ele>
        <time>2019-01-02T10:57:01+01:00</time>
      </trkpt>
      <trkpt lat="44.99147" lon="4.66247">
        <ele>534</ele>
        <time>2019-01-02T10:57:09+01:00</time>
      </trkpt>
      <trkpt lat="44.99151" lon="4.66246">
        <ele>534</ele>
        <time>2019-01-02T10:57:18+01:00</time>
      </trkpt>
      <trkpt lat="44.99153" lon="4.6625">
        <ele>532</ele>
        <time>2019-01-02T10:57:26+01:00</time>
      </trkpt>
      <trkpt lat="44.99158" lon="4.66255">
        <ele>532</ele>
        <time>2019-01-02T10:57:33+01:00</time>
      </trkpt>
      <trkpt lat="44.99168" lon="4.66261">
        <ele>531</ele>
        <time>2019-01-02T10:57:43+01:00</time>
      </trkpt>
      <trkpt lat="44.99169" lon="4.66262">
        <ele>531</ele>
        <time>2019-01-02T10:57:44+01:00</time>
      </trkpt>
      <trkpt lat="44.99174" lon="4.66264">
        <ele>531</ele>
        <time>2019-01-02T10:57:49+01:00</time>
      </trkpt>
      <trkpt lat="44.99178" lon="4.66265">
        <ele>532</ele>
        <time>2019-01-02T10:57:54+01:00</time>
      </trkpt>
      <trkpt lat="44.99181" lon="4.66266">
        <ele>532</ele>
        <time>2019-01-02T10:57:56+01:00</time>
      </trkpt>
      <trkpt lat="44.99187" lon="4.66269">
        <ele>533</ele>
        <time>2019-01-02T10:58:04+01:00</time>
      </trkpt>
      <trkpt lat="44.99194" lon="4.6627">
        <ele>534</ele>
        <time>2019-01-02T10:58:10+01:00</time>
      </trkpt>
      <trkpt lat="44.99201" lon="4.66268">
        <ele>535</ele>
        <time>2019-01-02T10:58:16+01:00</time>
      </trkpt>
      <trkpt lat="44.99209" lon="4.66265">
        <ele>535</ele>
        <time>2019-01-02T10:58:23+01:00</time>
      </trkpt>
      <trkpt lat="44.99215" lon="4.66266">
        <ele>536</ele>
        <time>2019-01-02T10:58:30+01:00</time>
      </trkpt>
      <trkpt lat="44.99219" lon="4.66268">
        <ele>537</ele>
        <time>2019-01-02T10:58:37+01:00</time>
      </trkpt>
      <trkpt lat="44.99222" lon="4.66269">
        <ele>537</ele>
        <time>2019-01-02T10:58:45+01:00</time>
      </trkpt>
      <trkpt lat="44.99227" lon="4.66267">
        <ele>538</ele>
        <time>2019-01-02T10:58:54+01:00</time>
      </trkpt>
      <trkpt lat="44.99226" lon="4.66262">
        <ele>537</ele>
        <time>2019-01-02T10:59:07+01:00</time>
      </trkpt>
      <trkpt lat="44.99225" lon="4.66263">
        <ele>537</ele>
        <time>2019-01-02T10:59:19+01:00</time>
      </trkpt>
      <trkpt lat="44.9923" lon="4.6626">
        <ele>538</ele>
        <time>2019-01-02T10:59:32+01:00</time>
      </trkpt>
      <trkpt lat="44.99227" lon="4.66257">
        <ele>537</ele>
        <time>2019-01-02T10:59:44+01:00</time>
      </trkpt>
      <trkpt lat="44.99227" lon="4.6626">
        <ele>537</ele>
        <time>2019-01-02T10:59:59+01:00</time>
      </trkpt>
      <trkpt lat="44.99224" lon="4.66258">
        <ele>537</ele>
        <time>2019-01-02T11:00:11+01:00</time>
      </trkpt>
      <trkpt lat="44.99221" lon="4.66254">
        <ele>536</ele>
        <time>2019-01-02T11:00:18+01:00</time>
      </trkpt>
      <trkpt lat="44.99221" lon="4.66252">
        <ele>536</ele>
        <time>2019-01-02T11:00:20+01:00</time>
      </trkpt>
      <trkpt lat="44.99214" lon="4.66246">
        <ele>536</ele>
        <time>2019-01-02T11:00:27+01:00</time>
      </trkpt>
      <trkpt lat="44.99207" lon="4.6624">
        <ele>537</ele>
        <time>2019-01-02T11:00:34+01:00</time>
      </trkpt>
      <trkpt lat="44.99203" lon="4.66238">
        <ele>537</ele>
        <time>2019-01-02T11:00:40+01:00</time>
      </trkpt>
      <trkpt lat="44.992" lon="4.66234">
        <ele>537</ele>
        <time>2019-01-02T11:00:47+01:00</time>
      </trkpt>
      <trkpt lat="44.99195" lon="4.6623">
        <ele>538</ele>
        <time>2019-01-02T11:00:52+01:00</time>
      </trkpt>
      <trkpt lat="44.99193" lon="4.66224">
        <ele>539</ele>
        <time>2019-01-02T11:01:00+01:00</time>
      </trkpt>
      <trkpt lat="44.99191" lon="4.66219">
        <ele>540</ele>
        <time>2019-01-02T11:01:05+01:00</time>
      </trkpt>
      <trkpt lat="44.9919" lon="4.66215">
        <ele>540</ele>
        <time>2019-01-02T11:01:13+01:00</time>
      </trkpt>
      <trkpt lat="44.99187" lon="4.66212">
        <ele>541</ele>
        <time>2019-01-02T11:01:23+01:00</time>
      </trkpt>
      <trkpt lat="44.99187" lon="4.6621">
        <ele>541</ele>
        <time>2019-01-02T11:01:25+01:00</time>
      </trkpt>
      <trkpt lat="44.99186" lon="4.66202">
        <ele>543</ele>
        <time>2019-01-02T11:01:31+01:00</time>
      </trkpt>
      <trkpt lat="44.99183" lon="4.66193">
        <ele>544</ele>
        <time>2019-01-02T11:01:39+01:00</time>
      </trkpt>
      <trkpt lat="44.9918" lon="4.66186">
        <ele>546</ele>
        <time>2019-01-02T11:01:45+01:00</time>
      </trkpt>
      <trkpt lat="44.99177" lon="4.6618">
        <ele>547</ele>
        <time>2019-01-02T11:01:52+01:00</time>
      </trkpt>
      <trkpt lat="44.99173" lon="4.66174">
        <ele>548</ele>
        <time>2019-01-02T11:02:00+01:00</time>
      </trkpt>
      <trkpt lat="44.99167" lon="4.66168">
        <ele>549</ele>
        <time>2019-01-02T11:02:07+01:00</time>
      </trkpt>
      <trkpt lat="44.99162" lon="4.66161">
        <ele>550</ele>
        <time>2019-01-02T11:02:15+01:00</time>
      </trkpt>
      <trkpt lat="44.99159" lon="4.66152">
        <ele>551</ele>
        <time>2019-01-02T11:02:23+01:00</time>
      </trkpt>
      <trkpt lat="44.99162" lon="4.66153">
        <ele>551</ele>
        <time>2019-01-02T11:02:31+01:00</time>
      </trkpt>
      <trkpt lat="44.99167" lon="4.66161">
        <ele>550</ele>
        <time>2019-01-02T11:02:40+01:00</time>
      </trkpt>
      <trkpt lat="44.99174" lon="4.66165">
        <ele>550</ele>
        <time>2019-01-02T11:02:47+01:00</time>
      </trkpt>
      <trkpt lat="44.9918" lon="4.66172">
        <ele>549</ele>
        <time>2019-01-02T11:02:55+01:00</time>
      </trkpt>
      <trkpt lat="44.99181" lon="4.66173">
        <ele>549</ele>
        <time>2019-01-02T11:02:56+01:00</time>
      </trkpt>
      <trkpt lat="44.99186" lon="4.66178">
        <ele>548</ele>
        <time>2019-01-02T11:03:02+01:00</time>
      </trkpt>
      <trkpt lat="44.99192" lon="4.66184">
        <ele>547</ele>
        <time>2019-01-02T11:03:09+01:00</time>
      </trkpt>
      <trkpt lat="44.99192" lon="4.66183">
        <ele>547</ele>
        <time>2019-01-02T11:03:16+01:00</time>
      </trkpt>
      <trkpt lat="44.99193" lon="4.66188">
        <ele>546</ele>
        <time>2019-01-02T11:03:27+01:00</time>
      </trkpt>
      <trkpt lat="44.99193" lon="4.66191">
        <ele>546</ele>
        <time>2019-01-02T11:03:37+01:00</time>
      </trkpt>
      <trkpt lat="44.9919" lon="4.66192">
        <ele>545</ele>
        <time>2019-01-02T11:03:48+01:00</time>
      </trkpt>
      <trkpt lat="44.99194" lon="4.66197">
        <ele>544</ele>
        <time>2019-01-02T11:04:00+01:00</time>
      </trkpt>
      <trkpt lat="44.99194" lon="4.66193">
        <ele>545</ele>
        <time>2019-01-02T11:04:11+01:00</time>
      </trkpt>
      <trkpt lat="44.99195" lon="4.66193">
        <ele>545</ele>
        <time>2019-01-02T11:04:19+01:00</time>
      </trkpt>
      <trkpt lat="44.99196" lon="4.66192">
        <ele>546</ele>
        <time>2019-01-02T11:04:28+01:00</time>
      </trkpt>
      <trkpt lat="44.99198" lon="4.66192">
        <ele>546</ele>
        <time>2019-01-02T11:04:36+01:00</time>
      </trkpt>
      <trkpt lat="44.99205" lon="4.66192">
        <ele>546</ele>
        <time>2019-01-02T11:04:43+01:00</time>
      </trkpt>
      <trkpt lat="44.99211" lon="4.66192">
        <ele>547</ele>
        <time>2019-01-02T11:04:49+01:00</time>
      </trkpt>
      <trkpt lat="44.99219" lon="4.6619">
        <ele>548</ele>
        <time>2019-01-02T11:04:56+01:00</time>
      </trkpt>
      <trkpt lat="44.99224" lon="4.66188">
        <ele>548</ele>
        <time>2019-01-02T11:05:03+01:00</time>
      </trkpt>
      <trkpt lat="44.99231" lon="4.66189">
        <ele>549</ele>
        <time>2019-01-02T11:05:09+01:00</time>
      </trkpt>
      <trkpt lat="44.99244" lon="4.66184">
        <ele>550</ele>
        <time>2019-01-02T11:05:20+01:00</time>
      </trkpt>
      <trkpt lat="44.99248" lon="4.66183">
        <ele>551</ele>
        <time>2019-01-02T11:05:27+01:00</time>
      </trkpt>
      <trkpt lat="44.99257" lon="4.66178">
        <ele>553</ele>
        <time>2019-01-02T11:05:37+01:00</time>
      </trkpt>
      <trkpt lat="44.99265" lon="4.66167">
        <ele>555</ele>
        <time>2019-01-02T11:05:44+01:00</time>
      </trkpt>
      <trkpt lat="44.99273" lon="4.66157">
        <ele>557</ele>
        <time>2019-01-02T11:05:51+01:00</time>
      </trkpt>
      <trkpt lat="44.99277" lon="4.6615">
        <ele>558</ele>
        <time>2019-01-02T11:05:59+01:00</time>
      </trkpt>
      <trkpt lat="44.99276" lon="4.66141">
        <ele>559</ele>
        <time>2019-01-02T11:06:06+01:00</time>
      </trkpt>
      <trkpt lat="44.99279" lon="4.66132">
        <ele>560</ele>
        <time>2019-01-02T11:06:13+01:00</time>
      </trkpt>
      <trkpt lat="44.99289" lon="4.66118">
        <ele>562</ele>
        <time>2019-01-02T11:06:22+01:00</time>
      </trkpt>
      <trkpt lat="44.99292" lon="4.66107">
        <ele>563</ele>
        <time>2019-01-02T11:06:29+01:00</time>
      </trkpt>
      <trkpt lat="44.99295" lon="4.66101">
        <ele>564</ele>
        <time>2019-01-02T11:06:36+01:00</time>
      </trkpt>
      <trkpt lat="44.99302" lon="4.66096">
        <ele>564</ele>
        <time>2019-01-02T11:06:44+01:00</time>
      </trkpt>
      <trkpt lat="44.99306" lon="4.66092">
        <ele>564</ele>
        <time>2019-01-02T11:06:50+01:00</time>
      </trkpt>
      <trkpt lat="44.99312" lon="4.6609">
        <ele>564</ele>
        <time>2019-01-02T11:06:55+01:00</time>
      </trkpt>
      <trkpt lat="44.99317" lon="4.66088">
        <ele>564</ele>
        <time>2019-01-02T11:07:01+01:00</time>
      </trkpt>
      <trkpt lat="44.99323" lon="4.66087">
        <ele>563</ele>
        <time>2019-01-02T11:07:08+01:00</time>
      </trkpt>
      <trkpt lat="44.99329" lon="4.66084">
        <ele>563</ele>
        <time>2019-01-02T11:07:15+01:00</time>
      </trkpt>
      <trkpt lat="44.99336" lon="4.66083">
        <ele>564</ele>
        <time>2019-01-02T11:07:22+01:00</time>
      </trkpt>
      <trkpt lat="44.99341" lon="4.66081">
        <ele>565</ele>
        <time>2019-01-02T11:07:29+01:00</time>
      </trkpt>
      <trkpt lat="44.99348" lon="4.66077">
        <ele>567</ele>
        <time>2019-01-02T11:07:36+01:00</time>
      </trkpt>
      <trkpt lat="44.99359" lon="4.66071">
        <ele>569</ele>
        <time>2019-01-02T11:07:44+01:00</time>
      </trkpt>
      <trkpt lat="44.99366" lon="4.66064">
        <ele>571</ele>
        <time>2019-01-02T11:07:52+01:00</time>
      </trkpt>
      <trkpt lat="44.99369" lon="4.66062">
        <ele>572</ele>
        <time>2019-01-02T11:07:59+01:00</time>
      </trkpt>
      <trkpt lat="44.99366" lon="4.6606">
        <ele>572</ele>
        <time>2019-01-02T11:08:07+01:00</time>
      </trkpt>
      <trkpt lat="44.99361" lon="4.66069">
        <ele>570</ele>
        <time>2019-01-02T11:08:16+01:00</time>
      </trkpt>
      <trkpt lat="44.99359" lon="4.6607">
        <ele>570</ele>
        <time>2019-01-02T11:08:19+01:00</time>
      </trkpt>
      <trkpt lat="44.99352" lon="4.66079">
        <ele>567</ele>
        <time>2019-01-02T11:08:28+01:00</time>
      </trkpt>
      <trkpt lat="44.99346" lon="4.66088">
        <ele>565</ele>
        <time>2019-01-02T11:08:36+01:00</time>
      </trkpt>
      <trkpt lat="44.99342" lon="4.66094">
        <ele>564</ele>
        <time>2019-01-02T11:08:43+01:00</time>
      </trkpt>
      <trkpt lat="44.99338" lon="4.66104">
        <ele>563</ele>
        <time>2019-01-02T11:08:50+01:00</time>
      </trkpt>
      <trkpt lat="44.99334" lon="4.66109">
        <ele>562</ele>
        <time>2019-01-02T11:08:55+01:00</time>
      </trkpt>
      <trkpt lat="44.9933" lon="4.6612">
        <ele>562</ele>
        <time>2019-01-02T11:09:03+01:00</time>
      </trkpt>
      <trkpt lat="44.99328" lon="4.6613">
        <ele>561</ele>
        <time>2019-01-02T11:09:11+01:00</time>
      </trkpt>
      <trkpt lat="44.99327" lon="4.66147">
        <ele>560</ele>
        <time>2019-01-02T11:09:20+01:00</time>
      </trkpt>
      <trkpt lat="44.99324" lon="4.66159">
        <ele>560</ele>
        <time>2019-01-02T11:09:28+01:00</time>
      </trkpt>
      <trkpt lat="44.99321" lon="4.66168">
        <ele>559</ele>
        <time>2019-01-02T11:09:35+01:00</time>
      </trkpt>
      <trkpt lat="44.99319" lon="4.6618">
        <ele>559</ele>
        <time>2019-01-02T11:09:43+01:00</time>
      </trkpt>
      <trkpt lat="44.99318" lon="4.66188">
        <ele>558</ele>
        <time>2019-01-02T11:09:49+01:00</time>
      </trkpt>
      <trkpt lat="44.99315" lon="4.66199">
        <ele>558</ele>
        <time>2019-01-02T11:09:57+01:00</time>
      </trkpt>
      <trkpt lat="44.99314" lon="4.66212">
        <ele>557</ele>
        <time>2019-01-02T11:10:03+01:00</time>
      </trkpt>
      <trkpt lat="44.99314" lon="4.6622">
        <ele>557</ele>
        <time>2019-01-02T11:10:11+01:00</time>
      </trkpt>
      <trkpt lat="44.99317" lon="4.66231">
        <ele>557</ele>
        <time>2019-01-02T11:10:20+01:00</time>
      </trkpt>
      <trkpt lat="44.99316" lon="4.66241">
        <ele>557</ele>
        <time>2019-01-02T11:10:28+01:00</time>
      </trkpt>
      <trkpt lat="44.99315" lon="4.66242">
        <ele>556</ele>
        <time>2019-01-02T11:10:29+01:00</time>
      </trkpt>
      <trkpt lat="44.99315" lon="4.66255">
        <ele>556</ele>
        <time>2019-01-02T11:10:38+01:00</time>
      </trkpt>
      <trkpt lat="44.99315" lon="4.66261">
        <ele>557</ele>
        <time>2019-01-02T11:10:42+01:00</time>
      </trkpt>
      <trkpt lat="44.99316" lon="4.66267">
        <ele>557</ele>
        <time>2019-01-02T11:10:46+01:00</time>
      </trkpt>
      <trkpt lat="44.99315" lon="4.66282">
        <ele>558</ele>
        <time>2019-01-02T11:10:55+01:00</time>
      </trkpt>
      <trkpt lat="44.99312" lon="4.66295">
        <ele>558</ele>
        <time>2019-01-02T11:11:05+01:00</time>
      </trkpt>
      <trkpt lat="44.99307" lon="4.66305">
        <ele>557</ele>
        <time>2019-01-02T11:11:14+01:00</time>
      </trkpt>
      <trkpt lat="44.99302" lon="4.66314">
        <ele>556</ele>
        <time>2019-01-02T11:11:23+01:00</time>
      </trkpt>
      <trkpt lat="44.99296" lon="4.66325">
        <ele>556</ele>
        <time>2019-01-02T11:11:33+01:00</time>
      </trkpt>
      <trkpt lat="44.99295" lon="4.66331">
        <ele>556</ele>
        <time>2019-01-02T11:11:38+01:00</time>
      </trkpt>
      <trkpt lat="44.99296" lon="4.66337">
        <ele>556</ele>
        <time>2019-01-02T11:11:46+01:00</time>
      </trkpt>
      <trkpt lat="44.99297" lon="4.66338">
        <ele>557</ele>
        <time>2019-01-02T11:12:00+01:00</time>
      </trkpt>
      <trkpt lat="44.99297" lon="4.66336">
        <ele>556</ele>
        <time>2019-01-02T11:12:03+01:00</time>
      </trkpt>
      <trkpt lat="44.99297" lon="4.66337">
        <ele>556</ele>
        <time>2019-01-02T11:12:19+01:00</time>
      </trkpt>
      <trkpt lat="44.99299" lon="4.66334">
        <ele>557</ele>
        <time>2019-01-02T11:12:37+01:00</time>
      </trkpt>
      <trkpt lat="44.99296" lon="4.66334">
        <ele>556</ele>
        <time>2019-01-02T11:12:52+01:00</time>
      </trkpt>
      <trkpt lat="44.99295" lon="4.66333">
        <ele>556</ele>
        <time>2019-01-02T11:13:09+01:00</time>
      </trkpt>
      <trkpt lat="44.99296" lon="4.66333">
        <ele>556</ele>
        <time>2019-01-02T11:13:19+01:00</time>
      </trkpt>
      <trkpt lat="44.99296" lon="4.66331">
        <ele>556</ele>
        <time>2019-01-02T11:13:34+01:00</time>
      </trkpt>
      <trkpt lat="44.99297" lon="4.66335">
        <ele>556</ele>
        <time>2019-01-02T11:13:47+01:00</time>
      </trkpt>
      <trkpt lat="44.99295" lon="4.66336">
        <ele>556</ele>
        <time>2019-01-02T11:14:03+01:00</time>
      </trkpt>
      <trkpt lat="44.99295" lon="4.66336">
        <ele>556</ele>
        <time>2019-01-02T11:14:05+01:00</time>
      </trkpt>
      <trkpt lat="44.99296" lon="4.66336">
        <ele>556</ele>
        <time>2019-01-02T11:14:13+01:00</time>
      </trkpt>
      <trkpt lat="44.99296" lon="4.66338">
        <ele>556</ele>
        <time>2019-01-02T11:14:21+01:00</time>
      </trkpt>
      <trkpt lat="44.993" lon="4.66337">
        <ele>557</ele>
        <time>2019-01-02T11:14:31+01:00</time>
      </trkpt>
      <trkpt lat="44.99301" lon="4.66337">
        <ele>557</ele>
        <time>2019-01-02T11:14:32+01:00</time>
      </trkpt>
      <trkpt lat="44.99307" lon="4.66333">
        <ele>559</ele>
        <time>2019-01-02T11:14:39+01:00</time>
      </trkpt>
      <trkpt lat="44.99314" lon="4.66332">
        <ele>560</ele>
        <time>2019-01-02T11:14:46+01:00</time>
      </trkpt>
      <trkpt lat="44.99321" lon="4.66329">
        <ele>562</ele>
        <time>2019-01-02T11:14:53+01:00</time>
      </trkpt>
      <trkpt lat="44.99325" lon="4.66325">
        <ele>563</ele>
        <time>2019-01-02T11:14:59+01:00</time>
      </trkpt>
      <trkpt lat="44.9933" lon="4.66322">
        <ele>564</ele>
        <time>2019-01-02T11:15:06+01:00</time>
      </trkpt>
      <trkpt lat="44.99336" lon="4.66317">
        <ele>565</ele>
        <time>2019-01-02T11:15:13+01:00</time>
      </trkpt>
      <trkpt lat="44.99341" lon="4.66305">
        <ele>566</ele>
        <time>2019-01-02T11:15:20+01:00</time>
      </trkpt>
      <trkpt lat="44.99343" lon="4.66296">
        <ele>566</ele>
        <time>2019-01-02T11:15:26+01:00</time>
      </trkpt>
      <trkpt lat="44.99344" lon="4.66295">
        <ele>566</ele>
        <time>2019-01-02T11:15:27+01:00</time>
      </trkpt>
      <trkpt lat="44.99344" lon="4.66294">
        <ele>566</ele>
        <time>2019-01-02T11:15:28+01:00</time>
      </trkpt>
      <trkpt lat="44.99345" lon="4.66292">
        <ele>566</ele>
        <time>2019-01-02T11:15:29+01:00</time>
      </trkpt>
      <trkpt lat="44.99347" lon="4.66283">
        <ele>566</ele>
        <time>2019-01-02T11:15:35+01:00</time>
      </trkpt>
      <trkpt lat="44.99348" lon="4.66276">
        <ele>567</ele>
        <time>2019-01-02T11:15:39+01:00</time>
      </trkpt>
      <trkpt lat="44.99351" lon="4.66259">
        <ele>567</ele>
        <time>2019-01-02T11:15:49+01:00</time>
      </trkpt>
      <trkpt lat="44.99354" lon="4.66248">
        <ele>568</ele>
        <time>2019-01-02T11:15:56+01:00</time>
      </trkpt>
      <trkpt lat="44.99357" lon="4.66237">
        <ele>569</ele>
        <time>2019-01-02T11:16:04+01:00</time>
      </trkpt>
      <trkpt lat="44.99361" lon="4.66225">
        <ele>570</ele>
        <time>2019-01-02T11:16:12+01:00</time>
      </trkpt>
      <trkpt lat="44.99367" lon="4.66208">
        <ele>572</ele>
        <time>2019-01-02T11:16:23+01:00</time>
      </trkpt>
      <trkpt lat="44.9937" lon="4.66201">
        <ele>572</ele>
        <time>2019-01-02T11:16:28+01:00</time>
      </trkpt>
      <trkpt lat="44.99375" lon="4.66188">
        <ele>574</ele>
        <time>2019-01-02T11:16:37+01:00</time>
      </trkpt>
      <trkpt lat="44.9938" lon="4.66177">
        <ele>576</ele>
        <time>2019-01-02T11:16:45+01:00</time>
      </trkpt>
      <trkpt lat="44.99389" lon="4.66171">
        <ele>579</ele>
        <time>2019-01-02T11:16:53+01:00</time>
      </trkpt>
      <trkpt lat="44.99393" lon="4.66163">
        <ele>580</ele>
        <time>2019-01-02T11:17:00+01:00</time>
      </trkpt>
      <trkpt lat="44.99397" lon="4.66152">
        <ele>580</ele>
        <time>2019-01-02T11:17:09+01:00</time>
      </trkpt>
      <trkpt lat="44.99402" lon="4.66144">
        <ele>581</ele>
        <time>2019-01-02T11:17:17+01:00</time>
      </trkpt>
      <trkpt lat="44.99405" lon="4.66137">
        <ele>582</ele>
        <time>2019-01-02T11:17:24+01:00</time>
      </trkpt>
      <trkpt lat="44.9941" lon="4.66129">
        <ele>582</ele>
        <time>2019-01-02T11:17:31+01:00</time>
      </trkpt>
      <trkpt lat="44.99414" lon="4.66123">
        <ele>583</ele>
        <time>2019-01-02T11:17:37+01:00</time>
      </trkpt>
      <trkpt lat="44.99421" lon="4.6612">
        <ele>584</ele>
        <time>2019-01-02T11:17:45+01:00</time>
      </trkpt>
      <trkpt lat="44.99427" lon="4.66118">
        <ele>585</ele>
        <time>2019-01-02T11:17:52+01:00</time>
      </trkpt>
      <trkpt lat="44.99429" lon="4.66117">
        <ele>585</ele>
        <time>2019-01-02T11:17:55+01:00</time>
      </trkpt>
      <trkpt lat="44.99436" lon="4.66115">
        <ele>586</ele>
        <time>2019-01-02T11:18:03+01:00</time>
      </trkpt>
      <trkpt lat="44.99442" lon="4.66116">
        <ele>587</ele>
        <time>2019-01-02T11:18:08+01:00</time>
      </trkpt>
      <trkpt lat="44.99444" lon="4.66115">
        <ele>588</ele>
        <time>2019-01-02T11:18:10+01:00</time>
      </trkpt>
      <trkpt lat="44.99444" lon="4.66115">
        <ele>588</ele>
        <time>2019-01-02T11:18:11+01:00</time>
      </trkpt>
      <trkpt lat="44.99448" lon="4.66114">
        <ele>588</ele>
        <time>2019-01-02T11:18:15+01:00</time>
      </trkpt>
      <trkpt lat="44.99449" lon="4.66114">
        <ele>589</ele>
        <time>2019-01-02T11:18:16+01:00</time>
      </trkpt>
      <trkpt lat="44.99454" lon="4.66112">
        <ele>590</ele>
        <time>2019-01-02T11:18:23+01:00</time>
      </trkpt>
      <trkpt lat="44.99459" lon="4.66112">
        <ele>590</ele>
        <time>2019-01-02T11:18:29+01:00</time>
      </trkpt>
      <trkpt lat="44.99465" lon="4.66109">
        <ele>591</ele>
        <time>2019-01-02T11:18:36+01:00</time>
      </trkpt>
      <trkpt lat="44.9947" lon="4.66108">
        <ele>592</ele>
        <time>2019-01-02T11:18:42+01:00</time>
      </trkpt>
      <trkpt lat="44.99473" lon="4.66109">
        <ele>593</ele>
        <time>2019-01-02T11:18:45+01:00</time>
      </trkpt>
      <trkpt lat="44.99476" lon="4.66107">
        <ele>593</ele>
        <time>2019-01-02T11:18:49+01:00</time>
      </trkpt>
      <trkpt lat="44.99483" lon="4.66107">
        <ele>594</ele>
        <time>2019-01-02T11:18:56+01:00</time>
      </trkpt>
      <trkpt lat="44.99488" lon="4.6611">
        <ele>596</ele>
        <time>2019-01-02T11:19:03+01:00</time>
      </trkpt>
      <trkpt lat="44.99495" lon="4.66109">
        <ele>597</ele>
        <time>2019-01-02T11:19:11+01:00</time>
      </trkpt>
      <trkpt lat="44.995" lon="4.66111">
        <ele>598</ele>
        <time>2019-01-02T11:19:17+01:00</time>
      </trkpt>
      <trkpt lat="44.99507" lon="4.66115">
        <ele>600</ele>
        <time>2019-01-02T11:19:26+01:00</time>
      </trkpt>
      <trkpt lat="44.99506" lon="4.6612">
        <ele>601</ele>
        <time>2019-01-02T11:19:30+01:00</time>
      </trkpt>
      <trkpt lat="44.99504" lon="4.66124">
        <ele>601</ele>
        <time>2019-01-02T11:19:34+01:00</time>
      </trkpt>
      <trkpt lat="44.99499" lon="4.66128">
        <ele>601</ele>
        <time>2019-01-02T11:19:40+01:00</time>
      </trkpt>
      <trkpt lat="44.99492" lon="4.66137">
        <ele>601</ele>
        <time>2019-01-02T11:19:50+01:00</time>
      </trkpt>
      <trkpt lat="44.99486" lon="4.66145">
        <ele>601</ele>
        <time>2019-01-02T11:19:57+01:00</time>
      </trkpt>
      <trkpt lat="44.99486" lon="4.66145">
        <ele>601</ele>
        <time>2019-01-02T11:19:58+01:00</time>
      </trkpt>
      <trkpt lat="44.9948" lon="4.66154">
        <ele>601</ele>
        <time>2019-01-02T11:20:06+01:00</time>
      </trkpt>
      <trkpt lat="44.99477" lon="4.66164">
        <ele>601</ele>
        <time>2019-01-02T11:20:14+01:00</time>
      </trkpt>
      <trkpt lat="44.99477" lon="4.66175">
        <ele>602</ele>
        <time>2019-01-02T11:20:21+01:00</time>
      </trkpt>
      <trkpt lat="44.99479" lon="4.66186">
        <ele>602</ele>
        <time>2019-01-02T11:20:28+01:00</time>
      </trkpt>
      <trkpt lat="44.99482" lon="4.6619">
        <ele>602</ele>
        <time>2019-01-02T11:20:32+01:00</time>
      </trkpt>
      <trkpt lat="44.99486" lon="4.66196">
        <ele>603</ele>
        <time>2019-01-02T11:20:40+01:00</time>
      </trkpt>
      <trkpt lat="44.99489" lon="4.66202">
        <ele>604</ele>
        <time>2019-01-02T11:20:46+01:00</time>
      </trkpt>
      <trkpt lat="44.99493" lon="4.66206">
        <ele>605</ele>
        <time>2019-01-02T11:20:50+01:00</time>
      </trkpt>
      <trkpt lat="44.99502" lon="4.66215">
        <ele>606</ele>
        <time>2019-01-02T11:21:00+01:00</time>
      </trkpt>
      <trkpt lat="44.99504" lon="4.66217">
        <ele>606</ele>
        <time>2019-01-02T11:21:02+01:00</time>
      </trkpt>
      <trkpt lat="44.99508" lon="4.66221">
        <ele>607</ele>
        <time>2019-01-02T11:21:06+01:00</time>
      </trkpt>
      <trkpt lat="44.99512" lon="4.66227">
        <ele>607</ele>
        <time>2019-01-02T11:21:11+01:00</time>
      </trkpt>
      <trkpt lat="44.99518" lon="4.66234">
        <ele>608</ele>
        <time>2019-01-02T11:21:19+01:00</time>
      </trkpt>
      <trkpt lat="44.99526" lon="4.6624">
        <ele>609</ele>
        <time>2019-01-02T11:21:27+01:00</time>
      </trkpt>
      <trkpt lat="44.99529" lon="4.66241">
        <ele>610</ele>
        <time>2019-01-02T11:21:30+01:00</time>
      </trkpt>
      <trkpt lat="44.99533" lon="4.66243">
        <ele>610</ele>
        <time>2019-01-02T11:21:34+01:00</time>
      </trkpt>
      <trkpt lat="44.99542" lon="4.66247">
        <ele>612</ele>
        <time>2019-01-02T11:21:42+01:00</time>
      </trkpt>
      <trkpt lat="44.99545" lon="4.66248">
        <ele>612</ele>
        <time>2019-01-02T11:21:45+01:00</time>
      </trkpt>
      <trkpt lat="44.99546" lon="4.66249">
        <ele>612</ele>
        <time>2019-01-02T11:21:46+01:00</time>
      </trkpt>
      <trkpt lat="44.99554" lon="4.66255">
        <ele>613</ele>
        <time>2019-01-02T11:21:55+01:00</time>
      </trkpt>
      <trkpt lat="44.99559" lon="4.66261">
        <ele>613</ele>
        <time>2019-01-02T11:22:02+01:00</time>
      </trkpt>
      <trkpt lat="44.99567" lon="4.66268">
        <ele>614</ele>
        <time>2019-01-02T11:22:10+01:00</time>
      </trkpt>
      <trkpt lat="44.99569" lon="4.66271">
        <ele>614</ele>
        <time>2019-01-02T11:22:12+01:00</time>
      </trkpt>
      <trkpt lat="44.99573" lon="4.66274">
        <ele>615</ele>
        <time>2019-01-02T11:22:16+01:00</time>
      </trkpt>
      <trkpt lat="44.99578" lon="4.66282">
        <ele>615</ele>
        <time>2019-01-02T11:22:23+01:00</time>
      </trkpt>
      <trkpt lat="44.99579" lon="4.66283">
        <ele>615</ele>
        <time>2019-01-02T11:22:24+01:00</time>
      </trkpt>
      <trkpt lat="44.99581" lon="4.66288">
        <ele>615</ele>
        <time>2019-01-02T11:22:27+01:00</time>
      </trkpt>
      <trkpt lat="44.99589" lon="4.66296">
        <ele>615</ele>
        <time>2019-01-02T11:22:35+01:00</time>
      </trkpt>
      <trkpt lat="44.99597" lon="4.66301">
        <ele>616</ele>
        <time>2019-01-02T11:22:43+01:00</time>
      </trkpt>
      <trkpt lat="44.99605" lon="4.66307">
        <ele>617</ele>
        <time>2019-01-02T11:22:51+01:00</time>
      </trkpt>
      <trkpt lat="44.99611" lon="4.66312">
        <ele>618</ele>
        <time>2019-01-02T11:22:57+01:00</time>
      </trkpt>
      <trkpt lat="44.99612" lon="4.66312">
        <ele>618</ele>
        <time>2019-01-02T11:22:58+01:00</time>
      </trkpt>
      <trkpt lat="44.99621" lon="4.66317">
        <ele>619</ele>
        <time>2019-01-02T11:23:06+01:00</time>
      </trkpt>
      <trkpt lat="44.99629" lon="4.66322">
        <ele>620</ele>
        <time>2019-01-02T11:23:14+01:00</time>
      </trkpt>
      <trkpt lat="44.99637" lon="4.66329">
        <ele>621</ele>
        <time>2019-01-02T11:23:23+01:00</time>
      </trkpt>
      <trkpt lat="44.99642" lon="4.66333">
        <ele>621</ele>
        <time>2019-01-02T11:23:28+01:00</time>
      </trkpt>
      <trkpt lat="44.99646" lon="4.66337">
        <ele>621</ele>
        <time>2019-01-02T11:23:32+01:00</time>
      </trkpt>
      <trkpt lat="44.99649" lon="4.6634">
        <ele>621</ele>
        <time>2019-01-02T11:23:36+01:00</time>
      </trkpt>
      <trkpt lat="44.99655" lon="4.66347">
        <ele>620</ele>
        <time>2019-01-02T11:23:44+01:00</time>
      </trkpt>
      <trkpt lat="44.99656" lon="4.66348">
        <ele>620</ele>
        <time>2019-01-02T11:23:45+01:00</time>
      </trkpt>
      <trkpt lat="44.99658" lon="4.6635">
        <ele>620</ele>
        <time>2019-01-02T11:23:48+01:00</time>
      </trkpt>
      <trkpt lat="44.99662" lon="4.66351">
        <ele>621</ele>
        <time>2019-01-02T11:23:52+01:00</time>
      </trkpt>
      <trkpt lat="44.9967" lon="4.66357">
        <ele>620</ele>
        <time>2019-01-02T11:24:00+01:00</time>
      </trkpt>
      <trkpt lat="44.99677" lon="4.66359">
        <ele>621</ele>
        <time>2019-01-02T11:24:07+01:00</time>
      </trkpt>
      <trkpt lat="44.99685" lon="4.66361">
        <ele>621</ele>
        <time>2019-01-02T11:24:15+01:00</time>
      </trkpt>
      <trkpt lat="44.9969" lon="4.66365">
        <ele>621</ele>
        <time>2019-01-02T11:24:21+01:00</time>
      </trkpt>
      <trkpt lat="44.99698" lon="4.66369">
        <ele>621</ele>
        <time>2019-01-02T11:24:28+01:00</time>
      </trkpt>
      <trkpt lat="44.99704" lon="4.6637">
        <ele>621</ele>
        <time>2019-01-02T11:24:35+01:00</time>
      </trkpt>
      <trkpt lat="44.99708" lon="4.66374">
        <ele>621</ele>
        <time>2019-01-02T11:24:41+01:00</time>
      </trkpt>
      <trkpt lat="44.99712" lon="4.66374">
        <ele>621</ele>
        <time>2019-01-02T11:24:45+01:00</time>
      </trkpt>
      <trkpt lat="44.99719" lon="4.66375">
        <ele>622</ele>
        <time>2019-01-02T11:24:51+01:00</time>
      </trkpt>
      <trkpt lat="44.9973" lon="4.66374">
        <ele>623</ele>
        <time>2019-01-02T11:24:59+01:00</time>
      </trkpt>
      <trkpt lat="44.99736" lon="4.66373">
        <ele>624</ele>
        <time>2019-01-02T11:25:05+01:00</time>
      </trkpt>
      <trkpt lat="44.99739" lon="4.66373">
        <ele>624</ele>
        <time>2019-01-02T11:25:08+01:00</time>
      </trkpt>
      <trkpt lat="44.99743" lon="4.66373">
        <ele>625</ele>
        <time>2019-01-02T11:25:11+01:00</time>
      </trkpt>
      <trkpt lat="44.99755" lon="4.66375">
        <ele>625</ele>
        <time>2019-01-02T11:25:20+01:00</time>
      </trkpt>
      <trkpt lat="44.99764" lon="4.66374">
        <ele>626</ele>
        <time>2019-01-02T11:25:28+01:00</time>
      </trkpt>
      <trkpt lat="44.99773" lon="4.66373">
        <ele>626</ele>
        <time>2019-01-02T11:25:37+01:00</time>
      </trkpt>
      <trkpt lat="44.99782" lon="4.6637">
        <ele>627</ele>
        <time>2019-01-02T11:25:45+01:00</time>
      </trkpt>
      <trkpt lat="44.99788" lon="4.66368">
        <ele>628</ele>
        <time>2019-01-02T11:25:51+01:00</time>
      </trkpt>
      <trkpt lat="44.99798" lon="4.66366">
        <ele>629</ele>
        <time>2019-01-02T11:25:58+01:00</time>
      </trkpt>
      <trkpt lat="44.99804" lon="4.66366">
        <ele>629</ele>
        <time>2019-01-02T11:26:02+01:00</time>
      </trkpt>
      <trkpt lat="44.99814" lon="4.66366">
        <ele>629</ele>
        <time>2019-01-02T11:26:11+01:00</time>
      </trkpt>
      <trkpt lat="44.99815" lon="4.66366">
        <ele>629</ele>
        <time>2019-01-02T11:26:12+01:00</time>
      </trkpt>
      <trkpt lat="44.99821" lon="4.66367">
        <ele>629</ele>
        <time>2019-01-02T11:26:18+01:00</time>
      </trkpt>
      <trkpt lat="44.99831" lon="4.66372">
        <ele>629</ele>
        <time>2019-01-02T11:26:27+01:00</time>
      </trkpt>
      <trkpt lat="44.9984" lon="4.66375">
        <ele>629</ele>
        <time>2019-01-02T11:26:35+01:00</time>
      </trkpt>
      <trkpt lat="44.99842" lon="4.66376">
        <ele>630</ele>
        <time>2019-01-02T11:26:37+01:00</time>
      </trkpt>
      <trkpt lat="44.9985" lon="4.66377">
        <ele>630</ele>
        <time>2019-01-02T11:26:44+01:00</time>
      </trkpt>
      <trkpt lat="44.99854" lon="4.66378">
        <ele>631</ele>
        <time>2019-01-02T11:26:48+01:00</time>
      </trkpt>
      <trkpt lat="44.99859" lon="4.66379">
        <ele>631</ele>
        <time>2019-01-02T11:26:56+01:00</time>
      </trkpt>
      <trkpt lat="44.99865" lon="4.66381">
        <ele>632</ele>
        <time>2019-01-02T11:27:03+01:00</time>
      </trkpt>
      <trkpt lat="44.99874" lon="4.66383">
        <ele>632</ele>
        <time>2019-01-02T11:27:12+01:00</time>
      </trkpt>
      <trkpt lat="44.99883" lon="4.66381">
        <ele>634</ele>
        <time>2019-01-02T11:27:20+01:00</time>
      </trkpt>
      <trkpt lat="44.99891" lon="4.6638">
        <ele>635</ele>
        <time>2019-01-02T11:27:28+01:00</time>
      </trkpt>
      <trkpt lat="44.99892" lon="4.6638">
        <ele>635</ele>
        <time>2019-01-02T11:27:29+01:00</time>
      </trkpt>
      <trkpt lat="44.99893" lon="4.66379">
        <ele>636</ele>
        <time>2019-01-02T11:27:31+01:00</time>
      </trkpt>
      <trkpt lat="44.99897" lon="4.66379">
        <ele>636</ele>
        <time>2019-01-02T11:27:34+01:00</time>
      </trkpt>
      <trkpt lat="44.999" lon="4.66378">
        <ele>637</ele>
        <time>2019-01-02T11:27:37+01:00</time>
      </trkpt>
      <trkpt lat="44.99903" lon="4.66378">
        <ele>637</ele>
        <time>2019-01-02T11:27:40+01:00</time>
      </trkpt>
      <trkpt lat="44.99906" lon="4.66377">
        <ele>638</ele>
        <time>2019-01-02T11:27:43+01:00</time>
      </trkpt>
      <trkpt lat="44.99912" lon="4.66377">
        <ele>639</ele>
        <time>2019-01-02T11:27:48+01:00</time>
      </trkpt>
      <trkpt lat="44.99916" lon="4.66375">
        <ele>639</ele>
        <time>2019-01-02T11:27:52+01:00</time>
      </trkpt>
      <trkpt lat="44.99923" lon="4.66372">
        <ele>641</ele>
        <time>2019-01-02T11:27:59+01:00</time>
      </trkpt>
      <trkpt lat="44.99929" lon="4.6637">
        <ele>641</ele>
        <time>2019-01-02T11:28:06+01:00</time>
      </trkpt>
      <trkpt lat="44.99931" lon="4.66369">
        <ele>642</ele>
        <time>2019-01-02T11:28:09+01:00</time>
      </trkpt>
      <trkpt lat="44.99938" lon="4.6636">
        <ele>644</ele>
        <time>2019-01-02T11:28:17+01:00</time>
      </trkpt>
      <trkpt lat="44.99939" lon="4.66353">
        <ele>645</ele>
        <time>2019-01-02T11:28:22+01:00</time>
      </trkpt>
      <trkpt lat="44.99939" lon="4.66344">
        <ele>647</ele>
        <time>2019-01-02T11:28:29+01:00</time>
      </trkpt>
      <trkpt lat="44.99942" lon="4.6634">
        <ele>648</ele>
        <time>2019-01-02T11:28:33+01:00</time>
      </trkpt>
      <trkpt lat="44.99948" lon="4.66336">
        <ele>649</ele>
        <time>2019-01-02T11:28:40+01:00</time>
      </trkpt>
      <trkpt lat="44.99949" lon="4.66335">
        <ele>650</ele>
        <time>2019-01-02T11:28:41+01:00</time>
      </trkpt>
      <trkpt lat="44.99954" lon="4.66329">
        <ele>651</ele>
        <time>2019-01-02T11:28:48+01:00</time>
      </trkpt>
      <trkpt lat="44.9996" lon="4.66325">
        <ele>652</ele>
        <time>2019-01-02T11:28:54+01:00</time>
      </trkpt>
      <trkpt lat="44.99965" lon="4.66323">
        <ele>653</ele>
        <time>2019-01-02T11:28:58+01:00</time>
      </trkpt>
      <trkpt lat="44.99974" lon="4.66319">
        <ele>655</ele>
        <time>2019-01-02T11:29:06+01:00</time>
      </trkpt>
      <trkpt lat="44.99976" lon="4.66319">
        <ele>655</ele>
        <time>2019-01-02T11:29:08+01:00</time>
      </trkpt>
      <trkpt lat="44.99984" lon="4.66317">
        <ele>656</ele>
        <time>2019-01-02T11:29:15+01:00</time>
      </trkpt>
      <trkpt lat="44.99994" lon="4.66316">
        <ele>658</ele>
        <time>2019-01-02T11:29:23+01:00</time>
      </trkpt>
      <trkpt lat="45.00002" lon="4.66314">
        <ele>659</ele>
        <time>2019-01-02T11:29:31+01:00</time>
      </trkpt>
      <trkpt lat="45.00009" lon="4.66315">
        <ele>660</ele>
        <time>2019-01-02T11:29:40+01:00</time>
      </trkpt>
      <trkpt lat="45.00013" lon="4.66317">
        <ele>660</ele>
        <time>2019-01-02T11:29:44+01:00</time>
      </trkpt>
      <trkpt lat="45.00023" lon="4.66318">
        <ele>661</ele>
        <time>2019-01-02T11:29:53+01:00</time>
      </trkpt>
      <trkpt lat="45.0003" lon="4.66321">
        <ele>661</ele>
        <time>2019-01-02T11:30:00+01:00</time>
      </trkpt>
      <trkpt lat="45.00035" lon="4.66325">
        <ele>660</ele>
        <time>2019-01-02T11:30:05+01:00</time>
      </trkpt>
      <trkpt lat="45.0004" lon="4.66325">
        <ele>661</ele>
        <time>2019-01-02T11:30:10+01:00</time>
      </trkpt>
      <trkpt lat="45.00044" lon="4.66319">
        <ele>663</ele>
        <time>2019-01-02T11:30:18+01:00</time>
      </trkpt>
      <trkpt lat="45.00039" lon="4.66305">
        <ele>666</ele>
        <time>2019-01-02T11:30:26+01:00</time>
      </trkpt>
      <trkpt lat="45.00035" lon="4.66298">
        <ele>667</ele>
        <time>2019-01-02T11:30:32+01:00</time>
      </trkpt>
      <trkpt lat="45.00035" lon="4.66296">
        <ele>668</ele>
        <time>2019-01-02T11:30:33+01:00</time>
      </trkpt>
      <trkpt lat="45.00031" lon="4.6629">
        <ele>669</ele>
        <time>2019-01-02T11:30:40+01:00</time>
      </trkpt>
      <trkpt lat="45.00026" lon="4.66285">
        <ele>669</ele>
        <time>2019-01-02T11:30:46+01:00</time>
      </trkpt>
      <trkpt lat="45.00018" lon="4.66281">
        <ele>669</ele>
        <time>2019-01-02T11:30:53+01:00</time>
      </trkpt>
      <trkpt lat="45.00016" lon="4.66281">
        <ele>669</ele>
        <time>2019-01-02T11:30:55+01:00</time>
      </trkpt>
      <trkpt lat="45.00011" lon="4.66279">
        <ele>669</ele>
        <time>2019-01-02T11:31:00+01:00</time>
      </trkpt>
      <trkpt lat="45.00004" lon="4.66278">
        <ele>668</ele>
        <time>2019-01-02T11:31:07+01:00</time>
      </trkpt>
      <trkpt lat="44.99996" lon="4.66276">
        <ele>667</ele>
        <time>2019-01-02T11:31:15+01:00</time>
      </trkpt>
      <trkpt lat="44.99989" lon="4.66273">
        <ele>667</ele>
        <time>2019-01-02T11:31:22+01:00</time>
      </trkpt>
      <trkpt lat="44.99984" lon="4.66271">
        <ele>667</ele>
        <time>2019-01-02T11:31:28+01:00</time>
      </trkpt>
      <trkpt lat="44.99979" lon="4.66269">
        <ele>667</ele>
        <time>2019-01-02T11:31:34+01:00</time>
      </trkpt>
      <trkpt lat="44.99974" lon="4.66268">
        <ele>667</ele>
        <time>2019-01-02T11:31:38+01:00</time>
      </trkpt>
      <trkpt lat="44.99965" lon="4.66264">
        <ele>667</ele>
        <time>2019-01-02T11:31:47+01:00</time>
      </trkpt>
      <trkpt lat="44.99958" lon="4.66261">
        <ele>667</ele>
        <time>2019-01-02T11:31:54+01:00</time>
      </trkpt>
      <trkpt lat="44.99953" lon="4.66258">
        <ele>667</ele>
        <time>2019-01-02T11:32:00+01:00</time>
      </trkpt>
      <trkpt lat="44.99948" lon="4.66254">
        <ele>667</ele>
        <time>2019-01-02T11:32:07+01:00</time>
      </trkpt>
      <trkpt lat="44.99943" lon="4.66249">
        <ele>668</ele>
        <time>2019-01-02T11:32:14+01:00</time>
      </trkpt>
      <trkpt lat="44.99937" lon="4.66243">
        <ele>668</ele>
        <time>2019-01-02T11:32:22+01:00</time>
      </trkpt>
      <trkpt lat="44.99936" lon="4.66241">
        <ele>669</ele>
        <time>2019-01-02T11:32:24+01:00</time>
      </trkpt>
      <trkpt lat="44.99932" lon="4.66233">
        <ele>670</ele>
        <time>2019-01-02T11:32:31+01:00</time>
      </trkpt>
      <trkpt lat="44.99928" lon="4.66227">
        <ele>671</ele>
        <time>2019-01-02T11:32:37+01:00</time>
      </trkpt>
      <trkpt lat="44.99926" lon="4.66216">
        <ele>673</ele>
        <time>2019-01-02T11:32:45+01:00</time>
      </trkpt>
      <trkpt lat="44.99923" lon="4.66205">
        <ele>675</ele>
        <time>2019-01-02T11:32:53+01:00</time>
      </trkpt>
      <trkpt lat="44.9992" lon="4.66197">
        <ele>677</ele>
        <time>2019-01-02T11:33:01+01:00</time>
      </trkpt>
      <trkpt lat="44.99916" lon="4.66191">
        <ele>677</ele>
        <time>2019-01-02T11:33:06+01:00</time>
      </trkpt>
      <trkpt lat="44.99914" lon="4.66188">
        <ele>678</ele>
        <time>2019-01-02T11:33:08+01:00</time>
      </trkpt>
      <trkpt lat="44.9991" lon="4.66181">
        <ele>678</ele>
        <time>2019-01-02T11:33:16+01:00</time>
      </trkpt>
      <trkpt lat="44.99904" lon="4.66173">
        <ele>678</ele>
        <time>2019-01-02T11:33:24+01:00</time>
      </trkpt>
      <trkpt lat="44.99901" lon="4.66167">
        <ele>679</ele>
        <time>2019-01-02T11:33:31+01:00</time>
      </trkpt>
      <trkpt lat="44.99907" lon="4.6617">
        <ele>680</ele>
        <time>2019-01-02T11:33:39+01:00</time>
      </trkpt>
      <trkpt lat="44.99908" lon="4.66171">
        <ele>680</ele>
        <time>2019-01-02T11:33:40+01:00</time>
      </trkpt>
      <trkpt lat="44.99913" lon="4.66175">
        <ele>680</ele>
        <time>2019-01-02T11:33:45+01:00</time>
      </trkpt>
      <trkpt lat="44.99915" lon="4.66176">
        <ele>680</ele>
        <time>2019-01-02T11:33:47+01:00</time>
      </trkpt>
      <trkpt lat="44.99916" lon="4.66178">
        <ele>680</ele>
        <time>2019-01-02T11:33:49+01:00</time>
      </trkpt>
      <trkpt lat="44.99923" lon="4.66182">
        <ele>681</ele>
        <time>2019-01-02T11:33:57+01:00</time>
      </trkpt>
      <trkpt lat="44.99925" lon="4.66184">
        <ele>681</ele>
        <time>2019-01-02T11:33:59+01:00</time>
      </trkpt>
      <trkpt lat="44.9993" lon="4.66189">
        <ele>680</ele>
        <time>2019-01-02T11:34:06+01:00</time>
      </trkpt>
      <trkpt lat="44.99931" lon="4.66189">
        <ele>680</ele>
        <time>2019-01-02T11:34:07+01:00</time>
      </trkpt>
      <trkpt lat="44.99935" lon="4.66194">
        <ele>680</ele>
        <time>2019-01-02T11:34:18+01:00</time>
      </trkpt>
      <trkpt lat="44.99943" lon="4.66204">
        <ele>679</ele>
        <time>2019-01-02T11:34:27+01:00</time>
      </trkpt>
      <trkpt lat="44.99949" lon="4.66208">
        <ele>679</ele>
        <time>2019-01-02T11:34:35+01:00</time>
      </trkpt>
      <trkpt lat="44.99955" lon="4.66213">
        <ele>678</ele>
        <time>2019-01-02T11:34:41+01:00</time>
      </trkpt>
      <trkpt lat="44.99964" lon="4.66217">
        <ele>679</ele>
        <time>2019-01-02T11:34:49+01:00</time>
      </trkpt>
      <trkpt lat="44.99972" lon="4.6622">
        <ele>679</ele>
        <time>2019-01-02T11:34:57+01:00</time>
      </trkpt>
      <trkpt lat="44.99975" lon="4.66219">
        <ele>680</ele>
        <time>2019-01-02T11:35:07+01:00</time>
      </trkpt>
      <trkpt lat="44.9998" lon="4.6622">
        <ele>680</ele>
        <time>2019-01-02T11:35:27+01:00</time>
      </trkpt>
      <trkpt lat="44.99983" lon="4.66222">
        <ele>680</ele>
        <time>2019-01-02T11:35:38+01:00</time>
      </trkpt>
      <trkpt lat="44.99988" lon="4.66222">
        <ele>681</ele>
        <time>2019-01-02T11:35:44+01:00</time>
      </trkpt>
      <trkpt lat="44.99995" lon="4.66219">
        <ele>683</ele>
        <time>2019-01-02T11:35:52+01:00</time>
      </trkpt>
      <trkpt lat="45.00001" lon="4.66216">
        <ele>684</ele>
        <time>2019-01-02T11:35:58+01:00</time>
      </trkpt>
      <trkpt lat="45.00011" lon="4.6621">
        <ele>687</ele>
        <time>2019-01-02T11:36:06+01:00</time>
      </trkpt>
      <trkpt lat="45.00018" lon="4.66208">
        <ele>689</ele>
        <time>2019-01-02T11:36:14+01:00</time>
      </trkpt>
      <trkpt lat="45.00024" lon="4.66205">
        <ele>691</ele>
        <time>2019-01-02T11:36:22+01:00</time>
      </trkpt>
      <trkpt lat="45.00031" lon="4.66202">
        <ele>693</ele>
        <time>2019-01-02T11:36:29+01:00</time>
      </trkpt>
      <trkpt lat="45.00038" lon="4.662">
        <ele>694</ele>
        <time>2019-01-02T11:36:35+01:00</time>
      </trkpt>
      <trkpt lat="45.00049" lon="4.66204">
        <ele>695</ele>
        <time>2019-01-02T11:36:43+01:00</time>
      </trkpt>
      <trkpt lat="45.00057" lon="4.66208">
        <ele>695</ele>
        <time>2019-01-02T11:36:50+01:00</time>
      </trkpt>
      <trkpt lat="45.00061" lon="4.66212">
        <ele>694</ele>
        <time>2019-01-02T11:36:54+01:00</time>
      </trkpt>
      <trkpt lat="45.00067" lon="4.6622">
        <ele>693</ele>
        <time>2019-01-02T11:37:01+01:00</time>
      </trkpt>
      <trkpt lat="45.00073" lon="4.66225">
        <ele>692</ele>
        <time>2019-01-02T11:37:08+01:00</time>
      </trkpt>
      <trkpt lat="45.00081" lon="4.66229">
        <ele>692</ele>
        <time>2019-01-02T11:37:16+01:00</time>
      </trkpt>
      <trkpt lat="45.00089" lon="4.66236">
        <ele>692</ele>
        <time>2019-01-02T11:37:24+01:00</time>
      </trkpt>
      <trkpt lat="45.00095" lon="4.66242">
        <ele>692</ele>
        <time>2019-01-02T11:37:31+01:00</time>
      </trkpt>
      <trkpt lat="45.00102" lon="4.66249">
        <ele>692</ele>
        <time>2019-01-02T11:37:38+01:00</time>
      </trkpt>
      <trkpt lat="45.00107" lon="4.66252">
        <ele>693</ele>
        <time>2019-01-02T11:37:43+01:00</time>
      </trkpt>
      <trkpt lat="45.00113" lon="4.66254">
        <ele>693</ele>
        <time>2019-01-02T11:37:49+01:00</time>
      </trkpt>
      <trkpt lat="45.00118" lon="4.66261">
        <ele>693</ele>
        <time>2019-01-02T11:37:55+01:00</time>
      </trkpt>
      <trkpt lat="45.00119" lon="4.66262">
        <ele>693</ele>
        <time>2019-01-02T11:37:56+01:00</time>
      </trkpt>
      <trkpt lat="45.00124" lon="4.66263">
        <ele>694</ele>
        <time>2019-01-02T11:38:04+01:00</time>
      </trkpt>
      <trkpt lat="45.00128" lon="4.6627">
        <ele>693</ele>
        <time>2019-01-02T11:38:12+01:00</time>
      </trkpt>
      <trkpt lat="45.0013" lon="4.66273">
        <ele>693</ele>
        <time>2019-01-02T11:38:18+01:00</time>
      </trkpt>
      <trkpt lat="45.00138" lon="4.66277">
        <ele>693</ele>
        <time>2019-01-02T11:38:25+01:00</time>
      </trkpt>
      <trkpt lat="45.00147" lon="4.66285">
        <ele>693</ele>
        <time>2019-01-02T11:38:34+01:00</time>
      </trkpt>
      <trkpt lat="45.00154" lon="4.66294">
        <ele>693</ele>
        <time>2019-01-02T11:38:42+01:00</time>
      </trkpt>
      <trkpt lat="45.00157" lon="4.663">
        <ele>692</ele>
        <time>2019-01-02T11:38:47+01:00</time>
      </trkpt>
      <trkpt lat="45.00164" lon="4.66305">
        <ele>692</ele>
        <time>2019-01-02T11:38:54+01:00</time>
      </trkpt>
      <trkpt lat="45.00169" lon="4.6631">
        <ele>692</ele>
        <time>2019-01-02T11:39:00+01:00</time>
      </trkpt>
      <trkpt lat="45.0017" lon="4.66309">
        <ele>693</ele>
        <time>2019-01-02T11:39:10+01:00</time>
      </trkpt>
      <trkpt lat="45.00175" lon="4.66314">
        <ele>692</ele>
        <time>2019-01-02T11:39:15+01:00</time>
      </trkpt>
      <trkpt lat="45.0018" lon="4.66317">
        <ele>693</ele>
        <time>2019-01-02T11:39:22+01:00</time>
      </trkpt>
      <trkpt lat="45.0018" lon="4.66324">
        <ele>691</ele>
        <time>2019-01-02T11:39:33+01:00</time>
      </trkpt>
      <trkpt lat="45.0019" lon="4.66332">
        <ele>691</ele>
        <time>2019-01-02T11:39:42+01:00</time>
      </trkpt>
      <trkpt lat="45.00191" lon="4.66333">
        <ele>691</ele>
        <time>2019-01-02T11:39:43+01:00</time>
      </trkpt>
      <trkpt lat="45.00194" lon="4.66335">
        <ele>691</ele>
        <time>2019-01-02T11:39:46+01:00</time>
      </trkpt>
      <trkpt lat="45.002" lon="4.66338">
        <ele>692</ele>
        <time>2019-01-02T11:39:51+01:00</time>
      </trkpt>
      <trkpt lat="45.00209" lon="4.66348">
        <ele>692</ele>
        <time>2019-01-02T11:40:00+01:00</time>
      </trkpt>
      <trkpt lat="45.00215" lon="4.66354">
        <ele>692</ele>
        <time>2019-01-02T11:40:06+01:00</time>
      </trkpt>
      <trkpt lat="45.00222" lon="4.6636">
        <ele>692</ele>
        <time>2019-01-02T11:40:13+01:00</time>
      </trkpt>
      <trkpt lat="45.00225" lon="4.66364">
        <ele>692</ele>
        <time>2019-01-02T11:40:18+01:00</time>
      </trkpt>
      <trkpt lat="45.00227" lon="4.66366">
        <ele>692</ele>
        <time>2019-01-02T11:40:20+01:00</time>
      </trkpt>
      <trkpt lat="45.00237" lon="4.66375">
        <ele>693</ele>
        <time>2019-01-02T11:40:29+01:00</time>
      </trkpt>
      <trkpt lat="45.00244" lon="4.66381">
        <ele>693</ele>
        <time>2019-01-02T11:40:36+01:00</time>
      </trkpt>
      <trkpt lat="45.00247" lon="4.66384">
        <ele>693</ele>
        <time>2019-01-02T11:40:42+01:00</time>
      </trkpt>
      <trkpt lat="45.00254" lon="4.66392">
        <ele>693</ele>
        <time>2019-01-02T11:40:49+01:00</time>
      </trkpt>
      <trkpt lat="45.00262" lon="4.66399">
        <ele>693</ele>
        <time>2019-01-02T11:40:57+01:00</time>
      </trkpt>
      <trkpt lat="45.00265" lon="4.66403">
        <ele>693</ele>
        <time>2019-01-02T11:41:00+01:00</time>
      </trkpt>
      <trkpt lat="45.00268" lon="4.66404">
        <ele>693</ele>
        <time>2019-01-02T11:41:02+01:00</time>
      </trkpt>
      <trkpt lat="45.00269" lon="4.66407">
        <ele>692</ele>
        <time>2019-01-02T11:41:04+01:00</time>
      </trkpt>
      <trkpt lat="45.00277" lon="4.66417">
        <ele>692</ele>
        <time>2019-01-02T11:41:12+01:00</time>
      </trkpt>
      <trkpt lat="45.00281" lon="4.66424">
        <ele>691</ele>
        <time>2019-01-02T11:41:17+01:00</time>
      </trkpt>
      <trkpt lat="45.00284" lon="4.6643">
        <ele>691</ele>
        <time>2019-01-02T11:41:21+01:00</time>
      </trkpt>
      <trkpt lat="45.00291" lon="4.66439">
        <ele>691</ele>
        <time>2019-01-02T11:41:29+01:00</time>
      </trkpt>
      <trkpt lat="45.00294" lon="4.66441">
        <ele>691</ele>
        <time>2019-01-02T11:41:32+01:00</time>
      </trkpt>
      <trkpt lat="45.003" lon="4.6645">
        <ele>691</ele>
        <time>2019-01-02T11:41:39+01:00</time>
      </trkpt>
      <trkpt lat="45.00303" lon="4.66455">
        <ele>691</ele>
        <time>2019-01-02T11:41:45+01:00</time>
      </trkpt>
      <trkpt lat="45.00303" lon="4.66456">
        <ele>690</ele>
        <time>2019-01-02T11:41:52+01:00</time>
      </trkpt>
      <trkpt lat="45.00304" lon="4.66459">
        <ele>690</ele>
        <time>2019-01-02T11:41:57+01:00</time>
      </trkpt>
      <trkpt lat="45.00309" lon="4.66465">
        <ele>690</ele>
        <time>2019-01-02T11:42:02+01:00</time>
      </trkpt>
      <trkpt lat="45.00315" lon="4.66468">
        <ele>691</ele>
        <time>2019-01-02T11:42:07+01:00</time>
      </trkpt>
      <trkpt lat="45.00322" lon="4.66471">
        <ele>691</ele>
        <time>2019-01-02T11:42:13+01:00</time>
      </trkpt>
      <trkpt lat="45.00327" lon="4.66478">
        <ele>691</ele>
        <time>2019-01-02T11:42:19+01:00</time>
      </trkpt>
      <trkpt lat="45.00332" lon="4.66481">
        <ele>691</ele>
        <time>2019-01-02T11:42:23+01:00</time>
      </trkpt>
      <trkpt lat="45.00338" lon="4.66487">
        <ele>691</ele>
        <time>2019-01-02T11:42:29+01:00</time>
      </trkpt>
      <trkpt lat="45.00348" lon="4.66492">
        <ele>690</ele>
        <time>2019-01-02T11:42:37+01:00</time>
      </trkpt>
      <trkpt lat="45.0035" lon="4.66494">
        <ele>689</ele>
        <time>2019-01-02T11:42:39+01:00</time>
      </trkpt>
      <trkpt lat="45.00357" lon="4.66499">
        <ele>688</ele>
        <time>2019-01-02T11:42:45+01:00</time>
      </trkpt>
      <trkpt lat="45.00359" lon="4.66502">
        <ele>688</ele>
        <time>2019-01-02T11:42:47+01:00</time>
      </trkpt>
      <trkpt lat="45.00361" lon="4.66503">
        <ele>688</ele>
        <time>2019-01-02T11:42:49+01:00</time>
      </trkpt>
      <trkpt lat="45.00366" lon="4.66509">
        <ele>688</ele>
        <time>2019-01-02T11:42:54+01:00</time>
      </trkpt>
      <trkpt lat="45.00373" lon="4.66515">
        <ele>688</ele>
        <time>2019-01-02T11:43:01+01:00</time>
      </trkpt>
      <trkpt lat="45.00377" lon="4.66518">
        <ele>689</ele>
        <time>2019-01-02T11:43:05+01:00</time>
      </trkpt>
      <trkpt lat="45.00383" lon="4.66528">
        <ele>689</ele>
        <time>2019-01-02T11:43:13+01:00</time>
      </trkpt>
      <trkpt lat="45.00387" lon="4.66532">
        <ele>689</ele>
        <time>2019-01-02T11:43:18+01:00</time>
      </trkpt>
      <trkpt lat="45.00387" lon="4.66531">
        <ele>689</ele>
        <time>2019-01-02T11:43:19+01:00</time>
      </trkpt>
      <trkpt lat="45.00387" lon="4.66531">
        <ele>689</ele>
        <time>2019-01-02T11:43:20+01:00</time>
      </trkpt>
      <trkpt lat="45.0039" lon="4.66536">
        <ele>689</ele>
        <time>2019-01-02T11:43:25+01:00</time>
      </trkpt>
      <trkpt lat="45.00396" lon="4.66544">
        <ele>689</ele>
        <time>2019-01-02T11:43:34+01:00</time>
      </trkpt>
      <trkpt lat="45.00398" lon="4.66546">
        <ele>689</ele>
        <time>2019-01-02T11:43:36+01:00</time>
      </trkpt>
      <trkpt lat="45.00403" lon="4.6655">
        <ele>689</ele>
        <time>2019-01-02T11:43:42+01:00</time>
      </trkpt>
      <trkpt lat="45.00408" lon="4.66555">
        <ele>689</ele>
        <time>2019-01-02T11:43:47+01:00</time>
      </trkpt>
      <trkpt lat="45.00414" lon="4.6656">
        <ele>690</ele>
        <time>2019-01-02T11:43:53+01:00</time>
      </trkpt>
      <trkpt lat="45.00422" lon="4.66566">
        <ele>688</ele>
        <time>2019-01-02T11:44:00+01:00</time>
      </trkpt>
      <trkpt lat="45.00424" lon="4.66567">
        <ele>687</ele>
        <time>2019-01-02T11:44:02+01:00</time>
      </trkpt>
      <trkpt lat="45.00431" lon="4.66573">
        <ele>685</ele>
        <time>2019-01-02T11:44:08+01:00</time>
      </trkpt>
      <trkpt lat="45.00436" lon="4.66581">
        <ele>684</ele>
        <time>2019-01-02T11:44:15+01:00</time>
      </trkpt>
      <trkpt lat="45.00439" lon="4.66588">
        <ele>683</ele>
        <time>2019-01-02T11:44:20+01:00</time>
      </trkpt>
      <trkpt lat="45.00442" lon="4.66602">
        <ele>683</ele>
        <time>2019-01-02T11:44:29+01:00</time>
      </trkpt>
      <trkpt lat="45.00442" lon="4.66606">
        <ele>683</ele>
        <time>2019-01-02T11:44:31+01:00</time>
      </trkpt>
      <trkpt lat="45.00444" lon="4.66613">
        <ele>683</ele>
        <time>2019-01-02T11:44:36+01:00</time>
      </trkpt>
      <trkpt lat="45.00445" lon="4.66619">
        <ele>683</ele>
        <time>2019-01-02T11:44:44+01:00</time>
      </trkpt>
      <trkpt lat="45.00446" lon="4.66624">
        <ele>683</ele>
        <time>2019-01-02T11:44:52+01:00</time>
      </trkpt>
      <trkpt lat="45.00447" lon="4.66636">
        <ele>683</ele>
        <time>2019-01-02T11:44:58+01:00</time>
      </trkpt>
      <trkpt lat="45.00448" lon="4.66648">
        <ele>684</ele>
        <time>2019-01-02T11:45:04+01:00</time>
      </trkpt>
      <trkpt lat="45.0045" lon="4.66657">
        <ele>684</ele>
        <time>2019-01-02T11:45:11+01:00</time>
      </trkpt>
      <trkpt lat="45.00451" lon="4.66672">
        <ele>684</ele>
        <time>2019-01-02T11:45:18+01:00</time>
      </trkpt>
      <trkpt lat="45.00454" lon="4.66691">
        <ele>683</ele>
        <time>2019-01-02T11:45:27+01:00</time>
      </trkpt>
      <trkpt lat="45.00454" lon="4.66696">
        <ele>683</ele>
        <time>2019-01-02T11:45:30+01:00</time>
      </trkpt>
      <trkpt lat="45.00452" lon="4.66704">
        <ele>683</ele>
        <time>2019-01-02T11:45:35+01:00</time>
      </trkpt>
      <trkpt lat="45.00449" lon="4.66718">
        <ele>684</ele>
        <time>2019-01-02T11:45:43+01:00</time>
      </trkpt>
      <trkpt lat="45.00446" lon="4.66726">
        <ele>685</ele>
        <time>2019-01-02T11:45:48+01:00</time>
      </trkpt>
      <trkpt lat="45.00442" lon="4.66738">
        <ele>685</ele>
        <time>2019-01-02T11:45:55+01:00</time>
      </trkpt>
      <trkpt lat="45.00439" lon="4.66748">
        <ele>686</ele>
        <time>2019-01-02T11:46:01+01:00</time>
      </trkpt>
      <trkpt lat="45.00438" lon="4.66763">
        <ele>687</ele>
        <time>2019-01-02T11:46:09+01:00</time>
      </trkpt>
      <trkpt lat="45.00439" lon="4.66769">
        <ele>688</ele>
        <time>2019-01-02T11:46:14+01:00</time>
      </trkpt>
      <trkpt lat="45.00442" lon="4.66784">
        <ele>689</ele>
        <time>2019-01-02T11:46:22+01:00</time>
      </trkpt>
      <trkpt lat="45.00444" lon="4.66788">
        <ele>689</ele>
        <time>2019-01-02T11:46:25+01:00</time>
      </trkpt>
      <trkpt lat="45.00452" lon="4.66795">
        <ele>688</ele>
        <time>2019-01-02T11:46:33+01:00</time>
      </trkpt>
      <trkpt lat="45.00459" lon="4.66804">
        <ele>688</ele>
        <time>2019-01-02T11:46:40+01:00</time>
      </trkpt>
      <trkpt lat="45.00465" lon="4.66812">
        <ele>687</ele>
        <time>2019-01-02T11:46:46+01:00</time>
      </trkpt>
      <trkpt lat="45.00471" lon="4.6682">
        <ele>687</ele>
        <time>2019-01-02T11:46:52+01:00</time>
      </trkpt>
      <trkpt lat="45.00477" lon="4.66827">
        <ele>688</ele>
        <time>2019-01-02T11:46:58+01:00</time>
      </trkpt>
      <trkpt lat="45.00485" lon="4.66834">
        <ele>687</ele>
        <time>2019-01-02T11:47:05+01:00</time>
      </trkpt>
      <trkpt lat="45.00488" lon="4.66838">
        <ele>688</ele>
        <time>2019-01-02T11:47:08+01:00</time>
      </trkpt>
      <trkpt lat="45.0049" lon="4.66842">
        <ele>688</ele>
        <time>2019-01-02T11:47:10+01:00</time>
      </trkpt>
      <trkpt lat="45.00492" lon="4.66847">
        <ele>688</ele>
        <time>2019-01-02T11:47:13+01:00</time>
      </trkpt>
      <trkpt lat="45.00495" lon="4.66849">
        <ele>688</ele>
        <time>2019-01-02T11:47:16+01:00</time>
      </trkpt>
      <trkpt lat="45.00498" lon="4.66852">
        <ele>689</ele>
        <time>2019-01-02T11:47:19+01:00</time>
      </trkpt>
      <trkpt lat="45.00509" lon="4.66858">
        <ele>687</ele>
        <time>2019-01-02T11:47:27+01:00</time>
      </trkpt>
      <trkpt lat="45.00518" lon="4.66859">
        <ele>685</ele>
        <time>2019-01-02T11:47:34+01:00</time>
      </trkpt>
      <trkpt lat="45.00525" lon="4.66867">
        <ele>685</ele>
        <time>2019-01-02T11:47:41+01:00</time>
      </trkpt>
      <trkpt lat="45.00526" lon="4.66867">
        <ele>685</ele>
        <time>2019-01-02T11:47:42+01:00</time>
      </trkpt>
      <trkpt lat="45.00529" lon="4.66869">
        <ele>684</ele>
        <time>2019-01-02T11:47:44+01:00</time>
      </trkpt>
      <trkpt lat="45.00542" lon="4.66875">
        <ele>683</ele>
        <time>2019-01-02T11:47:54+01:00</time>
      </trkpt>
      <trkpt lat="45.00549" lon="4.66882">
        <ele>683</ele>
        <time>2019-01-02T11:48:01+01:00</time>
      </trkpt>
      <trkpt lat="45.00556" lon="4.66887">
        <ele>683</ele>
        <time>2019-01-02T11:48:08+01:00</time>
      </trkpt>
      <trkpt lat="45.00558" lon="4.66888">
        <ele>683</ele>
        <time>2019-01-02T11:48:09+01:00</time>
      </trkpt>
      <trkpt lat="45.00562" lon="4.66891">
        <ele>683</ele>
        <time>2019-01-02T11:48:13+01:00</time>
      </trkpt>
      <trkpt lat="45.00571" lon="4.66898">
        <ele>683</ele>
        <time>2019-01-02T11:48:21+01:00</time>
      </trkpt>
      <trkpt lat="45.00578" lon="4.66901">
        <ele>683</ele>
        <time>2019-01-02T11:48:26+01:00</time>
      </trkpt>
      <trkpt lat="45.00583" lon="4.66904">
        <ele>683</ele>
        <time>2019-01-02T11:48:30+01:00</time>
      </trkpt>
      <trkpt lat="45.00592" lon="4.66909">
        <ele>683</ele>
        <time>2019-01-02T11:48:38+01:00</time>
      </trkpt>
      <trkpt lat="45.00594" lon="4.66909">
        <ele>683</ele>
        <time>2019-01-02T11:48:39+01:00</time>
      </trkpt>
      <trkpt lat="45.00596" lon="4.66911">
        <ele>683</ele>
        <time>2019-01-02T11:48:42+01:00</time>
      </trkpt>
      <trkpt lat="45.006" lon="4.6691">
        <ele>682</ele>
        <time>2019-01-02T11:48:45+01:00</time>
      </trkpt>
      <trkpt lat="45.00611" lon="4.66915">
        <ele>682</ele>
        <time>2019-01-02T11:48:53+01:00</time>
      </trkpt>
      <trkpt lat="45.00621" lon="4.66923">
        <ele>682</ele>
        <time>2019-01-02T11:49:01+01:00</time>
      </trkpt>
      <trkpt lat="45.00622" lon="4.66924">
        <ele>682</ele>
        <time>2019-01-02T11:49:02+01:00</time>
      </trkpt>
      <trkpt lat="45.00631" lon="4.66929">
        <ele>682</ele>
        <time>2019-01-02T11:49:11+01:00</time>
      </trkpt>
      <trkpt lat="45.00634" lon="4.66931">
        <ele>682</ele>
        <time>2019-01-02T11:49:14+01:00</time>
      </trkpt>
      <trkpt lat="45.00643" lon="4.66939">
        <ele>682</ele>
        <time>2019-01-02T11:49:24+01:00</time>
      </trkpt>
      <trkpt lat="45.00649" lon="4.66946">
        <ele>682</ele>
        <time>2019-01-02T11:49:30+01:00</time>
      </trkpt>
      <trkpt lat="45.00654" lon="4.66949">
        <ele>682</ele>
        <time>2019-01-02T11:49:33+01:00</time>
      </trkpt>
      <trkpt lat="45.00665" lon="4.66955">
        <ele>682</ele>
        <time>2019-01-02T11:49:41+01:00</time>
      </trkpt>
      <trkpt lat="45.0068" lon="4.66957">
        <ele>678</ele>
        <time>2019-01-02T11:49:50+01:00</time>
      </trkpt>
      <trkpt lat="45.0069" lon="4.66965">
        <ele>677</ele>
        <time>2019-01-02T11:49:58+01:00</time>
      </trkpt>
      <trkpt lat="45.00691" lon="4.66966">
        <ele>677</ele>
        <time>2019-01-02T11:49:59+01:00</time>
      </trkpt>
      <trkpt lat="45.00695" lon="4.66973">
        <ele>677</ele>
        <time>2019-01-02T11:50:04+01:00</time>
      </trkpt>
      <trkpt lat="45.007" lon="4.66975">
        <ele>677</ele>
        <time>2019-01-02T11:50:07+01:00</time>
      </trkpt>
      <trkpt lat="45.00703" lon="4.6698">
        <ele>677</ele>
        <time>2019-01-02T11:50:11+01:00</time>
      </trkpt>
      <trkpt lat="45.0071" lon="4.66989">
        <ele>677</ele>
        <time>2019-01-02T11:50:18+01:00</time>
      </trkpt>
      <trkpt lat="45.00717" lon="4.66998">
        <ele>677</ele>
        <time>2019-01-02T11:50:25+01:00</time>
      </trkpt>
      <trkpt lat="45.0072" lon="4.67003">
        <ele>677</ele>
        <time>2019-01-02T11:50:28+01:00</time>
      </trkpt>
      <trkpt lat="45.0072" lon="4.67005">
        <ele>677</ele>
        <time>2019-01-02T11:50:29+01:00</time>
      </trkpt>
      <trkpt lat="45.00721" lon="4.67009">
        <ele>677</ele>
        <time>2019-01-02T11:50:31+01:00</time>
      </trkpt>
      <trkpt lat="45.00726" lon="4.6702">
        <ele>676</ele>
        <time>2019-01-02T11:50:38+01:00</time>
      </trkpt>
      <trkpt lat="45.00727" lon="4.67032">
        <ele>677</ele>
        <time>2019-01-02T11:50:45+01:00</time>
      </trkpt>
      <trkpt lat="45.00727" lon="4.67047">
        <ele>678</ele>
        <time>2019-01-02T11:50:53+01:00</time>
      </trkpt>
      <trkpt lat="45.00725" lon="4.67059">
        <ele>679</ele>
        <time>2019-01-02T11:51:00+01:00</time>
      </trkpt>
      <trkpt lat="45.00722" lon="4.67071">
        <ele>680</ele>
        <time>2019-01-02T11:51:08+01:00</time>
      </trkpt>
      <trkpt lat="45.00719" lon="4.67082">
        <ele>682</ele>
        <time>2019-01-02T11:51:14+01:00</time>
      </trkpt>
      <trkpt lat="45.00718" lon="4.67091">
        <ele>682</ele>
        <time>2019-01-02T11:51:20+01:00</time>
      </trkpt>
      <trkpt lat="45.00715" lon="4.67106">
        <ele>682</ele>
        <time>2019-01-02T11:51:27+01:00</time>
      </trkpt>
      <trkpt lat="45.00712" lon="4.67121">
        <ele>681</ele>
        <time>2019-01-02T11:51:36+01:00</time>
      </trkpt>
      <trkpt lat="45.00712" lon="4.67129">
        <ele>681</ele>
        <time>2019-01-02T11:51:44+01:00</time>
      </trkpt>
      <trkpt lat="45.0071" lon="4.67147">
        <ele>680</ele>
        <time>2019-01-02T11:51:52+01:00</time>
      </trkpt>
      <trkpt lat="45.00711" lon="4.67162">
        <ele>679</ele>
        <time>2019-01-02T11:52:00+01:00</time>
      </trkpt>
      <trkpt lat="45.00711" lon="4.67168">
        <ele>679</ele>
        <time>2019-01-02T11:52:04+01:00</time>
      </trkpt>
      <trkpt lat="45.00714" lon="4.67176">
        <ele>677</ele>
        <time>2019-01-02T11:52:09+01:00</time>
      </trkpt>
      <trkpt lat="45.00715" lon="4.67191">
        <ele>676</ele>
        <time>2019-01-02T11:52:17+01:00</time>
      </trkpt>
      <trkpt lat="45.00713" lon="4.67203">
        <ele>676</ele>
        <time>2019-01-02T11:52:24+01:00</time>
      </trkpt>
      <trkpt lat="45.00707" lon="4.6722">
        <ele>677</ele>
        <time>2019-01-02T11:52:33+01:00</time>
      </trkpt>
      <trkpt lat="45.00701" lon="4.67235">
        <ele>678</ele>
        <time>2019-01-02T11:52:42+01:00</time>
      </trkpt>
      <trkpt lat="45.00697" lon="4.67249">
        <ele>678</ele>
        <time>2019-01-02T11:52:50+01:00</time>
      </trkpt>
      <trkpt lat="45.00691" lon="4.67263">
        <ele>679</ele>
        <time>2019-01-02T11:52:58+01:00</time>
      </trkpt>
      <trkpt lat="45.0069" lon="4.67273">
        <ele>680</ele>
        <time>2019-01-02T11:53:03+01:00</time>
      </trkpt>
      <trkpt lat="45.00692" lon="4.6729">
        <ele>679</ele>
        <time>2019-01-02T11:53:12+01:00</time>
      </trkpt>
      <trkpt lat="45.00696" lon="4.67301">
        <ele>678</ele>
        <time>2019-01-02T11:53:19+01:00</time>
      </trkpt>
      <trkpt lat="45.007" lon="4.67313">
        <ele>678</ele>
        <time>2019-01-02T11:53:26+01:00</time>
      </trkpt>
      <trkpt lat="45.00703" lon="4.67319">
        <ele>677</ele>
        <time>2019-01-02T11:53:30+01:00</time>
      </trkpt>
      <trkpt lat="45.00707" lon="4.67325">
        <ele>677</ele>
        <time>2019-01-02T11:53:34+01:00</time>
      </trkpt>
      <trkpt lat="45.00713" lon="4.67333">
        <ele>676</ele>
        <time>2019-01-02T11:53:41+01:00</time>
      </trkpt>
      <trkpt lat="45.0072" lon="4.67338">
        <ele>675</ele>
        <time>2019-01-02T11:53:49+01:00</time>
      </trkpt>
      <trkpt lat="45.00724" lon="4.67336">
        <ele>674</ele>
        <time>2019-01-02T11:53:56+01:00</time>
      </trkpt>
      <trkpt lat="45.00732" lon="4.67333">
        <ele>672</ele>
        <time>2019-01-02T11:54:08+01:00</time>
      </trkpt>
      <trkpt lat="45.00741" lon="4.67336">
        <ele>671</ele>
        <time>2019-01-02T11:54:17+01:00</time>
      </trkpt>
      <trkpt lat="45.00745" lon="4.67336">
        <ele>670</ele>
        <time>2019-01-02T11:54:20+01:00</time>
      </trkpt>
      <trkpt lat="45.00751" lon="4.67335">
        <ele>669</ele>
        <time>2019-01-02T11:54:25+01:00</time>
      </trkpt>
      <trkpt lat="45.00759" lon="4.67336">
        <ele>668</ele>
        <time>2019-01-02T11:54:34+01:00</time>
      </trkpt>
      <trkpt lat="45.0077" lon="4.6734">
        <ele>667</ele>
        <time>2019-01-02T11:54:42+01:00</time>
      </trkpt>
      <trkpt lat="45.0078" lon="4.67342">
        <ele>666</ele>
        <time>2019-01-02T11:54:50+01:00</time>
      </trkpt>
      <trkpt lat="45.00782" lon="4.67342">
        <ele>665</ele>
        <time>2019-01-02T11:54:52+01:00</time>
      </trkpt>
      <trkpt lat="45.00791" lon="4.67348">
        <ele>665</ele>
        <time>2019-01-02T11:55:00+01:00</time>
      </trkpt>
      <trkpt lat="45.00796" lon="4.6735">
        <ele>665</ele>
        <time>2019-01-02T11:55:05+01:00</time>
      </trkpt>
      <trkpt lat="45.00799" lon="4.67352">
        <ele>665</ele>
        <time>2019-01-02T11:55:07+01:00</time>
      </trkpt>
      <trkpt lat="45.00806" lon="4.67357">
        <ele>665</ele>
        <time>2019-01-02T11:55:13+01:00</time>
      </trkpt>
      <trkpt lat="45.0081" lon="4.67359">
        <ele>665</ele>
        <time>2019-01-02T11:55:16+01:00</time>
      </trkpt>
      <trkpt lat="45.00818" lon="4.67362">
        <ele>664</ele>
        <time>2019-01-02T11:55:22+01:00</time>
      </trkpt>
      <trkpt lat="45.00829" lon="4.67368">
        <ele>664</ele>
        <time>2019-01-02T11:55:31+01:00</time>
      </trkpt>
      <trkpt lat="45.00839" lon="4.67372">
        <ele>664</ele>
        <time>2019-01-02T11:55:39+01:00</time>
      </trkpt>
      <trkpt lat="45.00848" lon="4.6737">
        <ele>663</ele>
        <time>2019-01-02T11:55:47+01:00</time>
      </trkpt>
      <trkpt lat="45.00855" lon="4.67369">
        <ele>663</ele>
        <time>2019-01-02T11:55:55+01:00</time>
      </trkpt>
      <trkpt lat="45.00856" lon="4.67369">
        <ele>663</ele>
        <time>2019-01-02T11:55:56+01:00</time>
      </trkpt>
      <trkpt lat="45.00865" lon="4.67367">
        <ele>662</ele>
        <time>2019-01-02T11:56:04+01:00</time>
      </trkpt>
      <trkpt lat="45.00872" lon="4.67365">
        <ele>661</ele>
        <time>2019-01-02T11:56:11+01:00</time>
      </trkpt>
      <trkpt lat="45.00882" lon="4.67361">
        <ele>660</ele>
        <time>2019-01-02T11:56:19+01:00</time>
      </trkpt>
      <trkpt lat="45.00892" lon="4.67363">
        <ele>660</ele>
        <time>2019-01-02T11:56:27+01:00</time>
      </trkpt>
      <trkpt lat="45.00899" lon="4.67362">
        <ele>659</ele>
        <time>2019-01-02T11:56:33+01:00</time>
      </trkpt>
      <trkpt lat="45.00908" lon="4.67362">
        <ele>659</ele>
        <time>2019-01-02T11:56:42+01:00</time>
      </trkpt>
      <trkpt lat="45.00918" lon="4.6736">
        <ele>657</ele>
        <time>2019-01-02T11:56:52+01:00</time>
      </trkpt>
      <trkpt lat="45.00928" lon="4.67362">
        <ele>656</ele>
        <time>2019-01-02T11:57:02+01:00</time>
      </trkpt>
      <trkpt lat="45.00935" lon="4.67362">
        <ele>655</ele>
        <time>2019-01-02T11:57:08+01:00</time>
      </trkpt>
      <trkpt lat="45.00943" lon="4.6736">
        <ele>653</ele>
        <time>2019-01-02T11:57:14+01:00</time>
      </trkpt>
      <trkpt lat="45.00946" lon="4.67359">
        <ele>652</ele>
        <time>2019-01-02T11:57:17+01:00</time>
      </trkpt>
      <trkpt lat="45.00953" lon="4.6736">
        <ele>651</ele>
        <time>2019-01-02T11:57:22+01:00</time>
      </trkpt>
      <trkpt lat="45.00958" lon="4.6736">
        <ele>651</ele>
        <time>2019-01-02T11:57:27+01:00</time>
      </trkpt>
      <trkpt lat="45.00965" lon="4.67359">
        <ele>649</ele>
        <time>2019-01-02T11:57:35+01:00</time>
      </trkpt>
      <trkpt lat="45.00973" lon="4.67359">
        <ele>648</ele>
        <time>2019-01-02T11:57:45+01:00</time>
      </trkpt>
      <trkpt lat="45.0098" lon="4.6736">
        <ele>647</ele>
        <time>2019-01-02T11:57:53+01:00</time>
      </trkpt>
      <trkpt lat="45.00988" lon="4.6736">
        <ele>645</ele>
        <time>2019-01-02T11:58:01+01:00</time>
      </trkpt>
      <trkpt lat="45.00997" lon="4.67361">
        <ele>644</ele>
        <time>2019-01-02T11:58:09+01:00</time>
      </trkpt>
      <trkpt lat="45.01" lon="4.67361">
        <ele>644</ele>
        <time>2019-01-02T11:58:11+01:00</time>
      </trkpt>
      <trkpt lat="45.01007" lon="4.67361">
        <ele>643</ele>
        <time>2019-01-02T11:58:18+01:00</time>
      </trkpt>
      <trkpt lat="45.01017" lon="4.67362">
        <ele>641</ele>
        <time>2019-01-02T11:58:27+01:00</time>
      </trkpt>
      <trkpt lat="45.01027" lon="4.67363">
        <ele>641</ele>
        <time>2019-01-02T11:58:36+01:00</time>
      </trkpt>
      <trkpt lat="45.01034" lon="4.67363">
        <ele>639</ele>
        <time>2019-01-02T11:58:43+01:00</time>
      </trkpt>
      <trkpt lat="45.01045" lon="4.67364">
        <ele>638</ele>
        <time>2019-01-02T11:58:52+01:00</time>
      </trkpt>
      <trkpt lat="45.01052" lon="4.67361">
        <ele>636</ele>
        <time>2019-01-02T11:58:59+01:00</time>
      </trkpt>
      <trkpt lat="45.0106" lon="4.67354">
        <ele>633</ele>
        <time>2019-01-02T11:59:09+01:00</time>
      </trkpt>
      <trkpt lat="45.01069" lon="4.6735">
        <ele>630</ele>
        <time>2019-01-02T11:59:17+01:00</time>
      </trkpt>
      <trkpt lat="45.0107" lon="4.6735">
        <ele>630</ele>
        <time>2019-01-02T11:59:18+01:00</time>
      </trkpt>
      <trkpt lat="45.01079" lon="4.67346">
        <ele>628</ele>
        <time>2019-01-02T11:59:26+01:00</time>
      </trkpt>
      <trkpt lat="45.0109" lon="4.67339">
        <ele>625</ele>
        <time>2019-01-02T11:59:36+01:00</time>
      </trkpt>
      <trkpt lat="45.01099" lon="4.67334">
        <ele>623</ele>
        <time>2019-01-02T11:59:44+01:00</time>
      </trkpt>
      <trkpt lat="45.01111" lon="4.67327">
        <ele>621</ele>
        <time>2019-01-02T11:59:53+01:00</time>
      </trkpt>
      <trkpt lat="45.01121" lon="4.67323">
        <ele>620</ele>
        <time>2019-01-02T12:00:01+01:00</time>
      </trkpt>
      <trkpt lat="45.01122" lon="4.67323">
        <ele>620</ele>
        <time>2019-01-02T12:00:08+01:00</time>
      </trkpt>
      <trkpt lat="45.01128" lon="4.67319">
        <ele>619</ele>
        <time>2019-01-02T12:00:22+01:00</time>
      </trkpt>
      <trkpt lat="45.01125" lon="4.67315">
        <ele>618</ele>
        <time>2019-01-02T12:00:30+01:00</time>
      </trkpt>
      <trkpt lat="45.01124" lon="4.67316">
        <ele>618</ele>
        <time>2019-01-02T12:00:31+01:00</time>
      </trkpt>
      <trkpt lat="45.01124" lon="4.67316">
        <ele>618</ele>
        <time>2019-01-02T12:00:32+01:00</time>
      </trkpt>
      <trkpt lat="45.01125" lon="4.67316">
        <ele>618</ele>
        <time>2019-01-02T12:00:33+01:00</time>
      </trkpt>
      <trkpt lat="45.01125" lon="4.67316">
        <ele>618</ele>
        <time>2019-01-02T12:00:34+01:00</time>
      </trkpt>
      <trkpt lat="45.01126" lon="4.67315">
        <ele>618</ele>
        <time>2019-01-02T12:00:35+01:00</time>
      </trkpt>
      <trkpt lat="45.01125" lon="4.67318">
        <ele>619</ele>
        <time>2019-01-02T12:00:48+01:00</time>
      </trkpt>
      <trkpt lat="45.01125" lon="4.67318">
        <ele>619</ele>
        <time>2019-01-02T12:00:51+01:00</time>
      </trkpt>
      <trkpt lat="45.01126" lon="4.67321">
        <ele>619</ele>
        <time>2019-01-02T12:01:07+01:00</time>
      </trkpt>
      <trkpt lat="45.01128" lon="4.67321">
        <ele>619</ele>
        <time>2019-01-02T12:01:20+01:00</time>
      </trkpt>
      <trkpt lat="45.01137" lon="4.67329">
        <ele>621</ele>
        <time>2019-01-02T12:01:28+01:00</time>
      </trkpt>
      <trkpt lat="45.0114" lon="4.67332">
        <ele>621</ele>
        <time>2019-01-02T12:01:34+01:00</time>
      </trkpt>
      <trkpt lat="45.01146" lon="4.67337">
        <ele>622</ele>
        <time>2019-01-02T12:01:41+01:00</time>
      </trkpt>
      <trkpt lat="45.01148" lon="4.67334">
        <ele>622</ele>
        <time>2019-01-02T12:01:53+01:00</time>
      </trkpt>
      <trkpt lat="45.01148" lon="4.67337">
        <ele>623</ele>
        <time>2019-01-02T12:02:05+01:00</time>
      </trkpt>
      <trkpt lat="45.01148" lon="4.67338">
        <ele>623</ele>
        <time>2019-01-02T12:02:06+01:00</time>
      </trkpt>
      <trkpt lat="45.01148" lon="4.67338">
        <ele>623</ele>
        <time>2019-01-02T12:02:07+01:00</time>
      </trkpt>
      <trkpt lat="45.01148" lon="4.67338">
        <ele>623</ele>
        <time>2019-01-02T12:02:08+01:00</time>
      </trkpt>
      <trkpt lat="45.01149" lon="4.67338">
        <ele>623</ele>
        <time>2019-01-02T12:02:09+01:00</time>
      </trkpt>
      <trkpt lat="45.01148" lon="4.67338">
        <ele>623</ele>
        <time>2019-01-02T12:02:10+01:00</time>
      </trkpt>
      <trkpt lat="45.01148" lon="4.67338">
        <ele>623</ele>
        <time>2019-01-02T12:03:05+01:00</time>
      </trkpt>
      <trkpt lat="45.01148" lon="4.67336">
        <ele>622</ele>
        <time>2019-01-02T12:03:06+01:00</time>
      </trkpt>
      <trkpt lat="45.0115" lon="4.67335">
        <ele>622</ele>
        <time>2019-01-02T12:03:16+01:00</time>
      </trkpt>
      <trkpt lat="45.01148" lon="4.67338">
        <ele>623</ele>
        <time>2019-01-02T12:03:24+01:00</time>
      </trkpt>
      <trkpt lat="45.0115" lon="4.67336">
        <ele>622</ele>
        <time>2019-01-02T12:03:35+01:00</time>
      </trkpt>
      <trkpt lat="45.01152" lon="4.67338">
        <ele>623</ele>
        <time>2019-01-02T12:03:37+01:00</time>
      </trkpt>
      <trkpt lat="45.0116" lon="4.67346">
        <ele>625</ele>
        <time>2019-01-02T12:03:46+01:00</time>
      </trkpt>
      <trkpt lat="45.01165" lon="4.67351">
        <ele>626</ele>
        <time>2019-01-02T12:03:51+01:00</time>
      </trkpt>
      <trkpt lat="45.01173" lon="4.67359">
        <ele>628</ele>
        <time>2019-01-02T12:04:00+01:00</time>
      </trkpt>
      <trkpt lat="45.01178" lon="4.67365">
        <ele>629</ele>
        <time>2019-01-02T12:04:07+01:00</time>
      </trkpt>
      <trkpt lat="45.01188" lon="4.67373">
        <ele>631</ele>
        <time>2019-01-02T12:04:14+01:00</time>
      </trkpt>
      <trkpt lat="45.01199" lon="4.67381">
        <ele>632</ele>
        <time>2019-01-02T12:04:22+01:00</time>
      </trkpt>
      <trkpt lat="45.01202" lon="4.67384">
        <ele>633</ele>
        <time>2019-01-02T12:04:25+01:00</time>
      </trkpt>
      <trkpt lat="45.01204" lon="4.67386">
        <ele>633</ele>
        <time>2019-01-02T12:04:27+01:00</time>
      </trkpt>
      <trkpt lat="45.01215" lon="4.67397">
        <ele>635</ele>
        <time>2019-01-02T12:04:36+01:00</time>
      </trkpt>
      <trkpt lat="45.01224" lon="4.67395">
        <ele>634</ele>
        <time>2019-01-02T12:04:45+01:00</time>
      </trkpt>
      <trkpt lat="45.01228" lon="4.67396">
        <ele>634</ele>
        <time>2019-01-02T12:04:53+01:00</time>
      </trkpt>
      <trkpt lat="45.01229" lon="4.67397">
        <ele>635</ele>
        <time>2019-01-02T12:04:55+01:00</time>
      </trkpt>
      <trkpt lat="45.01236" lon="4.67401">
        <ele>635</ele>
        <time>2019-01-02T12:05:02+01:00</time>
      </trkpt>
      <trkpt lat="45.01243" lon="4.67406">
        <ele>636</ele>
        <time>2019-01-02T12:05:10+01:00</time>
      </trkpt>
      <trkpt lat="45.01251" lon="4.67409">
        <ele>636</ele>
        <time>2019-01-02T12:05:17+01:00</time>
      </trkpt>
      <trkpt lat="45.01257" lon="4.67412">
        <ele>637</ele>
        <time>2019-01-02T12:05:24+01:00</time>
      </trkpt>
      <trkpt lat="45.01264" lon="4.67419">
        <ele>638</ele>
        <time>2019-01-02T12:05:33+01:00</time>
      </trkpt>
      <trkpt lat="45.01271" lon="4.67422">
        <ele>638</ele>
        <time>2019-01-02T12:05:41+01:00</time>
      </trkpt>
      <trkpt lat="45.01272" lon="4.67423">
        <ele>638</ele>
        <time>2019-01-02T12:05:43+01:00</time>
      </trkpt>
      <trkpt lat="45.01282" lon="4.67426">
        <ele>639</ele>
        <time>2019-01-02T12:05:51+01:00</time>
      </trkpt>
      <trkpt lat="45.01292" lon="4.6743">
        <ele>639</ele>
        <time>2019-01-02T12:05:59+01:00</time>
      </trkpt>
      <trkpt lat="45.01299" lon="4.67435">
        <ele>640</ele>
        <time>2019-01-02T12:06:08+01:00</time>
      </trkpt>
      <trkpt lat="45.01304" lon="4.6744">
        <ele>640</ele>
        <time>2019-01-02T12:06:15+01:00</time>
      </trkpt>
      <trkpt lat="45.01312" lon="4.67448">
        <ele>641</ele>
        <time>2019-01-02T12:06:24+01:00</time>
      </trkpt>
      <trkpt lat="45.01319" lon="4.67456">
        <ele>643</ele>
        <time>2019-01-02T12:06:33+01:00</time>
      </trkpt>
      <trkpt lat="45.01326" lon="4.67461">
        <ele>643</ele>
        <time>2019-01-02T12:06:40+01:00</time>
      </trkpt>
      <trkpt lat="45.01334" lon="4.67471">
        <ele>644</ele>
        <time>2019-01-02T12:06:48+01:00</time>
      </trkpt>
      <trkpt lat="45.0134" lon="4.67477">
        <ele>644</ele>
        <time>2019-01-02T12:06:56+01:00</time>
      </trkpt>
      <trkpt lat="45.01342" lon="4.67475">
        <ele>644</ele>
        <time>2019-01-02T12:07:03+01:00</time>
      </trkpt>
      <trkpt lat="45.01347" lon="4.67487">
        <ele>645</ele>
        <time>2019-01-02T12:07:11+01:00</time>
      </trkpt>
      <trkpt lat="45.01346" lon="4.67488">
        <ele>645</ele>
        <time>2019-01-02T12:07:18+01:00</time>
      </trkpt>
      <trkpt lat="45.01343" lon="4.67484">
        <ele>645</ele>
        <time>2019-01-02T12:07:25+01:00</time>
      </trkpt>
      <trkpt lat="45.01346" lon="4.67491">
        <ele>646</ele>
        <time>2019-01-02T12:07:33+01:00</time>
      </trkpt>
      <trkpt lat="45.01345" lon="4.6749">
        <ele>646</ele>
        <time>2019-01-02T12:07:41+01:00</time>
      </trkpt>
      <trkpt lat="45.01344" lon="4.67489">
        <ele>646</ele>
        <time>2019-01-02T12:07:42+01:00</time>
      </trkpt>
      <trkpt lat="45.01337" lon="4.67483">
        <ele>646</ele>
        <time>2019-01-02T12:07:50+01:00</time>
      </trkpt>
      <trkpt lat="45.01339" lon="4.67486">
        <ele>646</ele>
        <time>2019-01-02T12:07:54+01:00</time>
      </trkpt>
      <trkpt lat="45.01341" lon="4.67487">
        <ele>646</ele>
        <time>2019-01-02T12:07:56+01:00</time>
      </trkpt>
      <trkpt lat="45.01347" lon="4.67498">
        <ele>647</ele>
        <time>2019-01-02T12:08:04+01:00</time>
      </trkpt>
      <trkpt lat="45.01351" lon="4.67503">
        <ele>647</ele>
        <time>2019-01-02T12:08:08+01:00</time>
      </trkpt>
      <trkpt lat="45.01357" lon="4.67516">
        <ele>648</ele>
        <time>2019-01-02T12:08:18+01:00</time>
      </trkpt>
      <trkpt lat="45.01364" lon="4.67517">
        <ele>646</ele>
        <time>2019-01-02T12:08:26+01:00</time>
      </trkpt>
      <trkpt lat="45.01362" lon="4.67518">
        <ele>647</ele>
        <time>2019-01-02T12:08:34+01:00</time>
      </trkpt>
      <trkpt lat="45.01367" lon="4.67523">
        <ele>646</ele>
        <time>2019-01-02T12:08:41+01:00</time>
      </trkpt>
      <trkpt lat="45.01373" lon="4.67525">
        <ele>646</ele>
        <time>2019-01-02T12:08:47+01:00</time>
      </trkpt>
      <trkpt lat="45.01373" lon="4.67523">
        <ele>645</ele>
        <time>2019-01-02T12:08:56+01:00</time>
      </trkpt>
      <trkpt lat="45.01373" lon="4.67523">
        <ele>645</ele>
        <time>2019-01-02T12:09:01+01:00</time>
      </trkpt>
      <trkpt lat="45.01374" lon="4.67518">
        <ele>645</ele>
        <time>2019-01-02T12:09:15+01:00</time>
      </trkpt>
      <trkpt lat="45.01374" lon="4.67515">
        <ele>644</ele>
        <time>2019-01-02T12:09:27+01:00</time>
      </trkpt>
      <trkpt lat="45.01373" lon="4.67518">
        <ele>645</ele>
        <time>2019-01-02T12:09:34+01:00</time>
      </trkpt>
      <trkpt lat="45.01373" lon="4.6752">
        <ele>645</ele>
        <time>2019-01-02T12:09:50+01:00</time>
      </trkpt>
      <trkpt lat="45.01373" lon="4.67517">
        <ele>645</ele>
        <time>2019-01-02T12:10:01+01:00</time>
      </trkpt>
      <trkpt lat="45.01372" lon="4.67517">
        <ele>645</ele>
        <time>2019-01-02T12:10:11+01:00</time>
      </trkpt>
      <trkpt lat="45.01374" lon="4.67521">
        <ele>645</ele>
        <time>2019-01-02T12:10:22+01:00</time>
      </trkpt>
      <trkpt lat="45.01372" lon="4.67523">
        <ele>646</ele>
        <time>2019-01-02T12:10:31+01:00</time>
      </trkpt>
      <trkpt lat="45.01371" lon="4.67523">
        <ele>646</ele>
        <time>2019-01-02T12:10:44+01:00</time>
      </trkpt>
      <trkpt lat="45.01373" lon="4.67525">
        <ele>646</ele>
        <time>2019-01-02T12:10:48+01:00</time>
      </trkpt>
      <trkpt lat="45.01382" lon="4.67535">
        <ele>645</ele>
        <time>2019-01-02T12:10:56+01:00</time>
      </trkpt>
      <trkpt lat="45.01388" lon="4.67543">
        <ele>645</ele>
        <time>2019-01-02T12:11:02+01:00</time>
      </trkpt>
      <trkpt lat="45.01397" lon="4.67557">
        <ele>645</ele>
        <time>2019-01-02T12:11:12+01:00</time>
      </trkpt>
      <trkpt lat="45.01402" lon="4.67566">
        <ele>645</ele>
        <time>2019-01-02T12:11:19+01:00</time>
      </trkpt>
      <trkpt lat="45.01406" lon="4.67579">
        <ele>646</ele>
        <time>2019-01-02T12:11:27+01:00</time>
      </trkpt>
      <trkpt lat="45.0141" lon="4.6759">
        <ele>647</ele>
        <time>2019-01-02T12:11:34+01:00</time>
      </trkpt>
      <trkpt lat="45.0141" lon="4.67598">
        <ele>648</ele>
        <time>2019-01-02T12:11:40+01:00</time>
      </trkpt>
      <trkpt lat="45.01412" lon="4.67609">
        <ele>649</ele>
        <time>2019-01-02T12:11:47+01:00</time>
      </trkpt>
      <trkpt lat="45.01413" lon="4.67618">
        <ele>649</ele>
        <time>2019-01-02T12:11:54+01:00</time>
      </trkpt>
      <trkpt lat="45.01413" lon="4.67631">
        <ele>651</ele>
        <time>2019-01-02T12:12:02+01:00</time>
      </trkpt>
      <trkpt lat="45.01414" lon="4.6764">
        <ele>652</ele>
        <time>2019-01-02T12:12:08+01:00</time>
      </trkpt>
      <trkpt lat="45.01413" lon="4.67651">
        <ele>653</ele>
        <time>2019-01-02T12:12:16+01:00</time>
      </trkpt>
      <trkpt lat="45.01411" lon="4.67657">
        <ele>654</ele>
        <time>2019-01-02T12:12:21+01:00</time>
      </trkpt>
      <trkpt lat="45.01412" lon="4.67667">
        <ele>655</ele>
        <time>2019-01-02T12:12:28+01:00</time>
      </trkpt>
      <trkpt lat="45.01412" lon="4.67675">
        <ele>656</ele>
        <time>2019-01-02T12:12:32+01:00</time>
      </trkpt>
      <trkpt lat="45.01413" lon="4.67691">
        <ele>658</ele>
        <time>2019-01-02T12:12:41+01:00</time>
      </trkpt>
      <trkpt lat="45.01415" lon="4.67703">
        <ele>659</ele>
        <time>2019-01-02T12:12:48+01:00</time>
      </trkpt>
      <trkpt lat="45.01416" lon="4.67717">
        <ele>661</ele>
        <time>2019-01-02T12:12:56+01:00</time>
      </trkpt>
      <trkpt lat="45.01419" lon="4.6773">
        <ele>661</ele>
        <time>2019-01-02T12:13:04+01:00</time>
      </trkpt>
      <trkpt lat="45.0142" lon="4.67742">
        <ele>663</ele>
        <time>2019-01-02T12:13:11+01:00</time>
      </trkpt>
      <trkpt lat="45.01421" lon="4.67753">
        <ele>663</ele>
        <time>2019-01-02T12:13:17+01:00</time>
      </trkpt>
      <trkpt lat="45.01422" lon="4.67763">
        <ele>664</ele>
        <time>2019-01-02T12:13:24+01:00</time>
      </trkpt>
      <trkpt lat="45.01422" lon="4.67765">
        <ele>664</ele>
        <time>2019-01-02T12:13:25+01:00</time>
      </trkpt>
      <trkpt lat="45.01421" lon="4.67773">
        <ele>665</ele>
        <time>2019-01-02T12:13:32+01:00</time>
      </trkpt>
      <trkpt lat="45.01421" lon="4.67781">
        <ele>665</ele>
        <time>2019-01-02T12:13:38+01:00</time>
      </trkpt>
      <trkpt lat="45.01422" lon="4.67781">
        <ele>665</ele>
        <time>2019-01-02T12:13:49+01:00</time>
      </trkpt>
      <trkpt lat="45.01424" lon="4.6779">
        <ele>664</ele>
        <time>2019-01-02T12:13:56+01:00</time>
      </trkpt>
      <trkpt lat="45.01426" lon="4.67801">
        <ele>664</ele>
        <time>2019-01-02T12:14:02+01:00</time>
      </trkpt>
      <trkpt lat="45.0143" lon="4.67818">
        <ele>664</ele>
        <time>2019-01-02T12:14:11+01:00</time>
      </trkpt>
      <trkpt lat="45.01432" lon="4.67836">
        <ele>664</ele>
        <time>2019-01-02T12:14:20+01:00</time>
      </trkpt>
      <trkpt lat="45.01433" lon="4.67847">
        <ele>664</ele>
        <time>2019-01-02T12:14:28+01:00</time>
      </trkpt>
      <trkpt lat="45.01434" lon="4.67855">
        <ele>664</ele>
        <time>2019-01-02T12:14:33+01:00</time>
      </trkpt>
      <trkpt lat="45.01435" lon="4.67864">
        <ele>664</ele>
        <time>2019-01-02T12:14:38+01:00</time>
      </trkpt>
      <trkpt lat="45.01437" lon="4.67867">
        <ele>663</ele>
        <time>2019-01-02T12:14:40+01:00</time>
      </trkpt>
      <trkpt lat="45.01437" lon="4.67872">
        <ele>663</ele>
        <time>2019-01-02T12:14:43+01:00</time>
      </trkpt>
      <trkpt lat="45.01439" lon="4.67881">
        <ele>663</ele>
        <time>2019-01-02T12:14:47+01:00</time>
      </trkpt>
      <trkpt lat="45.0144" lon="4.67888">
        <ele>663</ele>
        <time>2019-01-02T12:14:50+01:00</time>
      </trkpt>
      <trkpt lat="45.01442" lon="4.67894">
        <ele>662</ele>
        <time>2019-01-02T12:14:53+01:00</time>
      </trkpt>
      <trkpt lat="45.01448" lon="4.67911">
        <ele>660</ele>
        <time>2019-01-02T12:15:02+01:00</time>
      </trkpt>
      <trkpt lat="45.01454" lon="4.67925">
        <ele>658</ele>
        <time>2019-01-02T12:15:09+01:00</time>
      </trkpt>
      <trkpt lat="45.01457" lon="4.67931">
        <ele>656</ele>
        <time>2019-01-02T12:15:13+01:00</time>
      </trkpt>
      <trkpt lat="45.01461" lon="4.67948">
        <ele>654</ele>
        <time>2019-01-02T12:15:22+01:00</time>
      </trkpt>
      <trkpt lat="45.01463" lon="4.6796">
        <ele>653</ele>
        <time>2019-01-02T12:15:30+01:00</time>
      </trkpt>
      <trkpt lat="45.01464" lon="4.67965">
        <ele>652</ele>
        <time>2019-01-02T12:15:43+01:00</time>
      </trkpt>
      <trkpt lat="45.01466" lon="4.67971">
        <ele>651</ele>
        <time>2019-01-02T12:15:52+01:00</time>
      </trkpt>
      <trkpt lat="45.01466" lon="4.67971">
        <ele>651</ele>
        <time>2019-01-02T12:15:53+01:00</time>
      </trkpt>
      <trkpt lat="45.01469" lon="4.67983">
        <ele>650</ele>
        <time>2019-01-02T12:16:03+01:00</time>
      </trkpt>
      <trkpt lat="45.0147" lon="4.67984">
        <ele>650</ele>
        <time>2019-01-02T12:16:11+01:00</time>
      </trkpt>
      <trkpt lat="45.0147" lon="4.67988">
        <ele>650</ele>
        <time>2019-01-02T12:16:19+01:00</time>
      </trkpt>
      <trkpt lat="45.01473" lon="4.6799">
        <ele>649</ele>
        <time>2019-01-02T12:16:27+01:00</time>
      </trkpt>
      <trkpt lat="45.01473" lon="4.6799">
        <ele>649</ele>
        <time>2019-01-02T12:16:29+01:00</time>
      </trkpt>
      <trkpt lat="45.01472" lon="4.67996">
        <ele>649</ele>
        <time>2019-01-02T12:16:34+01:00</time>
      </trkpt>
      <trkpt lat="45.01475" lon="4.6801">
        <ele>647</ele>
        <time>2019-01-02T12:16:42+01:00</time>
      </trkpt>
      <trkpt lat="45.01479" lon="4.6803">
        <ele>646</ele>
        <time>2019-01-02T12:16:53+01:00</time>
      </trkpt>
      <trkpt lat="45.01483" lon="4.68045">
        <ele>644</ele>
        <time>2019-01-02T12:17:02+01:00</time>
      </trkpt>
      <trkpt lat="45.01488" lon="4.68066">
        <ele>643</ele>
        <time>2019-01-02T12:17:13+01:00</time>
      </trkpt>
      <trkpt lat="45.01493" lon="4.68082">
        <ele>641</ele>
        <time>2019-01-02T12:17:22+01:00</time>
      </trkpt>
      <trkpt lat="45.01497" lon="4.6809">
        <ele>640</ele>
        <time>2019-01-02T12:17:30+01:00</time>
      </trkpt>
      <trkpt lat="45.01504" lon="4.68109">
        <ele>638</ele>
        <time>2019-01-02T12:17:41+01:00</time>
      </trkpt>
      <trkpt lat="45.01509" lon="4.68126">
        <ele>635</ele>
        <time>2019-01-02T12:17:51+01:00</time>
      </trkpt>
      <trkpt lat="45.01509" lon="4.68133">
        <ele>635</ele>
        <time>2019-01-02T12:17:54+01:00</time>
      </trkpt>
      <trkpt lat="45.01508" lon="4.68151">
        <ele>634</ele>
        <time>2019-01-02T12:18:04+01:00</time>
      </trkpt>
      <trkpt lat="45.01508" lon="4.68159">
        <ele>634</ele>
        <time>2019-01-02T12:18:08+01:00</time>
      </trkpt>
      <trkpt lat="45.01507" lon="4.68162">
        <ele>634</ele>
        <time>2019-01-02T12:18:10+01:00</time>
      </trkpt>
      <trkpt lat="45.01506" lon="4.68166">
        <ele>634</ele>
        <time>2019-01-02T12:18:12+01:00</time>
      </trkpt>
      <trkpt lat="45.01505" lon="4.6817">
        <ele>634</ele>
        <time>2019-01-02T12:18:14+01:00</time>
      </trkpt>
      <trkpt lat="45.015" lon="4.68186">
        <ele>634</ele>
        <time>2019-01-02T12:18:23+01:00</time>
      </trkpt>
      <trkpt lat="45.01492" lon="4.68205">
        <ele>634</ele>
        <time>2019-01-02T12:18:34+01:00</time>
      </trkpt>
      <trkpt lat="45.01486" lon="4.68221">
        <ele>634</ele>
        <time>2019-01-02T12:18:43+01:00</time>
      </trkpt>
      <trkpt lat="45.01486" lon="4.68225">
        <ele>634</ele>
        <time>2019-01-02T12:18:46+01:00</time>
      </trkpt>
      <trkpt lat="45.01485" lon="4.68234">
        <ele>633</ele>
        <time>2019-01-02T12:18:51+01:00</time>
      </trkpt>
      <trkpt lat="45.01489" lon="4.68248">
        <ele>632</ele>
        <time>2019-01-02T12:18:57+01:00</time>
      </trkpt>
      <trkpt lat="45.01498" lon="4.68268">
        <ele>631</ele>
        <time>2019-01-02T12:19:08+01:00</time>
      </trkpt>
      <trkpt lat="45.01506" lon="4.68279">
        <ele>630</ele>
        <time>2019-01-02T12:19:16+01:00</time>
      </trkpt>
      <trkpt lat="45.01516" lon="4.68289">
        <ele>629</ele>
        <time>2019-01-02T12:19:26+01:00</time>
      </trkpt>
      <trkpt lat="45.01524" lon="4.68302">
        <ele>628</ele>
        <time>2019-01-02T12:19:35+01:00</time>
      </trkpt>
      <trkpt lat="45.01526" lon="4.68305">
        <ele>627</ele>
        <time>2019-01-02T12:19:38+01:00</time>
      </trkpt>
      <trkpt lat="45.0153" lon="4.68319">
        <ele>627</ele>
        <time>2019-01-02T12:19:46+01:00</time>
      </trkpt>
      <trkpt lat="45.01531" lon="4.68326">
        <ele>627</ele>
        <time>2019-01-02T12:19:50+01:00</time>
      </trkpt>
      <trkpt lat="45.01533" lon="4.68336">
        <ele>627</ele>
        <time>2019-01-02T12:19:56+01:00</time>
      </trkpt>
      <trkpt lat="45.01534" lon="4.68352">
        <ele>626</ele>
        <time>2019-01-02T12:20:05+01:00</time>
      </trkpt>
      <trkpt lat="45.01536" lon="4.68369">
        <ele>626</ele>
        <time>2019-01-02T12:20:14+01:00</time>
      </trkpt>
      <trkpt lat="45.01536" lon="4.68385">
        <ele>626</ele>
        <time>2019-01-02T12:20:23+01:00</time>
      </trkpt>
      <trkpt lat="45.01536" lon="4.68395">
        <ele>626</ele>
        <time>2019-01-02T12:20:28+01:00</time>
      </trkpt>
      <trkpt lat="45.01538" lon="4.68402">
        <ele>626</ele>
        <time>2019-01-02T12:20:35+01:00</time>
      </trkpt>
      <trkpt lat="45.01536" lon="4.68402">
        <ele>626</ele>
        <time>2019-01-02T12:20:44+01:00</time>
      </trkpt>
      <trkpt lat="45.01537" lon="4.68398">
        <ele>626</ele>
        <time>2019-01-02T12:20:53+01:00</time>
      </trkpt>
      <trkpt lat="45.01536" lon="4.68397">
        <ele>626</ele>
        <time>2019-01-02T12:21:03+01:00</time>
      </trkpt>
      <trkpt lat="45.01536" lon="4.68399">
        <ele>626</ele>
        <time>2019-01-02T12:21:08+01:00</time>
      </trkpt>
      <trkpt lat="45.01534" lon="4.68399">
        <ele>626</ele>
        <time>2019-01-02T12:21:14+01:00</time>
      </trkpt>
      <trkpt lat="45.01531" lon="4.68398">
        <ele>627</ele>
        <time>2019-01-02T12:21:20+01:00</time>
      </trkpt>
      <trkpt lat="45.01533" lon="4.68401">
        <ele>627</ele>
        <time>2019-01-02T12:21:35+01:00</time>
      </trkpt>
      <trkpt lat="45.01534" lon="4.68399">
        <ele>626</ele>
        <time>2019-01-02T12:21:44+01:00</time>
      </trkpt>
      <trkpt lat="45.01535" lon="4.68399">
        <ele>626</ele>
        <time>2019-01-02T12:21:47+01:00</time>
      </trkpt>
      <trkpt lat="45.01535" lon="4.68399">
        <ele>626</ele>
        <time>2019-01-02T12:21:48+01:00</time>
      </trkpt>
      <trkpt lat="45.01535" lon="4.68398">
        <ele>626</ele>
        <time>2019-01-02T12:21:49+01:00</time>
      </trkpt>
      <trkpt lat="45.01535" lon="4.68398">
        <ele>626</ele>
        <time>2019-01-02T12:21:50+01:00</time>
      </trkpt>
      <trkpt lat="45.01535" lon="4.68398">
        <ele>626</ele>
        <time>2019-01-02T12:21:51+01:00</time>
      </trkpt>
      <trkpt lat="45.01535" lon="4.68398">
        <ele>626</ele>
        <time>2019-01-02T12:21:52+01:00</time>
      </trkpt>
      <trkpt lat="45.01536" lon="4.68398">
        <ele>626</ele>
        <time>2019-01-02T12:21:57+01:00</time>
      </trkpt>
      <trkpt lat="45.01536" lon="4.68398">
        <ele>626</ele>
        <time>2019-01-02T12:22:01+01:00</time>
      </trkpt>
      <trkpt lat="45.01536" lon="4.68398">
        <ele>626</ele>
        <time>2019-01-02T12:22:02+01:00</time>
      </trkpt>
      <trkpt lat="45.01535" lon="4.68402">
        <ele>626</ele>
        <time>2019-01-02T12:22:12+01:00</time>
      </trkpt>
      <trkpt lat="45.01528" lon="4.68417">
        <ele>627</ele>
        <time>2019-01-02T12:22:20+01:00</time>
      </trkpt>
      <trkpt lat="45.01523" lon="4.68432">
        <ele>626</ele>
        <time>2019-01-02T12:22:28+01:00</time>
      </trkpt>
      <trkpt lat="45.01518" lon="4.68445">
        <ele>625</ele>
        <time>2019-01-02T12:22:35+01:00</time>
      </trkpt>
      <trkpt lat="45.01513" lon="4.6846">
        <ele>623</ele>
        <time>2019-01-02T12:22:43+01:00</time>
      </trkpt>
      <trkpt lat="45.01508" lon="4.68474">
        <ele>622</ele>
        <time>2019-01-02T12:22:50+01:00</time>
      </trkpt>
      <trkpt lat="45.01507" lon="4.68476">
        <ele>622</ele>
        <time>2019-01-02T12:22:51+01:00</time>
      </trkpt>
      <trkpt lat="45.01497" lon="4.68498">
        <ele>621</ele>
        <time>2019-01-02T12:23:02+01:00</time>
      </trkpt>
      <trkpt lat="45.0149" lon="4.68519">
        <ele>620</ele>
        <time>2019-01-02T12:23:13+01:00</time>
      </trkpt>
      <trkpt lat="45.01485" lon="4.68537">
        <ele>619</ele>
        <time>2019-01-02T12:23:22+01:00</time>
      </trkpt>
      <trkpt lat="45.01478" lon="4.68556">
        <ele>618</ele>
        <time>2019-01-02T12:23:32+01:00</time>
      </trkpt>
      <trkpt lat="45.01469" lon="4.68573">
        <ele>617</ele>
        <time>2019-01-02T12:23:41+01:00</time>
      </trkpt>
      <trkpt lat="45.01463" lon="4.68595">
        <ele>615</ele>
        <time>2019-01-02T12:23:52+01:00</time>
      </trkpt>
      <trkpt lat="45.0146" lon="4.68615">
        <ele>613</ele>
        <time>2019-01-02T12:24:02+01:00</time>
      </trkpt>
      <trkpt lat="45.01459" lon="4.68623">
        <ele>612</ele>
        <time>2019-01-02T12:24:06+01:00</time>
      </trkpt>
      <trkpt lat="45.01455" lon="4.6865">
        <ele>610</ele>
        <time>2019-01-02T12:24:19+01:00</time>
      </trkpt>
      <trkpt lat="45.01449" lon="4.68675">
        <ele>608</ele>
        <time>2019-01-02T12:24:32+01:00</time>
      </trkpt>
      <trkpt lat="45.01441" lon="4.68692">
        <ele>608</ele>
        <time>2019-01-02T12:24:41+01:00</time>
      </trkpt>
      <trkpt lat="45.01433" lon="4.68707">
        <ele>607</ele>
        <time>2019-01-02T12:24:50+01:00</time>
      </trkpt>
      <trkpt lat="45.01424" lon="4.68723">
        <ele>607</ele>
        <time>2019-01-02T12:24:59+01:00</time>
      </trkpt>
      <trkpt lat="45.01416" lon="4.68742">
        <ele>607</ele>
        <time>2019-01-02T12:25:10+01:00</time>
      </trkpt>
      <trkpt lat="45.01415" lon="4.68743">
        <ele>607</ele>
        <time>2019-01-02T12:25:13+01:00</time>
      </trkpt>
      <trkpt lat="45.01414" lon="4.68746">
        <ele>607</ele>
        <time>2019-01-02T12:25:16+01:00</time>
      </trkpt>
      <trkpt lat="45.01412" lon="4.68753">
        <ele>607</ele>
        <time>2019-01-02T12:25:20+01:00</time>
      </trkpt>
      <trkpt lat="45.01409" lon="4.68767">
        <ele>607</ele>
        <time>2019-01-02T12:25:28+01:00</time>
      </trkpt>
      <trkpt lat="45.01407" lon="4.68774">
        <ele>607</ele>
        <time>2019-01-02T12:25:33+01:00</time>
      </trkpt>
      <trkpt lat="45.01406" lon="4.68796">
        <ele>607</ele>
        <time>2019-01-02T12:25:44+01:00</time>
      </trkpt>
      <trkpt lat="45.01404" lon="4.68811">
        <ele>607</ele>
        <time>2019-01-02T12:25:52+01:00</time>
      </trkpt>
      <trkpt lat="45.01402" lon="4.68825">
        <ele>607</ele>
        <time>2019-01-02T12:26:00+01:00</time>
      </trkpt>
      <trkpt lat="45.014" lon="4.68832">
        <ele>607</ele>
        <time>2019-01-02T12:26:04+01:00</time>
      </trkpt>
      <trkpt lat="45.014" lon="4.68842">
        <ele>607</ele>
        <time>2019-01-02T12:26:10+01:00</time>
      </trkpt>
      <trkpt lat="45.01399" lon="4.68853">
        <ele>606</ele>
        <time>2019-01-02T12:26:18+01:00</time>
      </trkpt>
      <trkpt lat="45.01397" lon="4.68865">
        <ele>606</ele>
        <time>2019-01-02T12:26:26+01:00</time>
      </trkpt>
      <trkpt lat="45.01394" lon="4.68879">
        <ele>605</ele>
        <time>2019-01-02T12:26:35+01:00</time>
      </trkpt>
      <trkpt lat="45.01393" lon="4.68881">
        <ele>605</ele>
        <time>2019-01-02T12:26:37+01:00</time>
      </trkpt>
      <trkpt lat="45.01391" lon="4.68895">
        <ele>605</ele>
        <time>2019-01-02T12:26:44+01:00</time>
      </trkpt>
      <trkpt lat="45.01389" lon="4.68914">
        <ele>604</ele>
        <time>2019-01-02T12:26:54+01:00</time>
      </trkpt>
      <trkpt lat="45.01388" lon="4.68928">
        <ele>603</ele>
        <time>2019-01-02T12:27:02+01:00</time>
      </trkpt>
      <trkpt lat="45.01389" lon="4.68938">
        <ele>602</ele>
        <time>2019-01-02T12:27:10+01:00</time>
      </trkpt>
      <trkpt lat="45.01389" lon="4.68946">
        <ele>602</ele>
        <time>2019-01-02T12:27:18+01:00</time>
      </trkpt>
      <trkpt lat="45.01388" lon="4.6895">
        <ele>601</ele>
        <time>2019-01-02T12:27:24+01:00</time>
      </trkpt>
      <trkpt lat="45.01384" lon="4.68948">
        <ele>602</ele>
        <time>2019-01-02T12:27:30+01:00</time>
      </trkpt>
      <trkpt lat="45.01383" lon="4.68946">
        <ele>602</ele>
        <time>2019-01-02T12:27:38+01:00</time>
      </trkpt>
      <trkpt lat="45.01384" lon="4.68946">
        <ele>602</ele>
        <time>2019-01-02T12:27:52+01:00</time>
      </trkpt>
      <trkpt lat="45.01385" lon="4.68951">
        <ele>601</ele>
        <time>2019-01-02T12:28:07+01:00</time>
      </trkpt>
      <trkpt lat="45.01388" lon="4.68958">
        <ele>601</ele>
        <time>2019-01-02T12:28:13+01:00</time>
      </trkpt>
      <trkpt lat="45.01389" lon="4.68971">
        <ele>600</ele>
        <time>2019-01-02T12:28:21+01:00</time>
      </trkpt>
      <trkpt lat="45.01393" lon="4.68992">
        <ele>598</ele>
        <time>2019-01-02T12:28:33+01:00</time>
      </trkpt>
      <trkpt lat="45.01396" lon="4.69006">
        <ele>598</ele>
        <time>2019-01-02T12:28:42+01:00</time>
      </trkpt>
      <trkpt lat="45.014" lon="4.69023">
        <ele>597</ele>
        <time>2019-01-02T12:28:52+01:00</time>
      </trkpt>
      <trkpt lat="45.01405" lon="4.69036">
        <ele>597</ele>
        <time>2019-01-02T12:29:00+01:00</time>
      </trkpt>
      <trkpt lat="45.01406" lon="4.69039">
        <ele>597</ele>
        <time>2019-01-02T12:29:02+01:00</time>
      </trkpt>
      <trkpt lat="45.01406" lon="4.69041">
        <ele>597</ele>
        <time>2019-01-02T12:29:03+01:00</time>
      </trkpt>
      <trkpt lat="45.01408" lon="4.69042">
        <ele>597</ele>
        <time>2019-01-02T12:29:05+01:00</time>
      </trkpt>
      <trkpt lat="45.01408" lon="4.69042">
        <ele>597</ele>
        <time>2019-01-02T12:29:09+01:00</time>
      </trkpt>
      <trkpt lat="45.01408" lon="4.69042">
        <ele>597</ele>
        <time>2019-01-02T12:29:10+01:00</time>
      </trkpt>
      <trkpt lat="45.01408" lon="4.69043">
        <ele>597</ele>
        <time>2019-01-02T12:29:11+01:00</time>
      </trkpt>
      <trkpt lat="45.01409" lon="4.69043">
        <ele>597</ele>
        <time>2019-01-02T12:29:12+01:00</time>
      </trkpt>
      <trkpt lat="45.01411" lon="4.6905">
        <ele>597</ele>
        <time>2019-01-02T12:29:19+01:00</time>
      </trkpt>
      <trkpt lat="45.01416" lon="4.69057">
        <ele>597</ele>
        <time>2019-01-02T12:29:26+01:00</time>
      </trkpt>
      <trkpt lat="45.01414" lon="4.69055">
        <ele>597</ele>
        <time>2019-01-02T12:29:35+01:00</time>
      </trkpt>
      <trkpt lat="45.01413" lon="4.69056">
        <ele>597</ele>
        <time>2019-01-02T12:29:44+01:00</time>
      </trkpt>
      <trkpt lat="45.01413" lon="4.69056">
        <ele>597</ele>
        <time>2019-01-02T12:29:54+01:00</time>
      </trkpt>
      <trkpt lat="45.01416" lon="4.69053">
        <ele>597</ele>
        <time>2019-01-02T12:30:06+01:00</time>
      </trkpt>
      <trkpt lat="45.01416" lon="4.69054">
        <ele>597</ele>
        <time>2019-01-02T12:53:52+01:00</time>
      </trkpt>
      <trkpt lat="45.01416" lon="4.69054">
        <ele>597</ele>
        <time>2019-01-02T12:54:05+01:00</time>
      </trkpt>
      <trkpt lat="45.01416" lon="4.69054">
        <ele>597</ele>
        <time>2019-01-02T12:54:13+01:00</time>
      </trkpt>
      <trkpt lat="45.01415" lon="4.69054">
        <ele>597</ele>
        <time>2019-01-02T12:54:15+01:00</time>
      </trkpt>
      <trkpt lat="45.01413" lon="4.69052">
        <ele>597</ele>
        <time>2019-01-02T12:54:23+01:00</time>
      </trkpt>
      <trkpt lat="45.01415" lon="4.69055">
        <ele>597</ele>
        <time>2019-01-02T12:54:34+01:00</time>
      </trkpt>
      <trkpt lat="45.01415" lon="4.69055">
        <ele>597</ele>
        <time>2019-01-02T12:54:43+01:00</time>
      </trkpt>
      <trkpt lat="45.01415" lon="4.69054">
        <ele>597</ele>
        <time>2019-01-02T12:54:59+01:00</time>
      </trkpt>
      <trkpt lat="45.01415" lon="4.69058">
        <ele>597</ele>
        <time>2019-01-02T12:55:11+01:00</time>
      </trkpt>
      <trkpt lat="45.01413" lon="4.6906">
        <ele>596</ele>
        <time>2019-01-02T12:55:20+01:00</time>
      </trkpt>
      <trkpt lat="45.01415" lon="4.69057">
        <ele>597</ele>
        <time>2019-01-02T12:55:32+01:00</time>
      </trkpt>
      <trkpt lat="45.01415" lon="4.6906">
        <ele>596</ele>
        <time>2019-01-02T12:55:39+01:00</time>
      </trkpt>
      <trkpt lat="45.01416" lon="4.69068">
        <ele>596</ele>
        <time>2019-01-02T12:55:44+01:00</time>
      </trkpt>
      <trkpt lat="45.01418" lon="4.69072">
        <ele>596</ele>
        <time>2019-01-02T12:55:47+01:00</time>
      </trkpt>
      <trkpt lat="45.01421" lon="4.69072">
        <ele>596</ele>
        <time>2019-01-02T12:55:50+01:00</time>
      </trkpt>
      <trkpt lat="45.01423" lon="4.69073">
        <ele>596</ele>
        <time>2019-01-02T12:55:52+01:00</time>
      </trkpt>
      <trkpt lat="45.01426" lon="4.69075">
        <ele>596</ele>
        <time>2019-01-02T12:55:55+01:00</time>
      </trkpt>
      <trkpt lat="45.01429" lon="4.69076">
        <ele>595</ele>
        <time>2019-01-02T12:55:58+01:00</time>
      </trkpt>
      <trkpt lat="45.01433" lon="4.69083">
        <ele>595</ele>
        <time>2019-01-02T12:56:05+01:00</time>
      </trkpt>
      <trkpt lat="45.01433" lon="4.69083">
        <ele>595</ele>
        <time>2019-01-02T12:56:11+01:00</time>
      </trkpt>
      <trkpt lat="45.0144" lon="4.69091">
        <ele>595</ele>
        <time>2019-01-02T12:56:17+01:00</time>
      </trkpt>
      <trkpt lat="45.01452" lon="4.69102">
        <ele>595</ele>
        <time>2019-01-02T12:56:27+01:00</time>
      </trkpt>
      <trkpt lat="45.01453" lon="4.69103">
        <ele>595</ele>
        <time>2019-01-02T12:56:28+01:00</time>
      </trkpt>
      <trkpt lat="45.01455" lon="4.69105">
        <ele>595</ele>
        <time>2019-01-02T12:56:30+01:00</time>
      </trkpt>
      <trkpt lat="45.01461" lon="4.69111">
        <ele>595</ele>
        <time>2019-01-02T12:56:35+01:00</time>
      </trkpt>
      <trkpt lat="45.01464" lon="4.69113">
        <ele>595</ele>
        <time>2019-01-02T12:56:37+01:00</time>
      </trkpt>
      <trkpt lat="45.01468" lon="4.69117">
        <ele>595</ele>
        <time>2019-01-02T12:56:41+01:00</time>
      </trkpt>
      <trkpt lat="45.01479" lon="4.69127">
        <ele>596</ele>
        <time>2019-01-02T12:56:51+01:00</time>
      </trkpt>
      <trkpt lat="45.01491" lon="4.69135">
        <ele>597</ele>
        <time>2019-01-02T12:57:00+01:00</time>
      </trkpt>
      <trkpt lat="45.015" lon="4.69143">
        <ele>598</ele>
        <time>2019-01-02T12:57:08+01:00</time>
      </trkpt>
      <trkpt lat="45.01504" lon="4.69146">
        <ele>598</ele>
        <time>2019-01-02T12:57:12+01:00</time>
      </trkpt>
      <trkpt lat="45.01517" lon="4.69156">
        <ele>600</ele>
        <time>2019-01-02T12:57:23+01:00</time>
      </trkpt>
      <trkpt lat="45.01527" lon="4.69162">
        <ele>601</ele>
        <time>2019-01-02T12:57:31+01:00</time>
      </trkpt>
      <trkpt lat="45.01535" lon="4.69163">
        <ele>601</ele>
        <time>2019-01-02T12:57:40+01:00</time>
      </trkpt>
      <trkpt lat="45.01544" lon="4.69162">
        <ele>601</ele>
        <time>2019-01-02T12:57:49+01:00</time>
      </trkpt>
      <trkpt lat="45.0156" lon="4.69163">
        <ele>602</ele>
        <time>2019-01-02T12:57:59+01:00</time>
      </trkpt>
      <trkpt lat="45.01572" lon="4.69165">
        <ele>603</ele>
        <time>2019-01-02T12:58:07+01:00</time>
      </trkpt>
      <trkpt lat="45.01582" lon="4.69167">
        <ele>604</ele>
        <time>2019-01-02T12:58:16+01:00</time>
      </trkpt>
      <trkpt lat="45.01592" lon="4.69168">
        <ele>604</ele>
        <time>2019-01-02T12:58:24+01:00</time>
      </trkpt>
      <trkpt lat="45.016" lon="4.69169">
        <ele>604</ele>
        <time>2019-01-02T12:58:31+01:00</time>
      </trkpt>
      <trkpt lat="45.01613" lon="4.69172">
        <ele>605</ele>
        <time>2019-01-02T12:58:41+01:00</time>
      </trkpt>
      <trkpt lat="45.0162" lon="4.69174">
        <ele>606</ele>
        <time>2019-01-02T12:58:47+01:00</time>
      </trkpt>
      <trkpt lat="45.01632" lon="4.69177">
        <ele>606</ele>
        <time>2019-01-02T12:58:58+01:00</time>
      </trkpt>
      <trkpt lat="45.01645" lon="4.69181">
        <ele>607</ele>
        <time>2019-01-02T12:59:08+01:00</time>
      </trkpt>
      <trkpt lat="45.01655" lon="4.69186">
        <ele>608</ele>
        <time>2019-01-02T12:59:17+01:00</time>
      </trkpt>
      <trkpt lat="45.01662" lon="4.6919">
        <ele>609</ele>
        <time>2019-01-02T12:59:23+01:00</time>
      </trkpt>
      <trkpt lat="45.01662" lon="4.69191">
        <ele>610</ele>
        <time>2019-01-02T12:59:24+01:00</time>
      </trkpt>
      <trkpt lat="45.01672" lon="4.69199">
        <ele>610</ele>
        <time>2019-01-02T12:59:32+01:00</time>
      </trkpt>
      <trkpt lat="45.01679" lon="4.69208">
        <ele>611</ele>
        <time>2019-01-02T12:59:39+01:00</time>
      </trkpt>
      <trkpt lat="45.01686" lon="4.69218">
        <ele>612</ele>
        <time>2019-01-02T12:59:47+01:00</time>
      </trkpt>
      <trkpt lat="45.01694" lon="4.69228">
        <ele>612</ele>
        <time>2019-01-02T12:59:56+01:00</time>
      </trkpt>
      <trkpt lat="45.01699" lon="4.69233">
        <ele>612</ele>
        <time>2019-01-02T13:00:01+01:00</time>
      </trkpt>
      <trkpt lat="45.01702" lon="4.69236">
        <ele>612</ele>
        <time>2019-01-02T13:00:04+01:00</time>
      </trkpt>
      <trkpt lat="45.01708" lon="4.69246">
        <ele>613</ele>
        <time>2019-01-02T13:00:13+01:00</time>
      </trkpt>
      <trkpt lat="45.01715" lon="4.69254">
        <ele>613</ele>
        <time>2019-01-02T13:00:20+01:00</time>
      </trkpt>
      <trkpt lat="45.01719" lon="4.6926">
        <ele>613</ele>
        <time>2019-01-02T13:00:26+01:00</time>
      </trkpt>
      <trkpt lat="45.01723" lon="4.69272">
        <ele>613</ele>
        <time>2019-01-02T13:00:33+01:00</time>
      </trkpt>
      <trkpt lat="45.01728" lon="4.6928">
        <ele>613</ele>
        <time>2019-01-02T13:00:40+01:00</time>
      </trkpt>
      <trkpt lat="45.01731" lon="4.6929">
        <ele>613</ele>
        <time>2019-01-02T13:00:47+01:00</time>
      </trkpt>
      <trkpt lat="45.01733" lon="4.69293">
        <ele>613</ele>
        <time>2019-01-02T13:00:49+01:00</time>
      </trkpt>
      <trkpt lat="45.01736" lon="4.69297">
        <ele>613</ele>
        <time>2019-01-02T13:00:52+01:00</time>
      </trkpt>
      <trkpt lat="45.01743" lon="4.69309">
        <ele>613</ele>
        <time>2019-01-02T13:01:00+01:00</time>
      </trkpt>
      <trkpt lat="45.01747" lon="4.69317">
        <ele>614</ele>
        <time>2019-01-02T13:01:06+01:00</time>
      </trkpt>
      <trkpt lat="45.01749" lon="4.69326">
        <ele>614</ele>
        <time>2019-01-02T13:01:13+01:00</time>
      </trkpt>
      <trkpt lat="45.01753" lon="4.69342">
        <ele>614</ele>
        <time>2019-01-02T13:01:21+01:00</time>
      </trkpt>
      <trkpt lat="45.01757" lon="4.69359">
        <ele>613</ele>
        <time>2019-01-02T13:01:30+01:00</time>
      </trkpt>
      <trkpt lat="45.01761" lon="4.69373">
        <ele>613</ele>
        <time>2019-01-02T13:01:39+01:00</time>
      </trkpt>
      <trkpt lat="45.01763" lon="4.69376">
        <ele>613</ele>
        <time>2019-01-02T13:01:41+01:00</time>
      </trkpt>
      <trkpt lat="45.01769" lon="4.6939">
        <ele>612</ele>
        <time>2019-01-02T13:01:49+01:00</time>
      </trkpt>
      <trkpt lat="45.01775" lon="4.694">
        <ele>611</ele>
        <time>2019-01-02T13:01:56+01:00</time>
      </trkpt>
      <trkpt lat="45.01777" lon="4.69407">
        <ele>611</ele>
        <time>2019-01-02T13:02:00+01:00</time>
      </trkpt>
      <trkpt lat="45.01785" lon="4.69426">
        <ele>611</ele>
        <time>2019-01-02T13:02:11+01:00</time>
      </trkpt>
      <trkpt lat="45.01787" lon="4.69436">
        <ele>611</ele>
        <time>2019-01-02T13:02:16+01:00</time>
      </trkpt>
      <trkpt lat="45.01792" lon="4.69451">
        <ele>612</ele>
        <time>2019-01-02T13:02:24+01:00</time>
      </trkpt>
      <trkpt lat="45.01797" lon="4.6947">
        <ele>612</ele>
        <time>2019-01-02T13:02:33+01:00</time>
      </trkpt>
      <trkpt lat="45.01803" lon="4.69486">
        <ele>613</ele>
        <time>2019-01-02T13:02:43+01:00</time>
      </trkpt>
      <trkpt lat="45.01805" lon="4.69488">
        <ele>613</ele>
        <time>2019-01-02T13:02:45+01:00</time>
      </trkpt>
      <trkpt lat="45.01811" lon="4.69497">
        <ele>613</ele>
        <time>2019-01-02T13:02:52+01:00</time>
      </trkpt>
      <trkpt lat="45.01817" lon="4.69507">
        <ele>613</ele>
        <time>2019-01-02T13:02:58+01:00</time>
      </trkpt>
      <trkpt lat="45.01819" lon="4.69515">
        <ele>613</ele>
        <time>2019-01-02T13:03:04+01:00</time>
      </trkpt>
      <trkpt lat="45.01826" lon="4.6953">
        <ele>613</ele>
        <time>2019-01-02T13:03:13+01:00</time>
      </trkpt>
      <trkpt lat="45.01827" lon="4.69538">
        <ele>613</ele>
        <time>2019-01-02T13:03:18+01:00</time>
      </trkpt>
      <trkpt lat="45.01831" lon="4.69547">
        <ele>613</ele>
        <time>2019-01-02T13:03:24+01:00</time>
      </trkpt>
      <trkpt lat="45.01841" lon="4.69559">
        <ele>612</ele>
        <time>2019-01-02T13:03:34+01:00</time>
      </trkpt>
      <trkpt lat="45.01846" lon="4.69569">
        <ele>612</ele>
        <time>2019-01-02T13:03:42+01:00</time>
      </trkpt>
      <trkpt lat="45.01858" lon="4.69581">
        <ele>612</ele>
        <time>2019-01-02T13:03:51+01:00</time>
      </trkpt>
      <trkpt lat="45.0186" lon="4.69584">
        <ele>612</ele>
        <time>2019-01-02T13:03:53+01:00</time>
      </trkpt>
      <trkpt lat="45.01873" lon="4.69595">
        <ele>611</ele>
        <time>2019-01-02T13:04:02+01:00</time>
      </trkpt>
      <trkpt lat="45.01882" lon="4.69604">
        <ele>611</ele>
        <time>2019-01-02T13:04:10+01:00</time>
      </trkpt>
      <trkpt lat="45.01893" lon="4.69618">
        <ele>610</ele>
        <time>2019-01-02T13:04:20+01:00</time>
      </trkpt>
      <trkpt lat="45.01895" lon="4.69623">
        <ele>610</ele>
        <time>2019-01-02T13:04:23+01:00</time>
      </trkpt>
      <trkpt lat="45.01905" lon="4.69632">
        <ele>610</ele>
        <time>2019-01-02T13:04:32+01:00</time>
      </trkpt>
      <trkpt lat="45.01912" lon="4.6964">
        <ele>610</ele>
        <time>2019-01-02T13:04:39+01:00</time>
      </trkpt>
      <trkpt lat="45.01924" lon="4.69647">
        <ele>610</ele>
        <time>2019-01-02T13:04:49+01:00</time>
      </trkpt>
      <trkpt lat="45.01932" lon="4.69653">
        <ele>610</ele>
        <time>2019-01-02T13:04:56+01:00</time>
      </trkpt>
      <trkpt lat="45.01935" lon="4.69654">
        <ele>611</ele>
        <time>2019-01-02T13:04:58+01:00</time>
      </trkpt>
      <trkpt lat="45.01948" lon="4.69661">
        <ele>611</ele>
        <time>2019-01-02T13:05:08+01:00</time>
      </trkpt>
      <trkpt lat="45.01962" lon="4.69667">
        <ele>611</ele>
        <time>2019-01-02T13:05:20+01:00</time>
      </trkpt>
      <trkpt lat="45.01975" lon="4.69672">
        <ele>611</ele>
        <time>2019-01-02T13:05:30+01:00</time>
      </trkpt>
      <trkpt lat="45.01986" lon="4.69678">
        <ele>611</ele>
        <time>2019-01-02T13:05:38+01:00</time>
      </trkpt>
      <trkpt lat="45.01991" lon="4.69682">
        <ele>612</ele>
        <time>2019-01-02T13:05:43+01:00</time>
      </trkpt>
      <trkpt lat="45.02004" lon="4.69688">
        <ele>612</ele>
        <time>2019-01-02T13:05:53+01:00</time>
      </trkpt>
      <trkpt lat="45.02009" lon="4.69693">
        <ele>612</ele>
        <time>2019-01-02T13:05:59+01:00</time>
      </trkpt>
      <trkpt lat="45.02023" lon="4.69702">
        <ele>612</ele>
        <time>2019-01-02T13:06:10+01:00</time>
      </trkpt>
      <trkpt lat="45.02036" lon="4.69709">
        <ele>612</ele>
        <time>2019-01-02T13:06:21+01:00</time>
      </trkpt>
      <trkpt lat="45.02052" lon="4.69717">
        <ele>612</ele>
        <time>2019-01-02T13:06:33+01:00</time>
      </trkpt>
      <trkpt lat="45.02063" lon="4.69723">
        <ele>612</ele>
        <time>2019-01-02T13:06:42+01:00</time>
      </trkpt>
      <trkpt lat="45.02073" lon="4.69732">
        <ele>612</ele>
        <time>2019-01-02T13:06:51+01:00</time>
      </trkpt>
      <trkpt lat="45.02084" lon="4.6974">
        <ele>612</ele>
        <time>2019-01-02T13:07:00+01:00</time>
      </trkpt>
      <trkpt lat="45.02089" lon="4.69742">
        <ele>612</ele>
        <time>2019-01-02T13:07:08+01:00</time>
      </trkpt>
      <trkpt lat="45.02089" lon="4.69742">
        <ele>612</ele>
        <time>2019-01-02T13:07:13+01:00</time>
      </trkpt>
      <trkpt lat="45.02089" lon="4.69744">
        <ele>612</ele>
        <time>2019-01-02T13:07:19+01:00</time>
      </trkpt>
      <trkpt lat="45.02089" lon="4.69742">
        <ele>612</ele>
        <time>2019-01-02T13:07:24+01:00</time>
      </trkpt>
      <trkpt lat="45.02089" lon="4.69742">
        <ele>612</ele>
        <time>2019-01-02T13:07:25+01:00</time>
      </trkpt>
      <trkpt lat="45.02086" lon="4.69744">
        <ele>612</ele>
        <time>2019-01-02T13:07:36+01:00</time>
      </trkpt>
      <trkpt lat="45.02087" lon="4.69744">
        <ele>612</ele>
        <time>2019-01-02T13:07:50+01:00</time>
      </trkpt>
      <trkpt lat="45.02089" lon="4.69738">
        <ele>611</ele>
        <time>2019-01-02T13:08:05+01:00</time>
      </trkpt>
      <trkpt lat="45.02089" lon="4.69741">
        <ele>611</ele>
        <time>2019-01-02T13:08:17+01:00</time>
      </trkpt>
      <trkpt lat="45.0209" lon="4.69746">
        <ele>612</ele>
        <time>2019-01-02T13:08:22+01:00</time>
      </trkpt>
      <trkpt lat="45.02091" lon="4.69749">
        <ele>612</ele>
        <time>2019-01-02T13:08:31+01:00</time>
      </trkpt>
      <trkpt lat="45.02091" lon="4.69751">
        <ele>612</ele>
        <time>2019-01-02T13:08:38+01:00</time>
      </trkpt>
      <trkpt lat="45.02091" lon="4.69754">
        <ele>611</ele>
        <time>2019-01-02T13:08:40+01:00</time>
      </trkpt>
      <trkpt lat="45.02089" lon="4.69767">
        <ele>611</ele>
        <time>2019-01-02T13:08:48+01:00</time>
      </trkpt>
      <trkpt lat="45.0209" lon="4.69768">
        <ele>611</ele>
        <time>2019-01-02T13:08:49+01:00</time>
      </trkpt>
      <trkpt lat="45.02089" lon="4.69782">
        <ele>610</ele>
        <time>2019-01-02T13:08:58+01:00</time>
      </trkpt>
      <trkpt lat="45.02088" lon="4.698">
        <ele>610</ele>
        <time>2019-01-02T13:09:07+01:00</time>
      </trkpt>
      <trkpt lat="45.02087" lon="4.6982">
        <ele>609</ele>
        <time>2019-01-02T13:09:17+01:00</time>
      </trkpt>
      <trkpt lat="45.02088" lon="4.69839">
        <ele>608</ele>
        <time>2019-01-02T13:09:26+01:00</time>
      </trkpt>
      <trkpt lat="45.02089" lon="4.69854">
        <ele>608</ele>
        <time>2019-01-02T13:09:34+01:00</time>
      </trkpt>
      <trkpt lat="45.02091" lon="4.6987">
        <ele>607</ele>
        <time>2019-01-02T13:09:43+01:00</time>
      </trkpt>
      <trkpt lat="45.02092" lon="4.69875">
        <ele>607</ele>
        <time>2019-01-02T13:09:46+01:00</time>
      </trkpt>
      <trkpt lat="45.02092" lon="4.69877">
        <ele>607</ele>
        <time>2019-01-02T13:09:47+01:00</time>
      </trkpt>
      <trkpt lat="45.02093" lon="4.69887">
        <ele>606</ele>
        <time>2019-01-02T13:09:53+01:00</time>
      </trkpt>
      <trkpt lat="45.02095" lon="4.69893">
        <ele>606</ele>
        <time>2019-01-02T13:09:57+01:00</time>
      </trkpt>
      <trkpt lat="45.021" lon="4.69906">
        <ele>605</ele>
        <time>2019-01-02T13:10:06+01:00</time>
      </trkpt>
      <trkpt lat="45.02102" lon="4.69911">
        <ele>605</ele>
        <time>2019-01-02T13:10:10+01:00</time>
      </trkpt>
      <trkpt lat="45.02106" lon="4.69932">
        <ele>603</ele>
        <time>2019-01-02T13:10:21+01:00</time>
      </trkpt>
      <trkpt lat="45.02106" lon="4.69938">
        <ele>603</ele>
        <time>2019-01-02T13:10:24+01:00</time>
      </trkpt>
      <trkpt lat="45.02106" lon="4.69956">
        <ele>601</ele>
        <time>2019-01-02T13:10:32+01:00</time>
      </trkpt>
      <trkpt lat="45.02103" lon="4.69974">
        <ele>599</ele>
        <time>2019-01-02T13:10:40+01:00</time>
      </trkpt>
      <trkpt lat="45.02103" lon="4.69985">
        <ele>598</ele>
        <time>2019-01-02T13:10:46+01:00</time>
      </trkpt>
      <trkpt lat="45.02103" lon="4.69991">
        <ele>598</ele>
        <time>2019-01-02T13:10:49+01:00</time>
      </trkpt>
      <trkpt lat="45.02104" lon="4.69999">
        <ele>597</ele>
        <time>2019-01-02T13:10:53+01:00</time>
      </trkpt>
      <trkpt lat="45.02105" lon="4.70002">
        <ele>597</ele>
        <time>2019-01-02T13:10:55+01:00</time>
      </trkpt>
      <trkpt lat="45.02107" lon="4.70014">
        <ele>596</ele>
        <time>2019-01-02T13:11:02+01:00</time>
      </trkpt>
      <trkpt lat="45.02113" lon="4.70027">
        <ele>594</ele>
        <time>2019-01-02T13:11:11+01:00</time>
      </trkpt>
      <trkpt lat="45.02115" lon="4.70045">
        <ele>593</ele>
        <time>2019-01-02T13:11:20+01:00</time>
      </trkpt>
      <trkpt lat="45.02114" lon="4.70065">
        <ele>591</ele>
        <time>2019-01-02T13:11:29+01:00</time>
      </trkpt>
      <trkpt lat="45.02113" lon="4.70087">
        <ele>590</ele>
        <time>2019-01-02T13:11:39+01:00</time>
      </trkpt>
      <trkpt lat="45.02111" lon="4.70094">
        <ele>589</ele>
        <time>2019-01-02T13:11:42+01:00</time>
      </trkpt>
      <trkpt lat="45.02109" lon="4.70114">
        <ele>589</ele>
        <time>2019-01-02T13:11:51+01:00</time>
      </trkpt>
      <trkpt lat="45.02108" lon="4.70133">
        <ele>588</ele>
        <time>2019-01-02T13:12:01+01:00</time>
      </trkpt>
      <trkpt lat="45.02107" lon="4.70141">
        <ele>587</ele>
        <time>2019-01-02T13:12:05+01:00</time>
      </trkpt>
      <trkpt lat="45.02107" lon="4.70151">
        <ele>587</ele>
        <time>2019-01-02T13:12:10+01:00</time>
      </trkpt>
      <trkpt lat="45.02107" lon="4.70167">
        <ele>586</ele>
        <time>2019-01-02T13:12:19+01:00</time>
      </trkpt>
      <trkpt lat="45.02103" lon="4.7017">
        <ele>586</ele>
        <time>2019-01-02T13:12:24+01:00</time>
      </trkpt>
      <trkpt lat="45.02102" lon="4.70169">
        <ele>586</ele>
        <time>2019-01-02T13:12:25+01:00</time>
      </trkpt>
      <trkpt lat="45.02098" lon="4.70168">
        <ele>586</ele>
        <time>2019-01-02T13:12:28+01:00</time>
      </trkpt>
      <trkpt lat="45.02087" lon="4.70167">
        <ele>585</ele>
        <time>2019-01-02T13:12:36+01:00</time>
      </trkpt>
      <trkpt lat="45.02077" lon="4.70161">
        <ele>584</ele>
        <time>2019-01-02T13:12:45+01:00</time>
      </trkpt>
      <trkpt lat="45.02075" lon="4.70159">
        <ele>584</ele>
        <time>2019-01-02T13:12:47+01:00</time>
      </trkpt>
      <trkpt lat="45.0207" lon="4.70153">
        <ele>583</ele>
        <time>2019-01-02T13:12:56+01:00</time>
      </trkpt>
      <trkpt lat="45.02072" lon="4.70152">
        <ele>583</ele>
        <time>2019-01-02T13:13:06+01:00</time>
      </trkpt>
      <trkpt lat="45.02072" lon="4.70153">
        <ele>583</ele>
        <time>2019-01-02T13:13:18+01:00</time>
      </trkpt>
      <trkpt lat="45.0207" lon="4.70155">
        <ele>583</ele>
        <time>2019-01-02T13:13:30+01:00</time>
      </trkpt>
      <trkpt lat="45.0207" lon="4.70154">
        <ele>583</ele>
        <time>2019-01-02T13:13:42+01:00</time>
      </trkpt>
      <trkpt lat="45.02069" lon="4.70159">
        <ele>582</ele>
        <time>2019-01-02T13:13:53+01:00</time>
      </trkpt>
      <trkpt lat="45.0207" lon="4.7016">
        <ele>583</ele>
        <time>2019-01-02T13:13:54+01:00</time>
      </trkpt>
      <trkpt lat="45.02077" lon="4.70159">
        <ele>584</ele>
        <time>2019-01-02T13:14:01+01:00</time>
      </trkpt>
      <trkpt lat="45.02077" lon="4.70153">
        <ele>584</ele>
        <time>2019-01-02T13:14:04+01:00</time>
      </trkpt>
      <trkpt lat="45.02075" lon="4.70141">
        <ele>584</ele>
        <time>2019-01-02T13:14:11+01:00</time>
      </trkpt>
      <trkpt lat="45.0207" lon="4.70127">
        <ele>584</ele>
        <time>2019-01-02T13:14:19+01:00</time>
      </trkpt>
      <trkpt lat="45.02066" lon="4.70119">
        <ele>584</ele>
        <time>2019-01-02T13:14:24+01:00</time>
      </trkpt>
      <trkpt lat="45.02062" lon="4.7011">
        <ele>583</ele>
        <time>2019-01-02T13:14:30+01:00</time>
      </trkpt>
      <trkpt lat="45.02059" lon="4.70101">
        <ele>583</ele>
        <time>2019-01-02T13:14:35+01:00</time>
      </trkpt>
      <trkpt lat="45.02056" lon="4.70095">
        <ele>582</ele>
        <time>2019-01-02T13:14:40+01:00</time>
      </trkpt>
      <trkpt lat="45.02055" lon="4.70089">
        <ele>582</ele>
        <time>2019-01-02T13:14:47+01:00</time>
      </trkpt>
      <trkpt lat="45.02055" lon="4.70088">
        <ele>582</ele>
        <time>2019-01-02T13:14:48+01:00</time>
      </trkpt>
      <trkpt lat="45.02052" lon="4.70073">
        <ele>583</ele>
        <time>2019-01-02T13:14:57+01:00</time>
      </trkpt>
      <trkpt lat="45.02052" lon="4.70057">
        <ele>585</ele>
        <time>2019-01-02T13:15:06+01:00</time>
      </trkpt>
      <trkpt lat="45.02052" lon="4.70041">
        <ele>586</ele>
        <time>2019-01-02T13:15:15+01:00</time>
      </trkpt>
      <trkpt lat="45.0205" lon="4.70025">
        <ele>588</ele>
        <time>2019-01-02T13:15:24+01:00</time>
      </trkpt>
      <trkpt lat="45.0205" lon="4.70022">
        <ele>588</ele>
        <time>2019-01-02T13:15:26+01:00</time>
      </trkpt>
      <trkpt lat="45.02046" lon="4.70012">
        <ele>589</ele>
        <time>2019-01-02T13:15:32+01:00</time>
      </trkpt>
      <trkpt lat="45.02046" lon="4.70008">
        <ele>589</ele>
        <time>2019-01-02T13:15:35+01:00</time>
      </trkpt>
      <trkpt lat="45.02041" lon="4.69995">
        <ele>590</ele>
        <time>2019-01-02T13:15:43+01:00</time>
      </trkpt>
      <trkpt lat="45.02036" lon="4.69992">
        <ele>589</ele>
        <time>2019-01-02T13:15:48+01:00</time>
      </trkpt>
      <trkpt lat="45.02026" lon="4.69982">
        <ele>589</ele>
        <time>2019-01-02T13:15:58+01:00</time>
      </trkpt>
      <trkpt lat="45.02023" lon="4.69979">
        <ele>589</ele>
        <time>2019-01-02T13:16:02+01:00</time>
      </trkpt>
      <trkpt lat="45.02016" lon="4.6997">
        <ele>589</ele>
        <time>2019-01-02T13:16:11+01:00</time>
      </trkpt>
      <trkpt lat="45.02011" lon="4.69965">
        <ele>589</ele>
        <time>2019-01-02T13:16:19+01:00</time>
      </trkpt>
      <trkpt lat="45.02004" lon="4.69959">
        <ele>589</ele>
        <time>2019-01-02T13:16:26+01:00</time>
      </trkpt>
      <trkpt lat="45.01997" lon="4.69951">
        <ele>589</ele>
        <time>2019-01-02T13:16:34+01:00</time>
      </trkpt>
      <trkpt lat="45.0199" lon="4.69942">
        <ele>589</ele>
        <time>2019-01-02T13:16:43+01:00</time>
      </trkpt>
      <trkpt lat="45.01989" lon="4.6994">
        <ele>589</ele>
        <time>2019-01-02T13:16:44+01:00</time>
      </trkpt>
      <trkpt lat="45.01979" lon="4.69926">
        <ele>590</ele>
        <time>2019-01-02T13:16:54+01:00</time>
      </trkpt>
      <trkpt lat="45.01969" lon="4.69918">
        <ele>589</ele>
        <time>2019-01-02T13:17:03+01:00</time>
      </trkpt>
      <trkpt lat="45.01959" lon="4.69911">
        <ele>588</ele>
        <time>2019-01-02T13:17:12+01:00</time>
      </trkpt>
      <trkpt lat="45.01948" lon="4.69906">
        <ele>587</ele>
        <time>2019-01-02T13:17:21+01:00</time>
      </trkpt>
      <trkpt lat="45.01936" lon="4.69901">
        <ele>585</ele>
        <time>2019-01-02T13:17:30+01:00</time>
      </trkpt>
      <trkpt lat="45.01929" lon="4.69896">
        <ele>584</ele>
        <time>2019-01-02T13:17:36+01:00</time>
      </trkpt>
      <trkpt lat="45.01924" lon="4.69895">
        <ele>583</ele>
        <time>2019-01-02T13:17:43+01:00</time>
      </trkpt>
      <trkpt lat="45.01913" lon="4.69889">
        <ele>582</ele>
        <time>2019-01-02T13:17:52+01:00</time>
      </trkpt>
      <trkpt lat="45.01905" lon="4.69884">
        <ele>581</ele>
        <time>2019-01-02T13:18:00+01:00</time>
      </trkpt>
      <trkpt lat="45.01897" lon="4.69875">
        <ele>580</ele>
        <time>2019-01-02T13:18:08+01:00</time>
      </trkpt>
      <trkpt lat="45.01893" lon="4.69863">
        <ele>580</ele>
        <time>2019-01-02T13:18:17+01:00</time>
      </trkpt>
      <trkpt lat="45.01889" lon="4.69856">
        <ele>581</ele>
        <time>2019-01-02T13:18:25+01:00</time>
      </trkpt>
      <trkpt lat="45.01889" lon="4.69854">
        <ele>581</ele>
        <time>2019-01-02T13:18:27+01:00</time>
      </trkpt>
      <trkpt lat="45.01887" lon="4.69849">
        <ele>581</ele>
        <time>2019-01-02T13:18:30+01:00</time>
      </trkpt>
      <trkpt lat="45.01882" lon="4.69833">
        <ele>582</ele>
        <time>2019-01-02T13:18:39+01:00</time>
      </trkpt>
      <trkpt lat="45.01874" lon="4.69821">
        <ele>583</ele>
        <time>2019-01-02T13:18:47+01:00</time>
      </trkpt>
      <trkpt lat="45.01864" lon="4.69816">
        <ele>581</ele>
        <time>2019-01-02T13:18:54+01:00</time>
      </trkpt>
      <trkpt lat="45.01855" lon="4.69808">
        <ele>581</ele>
        <time>2019-01-02T13:19:02+01:00</time>
      </trkpt>
      <trkpt lat="45.01844" lon="4.69803">
        <ele>580</ele>
        <time>2019-01-02T13:19:10+01:00</time>
      </trkpt>
      <trkpt lat="45.01834" lon="4.69802">
        <ele>578</ele>
        <time>2019-01-02T13:19:19+01:00</time>
      </trkpt>
      <trkpt lat="45.01826" lon="4.69801">
        <ele>577</ele>
        <time>2019-01-02T13:19:27+01:00</time>
      </trkpt>
      <trkpt lat="45.01819" lon="4.69799">
        <ele>577</ele>
        <time>2019-01-02T13:19:34+01:00</time>
      </trkpt>
      <trkpt lat="45.01812" lon="4.69795">
        <ele>577</ele>
        <time>2019-01-02T13:19:43+01:00</time>
      </trkpt>
      <trkpt lat="45.01804" lon="4.69789">
        <ele>577</ele>
        <time>2019-01-02T13:19:51+01:00</time>
      </trkpt>
      <trkpt lat="45.01795" lon="4.69784">
        <ele>577</ele>
        <time>2019-01-02T13:19:58+01:00</time>
      </trkpt>
      <trkpt lat="45.01782" lon="4.69778">
        <ele>576</ele>
        <time>2019-01-02T13:20:07+01:00</time>
      </trkpt>
      <trkpt lat="45.01773" lon="4.69782">
        <ele>573</ele>
        <time>2019-01-02T13:20:14+01:00</time>
      </trkpt>
      <trkpt lat="45.01772" lon="4.69793">
        <ele>572</ele>
        <time>2019-01-02T13:20:20+01:00</time>
      </trkpt>
      <trkpt lat="45.01774" lon="4.69803">
        <ele>570</ele>
        <time>2019-01-02T13:20:26+01:00</time>
      </trkpt>
      <trkpt lat="45.0178" lon="4.69818">
        <ele>568</ele>
        <time>2019-01-02T13:20:37+01:00</time>
      </trkpt>
      <trkpt lat="45.01786" lon="4.69833">
        <ele>566</ele>
        <time>2019-01-02T13:20:48+01:00</time>
      </trkpt>
      <trkpt lat="45.01793" lon="4.69849">
        <ele>564</ele>
        <time>2019-01-02T13:20:59+01:00</time>
      </trkpt>
      <trkpt lat="45.01797" lon="4.69858">
        <ele>563</ele>
        <time>2019-01-02T13:21:05+01:00</time>
      </trkpt>
      <trkpt lat="45.01803" lon="4.69871">
        <ele>562</ele>
        <time>2019-01-02T13:21:14+01:00</time>
      </trkpt>
      <trkpt lat="45.01809" lon="4.69887">
        <ele>560</ele>
        <time>2019-01-02T13:21:25+01:00</time>
      </trkpt>
      <trkpt lat="45.01812" lon="4.69894">
        <ele>559</ele>
        <time>2019-01-02T13:21:30+01:00</time>
      </trkpt>
      <trkpt lat="45.01813" lon="4.699">
        <ele>558</ele>
        <time>2019-01-02T13:21:33+01:00</time>
      </trkpt>
      <trkpt lat="45.01811" lon="4.69911">
        <ele>556</ele>
        <time>2019-01-02T13:21:41+01:00</time>
      </trkpt>
      <trkpt lat="45.01806" lon="4.69929">
        <ele>552</ele>
        <time>2019-01-02T13:21:51+01:00</time>
      </trkpt>
      <trkpt lat="45.01803" lon="4.69939">
        <ele>551</ele>
        <time>2019-01-02T13:21:58+01:00</time>
      </trkpt>
      <trkpt lat="45.01797" lon="4.69957">
        <ele>547</ele>
        <time>2019-01-02T13:22:07+01:00</time>
      </trkpt>
      <trkpt lat="45.01796" lon="4.69964">
        <ele>546</ele>
        <time>2019-01-02T13:22:11+01:00</time>
      </trkpt>
      <trkpt lat="45.018" lon="4.69982">
        <ele>544</ele>
        <time>2019-01-02T13:22:21+01:00</time>
      </trkpt>
      <trkpt lat="45.01801" lon="4.69983">
        <ele>544</ele>
        <time>2019-01-02T13:22:22+01:00</time>
      </trkpt>
      <trkpt lat="45.01809" lon="4.69999">
        <ele>542</ele>
        <time>2019-01-02T13:22:33+01:00</time>
      </trkpt>
      <trkpt lat="45.01812" lon="4.70004">
        <ele>542</ele>
        <time>2019-01-02T13:22:36+01:00</time>
      </trkpt>
      <trkpt lat="45.01817" lon="4.70016">
        <ele>541</ele>
        <time>2019-01-02T13:22:45+01:00</time>
      </trkpt>
      <trkpt lat="45.0182" lon="4.70028">
        <ele>539</ele>
        <time>2019-01-02T13:22:53+01:00</time>
      </trkpt>
      <trkpt lat="45.0182" lon="4.70047">
        <ele>537</ele>
        <time>2019-01-02T13:23:02+01:00</time>
      </trkpt>
      <trkpt lat="45.01821" lon="4.70061">
        <ele>535</ele>
        <time>2019-01-02T13:23:09+01:00</time>
      </trkpt>
      <trkpt lat="45.01821" lon="4.70081">
        <ele>532</ele>
        <time>2019-01-02T13:23:19+01:00</time>
      </trkpt>
      <trkpt lat="45.0182" lon="4.70095">
        <ele>531</ele>
        <time>2019-01-02T13:23:28+01:00</time>
      </trkpt>
      <trkpt lat="45.01814" lon="4.70097">
        <ele>530</ele>
        <time>2019-01-02T13:23:34+01:00</time>
      </trkpt>
      <trkpt lat="45.01806" lon="4.70093">
        <ele>529</ele>
        <time>2019-01-02T13:23:42+01:00</time>
      </trkpt>
      <trkpt lat="45.018" lon="4.70084">
        <ele>529</ele>
        <time>2019-01-02T13:23:50+01:00</time>
      </trkpt>
      <trkpt lat="45.01789" lon="4.70067">
        <ele>531</ele>
        <time>2019-01-02T13:24:02+01:00</time>
      </trkpt>
      <trkpt lat="45.01784" lon="4.70052">
        <ele>532</ele>
        <time>2019-01-02T13:24:12+01:00</time>
      </trkpt>
      <trkpt lat="45.01778" lon="4.70048">
        <ele>532</ele>
        <time>2019-01-02T13:24:17+01:00</time>
      </trkpt>
      <trkpt lat="45.01768" lon="4.70051">
        <ele>530</ele>
        <time>2019-01-02T13:24:24+01:00</time>
      </trkpt>
      <trkpt lat="45.0176" lon="4.70063">
        <ele>528</ele>
        <time>2019-01-02T13:24:33+01:00</time>
      </trkpt>
      <trkpt lat="45.01752" lon="4.70079">
        <ele>525</ele>
        <time>2019-01-02T13:24:43+01:00</time>
      </trkpt>
      <trkpt lat="45.0175" lon="4.70087">
        <ele>524</ele>
        <time>2019-01-02T13:24:49+01:00</time>
      </trkpt>
      <trkpt lat="45.01749" lon="4.70089">
        <ele>523</ele>
        <time>2019-01-02T13:24:51+01:00</time>
      </trkpt>
      <trkpt lat="45.01746" lon="4.70096">
        <ele>522</ele>
        <time>2019-01-02T13:24:55+01:00</time>
      </trkpt>
      <trkpt lat="45.01739" lon="4.70107">
        <ele>521</ele>
        <time>2019-01-02T13:25:04+01:00</time>
      </trkpt>
      <trkpt lat="45.01733" lon="4.70109">
        <ele>520</ele>
        <time>2019-01-02T13:25:10+01:00</time>
      </trkpt>
      <trkpt lat="45.01726" lon="4.70112">
        <ele>520</ele>
        <time>2019-01-02T13:25:21+01:00</time>
      </trkpt>
      <trkpt lat="45.01726" lon="4.70112">
        <ele>520</ele>
        <time>2019-01-02T13:25:33+01:00</time>
      </trkpt>
      <trkpt lat="45.01724" lon="4.70111">
        <ele>520</ele>
        <time>2019-01-02T13:25:46+01:00</time>
      </trkpt>
      <trkpt lat="45.01723" lon="4.7011">
        <ele>520</ele>
        <time>2019-01-02T13:25:56+01:00</time>
      </trkpt>
      <trkpt lat="45.01718" lon="4.7011">
        <ele>520</ele>
        <time>2019-01-02T13:26:08+01:00</time>
      </trkpt>
      <trkpt lat="45.01721" lon="4.70113">
        <ele>519</ele>
        <time>2019-01-02T13:26:16+01:00</time>
      </trkpt>
      <trkpt lat="45.01721" lon="4.70114">
        <ele>519</ele>
        <time>2019-01-02T13:26:31+01:00</time>
      </trkpt>
      <trkpt lat="45.01719" lon="4.70108">
        <ele>520</ele>
        <time>2019-01-02T13:26:40+01:00</time>
      </trkpt>
      <trkpt lat="45.01715" lon="4.70105">
        <ele>520</ele>
        <time>2019-01-02T13:26:44+01:00</time>
      </trkpt>
      <trkpt lat="45.01704" lon="4.70095">
        <ele>522</ele>
        <time>2019-01-02T13:26:55+01:00</time>
      </trkpt>
      <trkpt lat="45.01691" lon="4.70086">
        <ele>523</ele>
        <time>2019-01-02T13:27:06+01:00</time>
      </trkpt>
      <trkpt lat="45.01679" lon="4.70078">
        <ele>524</ele>
        <time>2019-01-02T13:27:15+01:00</time>
      </trkpt>
      <trkpt lat="45.01669" lon="4.70071">
        <ele>524</ele>
        <time>2019-01-02T13:27:23+01:00</time>
      </trkpt>
      <trkpt lat="45.01656" lon="4.70071">
        <ele>523</ele>
        <time>2019-01-02T13:27:32+01:00</time>
      </trkpt>
      <trkpt lat="45.01642" lon="4.70075">
        <ele>521</ele>
        <time>2019-01-02T13:27:41+01:00</time>
      </trkpt>
      <trkpt lat="45.0163" lon="4.70079">
        <ele>520</ele>
        <time>2019-01-02T13:27:51+01:00</time>
      </trkpt>
      <trkpt lat="45.01618" lon="4.7008">
        <ele>518</ele>
        <time>2019-01-02T13:28:01+01:00</time>
      </trkpt>
      <trkpt lat="45.01604" lon="4.7008">
        <ele>517</ele>
        <time>2019-01-02T13:28:11+01:00</time>
      </trkpt>
      <trkpt lat="45.01594" lon="4.7008">
        <ele>516</ele>
        <time>2019-01-02T13:28:18+01:00</time>
      </trkpt>
      <trkpt lat="45.01584" lon="4.7008">
        <ele>515</ele>
        <time>2019-01-02T13:28:26+01:00</time>
      </trkpt>
      <trkpt lat="45.01575" lon="4.70081">
        <ele>514</ele>
        <time>2019-01-02T13:28:34+01:00</time>
      </trkpt>
      <trkpt lat="45.01566" lon="4.70083">
        <ele>513</ele>
        <time>2019-01-02T13:28:41+01:00</time>
      </trkpt>
      <trkpt lat="45.01552" lon="4.70083">
        <ele>513</ele>
        <time>2019-01-02T13:28:51+01:00</time>
      </trkpt>
      <trkpt lat="45.0154" lon="4.70084">
        <ele>512</ele>
        <time>2019-01-02T13:29:00+01:00</time>
      </trkpt>
      <trkpt lat="45.01528" lon="4.70085">
        <ele>511</ele>
        <time>2019-01-02T13:29:09+01:00</time>
      </trkpt>
      <trkpt lat="45.0151" lon="4.70091">
        <ele>510</ele>
        <time>2019-01-02T13:29:22+01:00</time>
      </trkpt>
      <trkpt lat="45.01508" lon="4.70091">
        <ele>509</ele>
        <time>2019-01-02T13:29:24+01:00</time>
      </trkpt>
      <trkpt lat="45.01506" lon="4.70094">
        <ele>509</ele>
        <time>2019-01-02T13:29:26+01:00</time>
      </trkpt>
      <trkpt lat="45.01497" lon="4.70095">
        <ele>509</ele>
        <time>2019-01-02T13:29:34+01:00</time>
      </trkpt>
      <trkpt lat="45.01496" lon="4.70096">
        <ele>509</ele>
        <time>2019-01-02T13:29:36+01:00</time>
      </trkpt>
      <trkpt lat="45.01491" lon="4.70101">
        <ele>508</ele>
        <time>2019-01-02T13:29:41+01:00</time>
      </trkpt>
      <trkpt lat="45.01476" lon="4.70102">
        <ele>509</ele>
        <time>2019-01-02T13:29:53+01:00</time>
      </trkpt>
      <trkpt lat="45.01473" lon="4.70105">
        <ele>509</ele>
        <time>2019-01-02T13:29:56+01:00</time>
      </trkpt>
      <trkpt lat="45.01457" lon="4.70103">
        <ele>509</ele>
        <time>2019-01-02T13:30:08+01:00</time>
      </trkpt>
      <trkpt lat="45.01444" lon="4.70106">
        <ele>509</ele>
        <time>2019-01-02T13:30:17+01:00</time>
      </trkpt>
      <trkpt lat="45.01431" lon="4.70112">
        <ele>509</ele>
        <time>2019-01-02T13:30:27+01:00</time>
      </trkpt>
      <trkpt lat="45.01419" lon="4.70121">
        <ele>508</ele>
        <time>2019-01-02T13:30:37+01:00</time>
      </trkpt>
      <trkpt lat="45.0141" lon="4.7013">
        <ele>508</ele>
        <time>2019-01-02T13:30:46+01:00</time>
      </trkpt>
      <trkpt lat="45.01408" lon="4.70131">
        <ele>508</ele>
        <time>2019-01-02T13:30:48+01:00</time>
      </trkpt>
      <trkpt lat="45.01401" lon="4.70138">
        <ele>507</ele>
        <time>2019-01-02T13:30:55+01:00</time>
      </trkpt>
      <trkpt lat="45.01391" lon="4.70148">
        <ele>507</ele>
        <time>2019-01-02T13:31:05+01:00</time>
      </trkpt>
      <trkpt lat="45.01384" lon="4.70155">
        <ele>506</ele>
        <time>2019-01-02T13:31:12+01:00</time>
      </trkpt>
      <trkpt lat="45.01375" lon="4.70161">
        <ele>506</ele>
        <time>2019-01-02T13:31:20+01:00</time>
      </trkpt>
      <trkpt lat="45.01367" lon="4.70166">
        <ele>506</ele>
        <time>2019-01-02T13:31:28+01:00</time>
      </trkpt>
      <trkpt lat="45.01365" lon="4.70166">
        <ele>506</ele>
        <time>2019-01-02T13:31:30+01:00</time>
      </trkpt>
      <trkpt lat="45.01352" lon="4.70169">
        <ele>507</ele>
        <time>2019-01-02T13:31:40+01:00</time>
      </trkpt>
      <trkpt lat="45.0134" lon="4.70171">
        <ele>507</ele>
        <time>2019-01-02T13:31:49+01:00</time>
      </trkpt>
      <trkpt lat="45.01328" lon="4.7017">
        <ele>508</ele>
        <time>2019-01-02T13:31:59+01:00</time>
      </trkpt>
      <trkpt lat="45.01314" lon="4.7017">
        <ele>509</ele>
        <time>2019-01-02T13:32:10+01:00</time>
      </trkpt>
      <trkpt lat="45.01308" lon="4.70172">
        <ele>509</ele>
        <time>2019-01-02T13:32:16+01:00</time>
      </trkpt>
      <trkpt lat="45.01295" lon="4.70175">
        <ele>509</ele>
        <time>2019-01-02T13:32:27+01:00</time>
      </trkpt>
      <trkpt lat="45.01284" lon="4.70179">
        <ele>510</ele>
        <time>2019-01-02T13:32:36+01:00</time>
      </trkpt>
      <trkpt lat="45.01275" lon="4.70185">
        <ele>510</ele>
        <time>2019-01-02T13:32:44+01:00</time>
      </trkpt>
      <trkpt lat="45.01262" lon="4.70192">
        <ele>510</ele>
        <time>2019-01-02T13:32:56+01:00</time>
      </trkpt>
      <trkpt lat="45.0125" lon="4.702">
        <ele>510</ele>
        <time>2019-01-02T13:33:06+01:00</time>
      </trkpt>
      <trkpt lat="45.01241" lon="4.70209">
        <ele>510</ele>
        <time>2019-01-02T13:33:15+01:00</time>
      </trkpt>
      <trkpt lat="45.0124" lon="4.70211">
        <ele>510</ele>
        <time>2019-01-02T13:33:16+01:00</time>
      </trkpt>
      <trkpt lat="45.01236" lon="4.70214">
        <ele>510</ele>
        <time>2019-01-02T13:33:20+01:00</time>
      </trkpt>
      <trkpt lat="45.01234" lon="4.70215">
        <ele>511</ele>
        <time>2019-01-02T13:33:23+01:00</time>
      </trkpt>
      <trkpt lat="45.01228" lon="4.70219">
        <ele>511</ele>
        <time>2019-01-02T13:33:28+01:00</time>
      </trkpt>
      <trkpt lat="45.01218" lon="4.70228">
        <ele>511</ele>
        <time>2019-01-02T13:33:37+01:00</time>
      </trkpt>
      <trkpt lat="45.01207" lon="4.70237">
        <ele>511</ele>
        <time>2019-01-02T13:33:47+01:00</time>
      </trkpt>
      <trkpt lat="45.01205" lon="4.70238">
        <ele>511</ele>
        <time>2019-01-02T13:33:49+01:00</time>
      </trkpt>
      <trkpt lat="45.01194" lon="4.70239">
        <ele>512</ele>
        <time>2019-01-02T13:33:57+01:00</time>
      </trkpt>
      <trkpt lat="45.01185" lon="4.70244">
        <ele>512</ele>
        <time>2019-01-02T13:34:05+01:00</time>
      </trkpt>
      <trkpt lat="45.01182" lon="4.70245">
        <ele>512</ele>
        <time>2019-01-02T13:34:07+01:00</time>
      </trkpt>
      <trkpt lat="45.01176" lon="4.70246">
        <ele>513</ele>
        <time>2019-01-02T13:34:12+01:00</time>
      </trkpt>
      <trkpt lat="45.01165" lon="4.70249">
        <ele>513</ele>
        <time>2019-01-02T13:34:22+01:00</time>
      </trkpt>
      <trkpt lat="45.01149" lon="4.70246">
        <ele>513</ele>
        <time>2019-01-02T13:34:34+01:00</time>
      </trkpt>
      <trkpt lat="45.01136" lon="4.70243">
        <ele>514</ele>
        <time>2019-01-02T13:34:44+01:00</time>
      </trkpt>
      <trkpt lat="45.01124" lon="4.70242">
        <ele>514</ele>
        <time>2019-01-02T13:34:53+01:00</time>
      </trkpt>
      <trkpt lat="45.01119" lon="4.70244">
        <ele>514</ele>
        <time>2019-01-02T13:35:01+01:00</time>
      </trkpt>
      <trkpt lat="45.01116" lon="4.70245">
        <ele>514</ele>
        <time>2019-01-02T13:35:08+01:00</time>
      </trkpt>
      <trkpt lat="45.01102" lon="4.70245">
        <ele>515</ele>
        <time>2019-01-02T13:35:18+01:00</time>
      </trkpt>
      <trkpt lat="45.01089" lon="4.70243">
        <ele>515</ele>
        <time>2019-01-02T13:35:28+01:00</time>
      </trkpt>
      <trkpt lat="45.01074" lon="4.70247">
        <ele>515</ele>
        <time>2019-01-02T13:35:39+01:00</time>
      </trkpt>
      <trkpt lat="45.0106" lon="4.70252">
        <ele>514</ele>
        <time>2019-01-02T13:35:48+01:00</time>
      </trkpt>
      <trkpt lat="45.01053" lon="4.70248">
        <ele>514</ele>
        <time>2019-01-02T13:35:57+01:00</time>
      </trkpt>
      <trkpt lat="45.01052" lon="4.70248">
        <ele>513</ele>
        <time>2019-01-02T13:35:58+01:00</time>
      </trkpt>
      <trkpt lat="45.01043" lon="4.7024">
        <ele>513</ele>
        <time>2019-01-02T13:36:09+01:00</time>
      </trkpt>
      <trkpt lat="45.01025" lon="4.70234">
        <ele>512</ele>
        <time>2019-01-02T13:36:22+01:00</time>
      </trkpt>
      <trkpt lat="45.01021" lon="4.70246">
        <ele>512</ele>
        <time>2019-01-02T13:36:34+01:00</time>
      </trkpt>
      <trkpt lat="45.01014" lon="4.70248">
        <ele>512</ele>
        <time>2019-01-02T13:36:44+01:00</time>
      </trkpt>
      <trkpt lat="45.01015" lon="4.70252">
        <ele>512</ele>
        <time>2019-01-02T13:36:46+01:00</time>
      </trkpt>
      <trkpt lat="45.01009" lon="4.70262">
        <ele>511</ele>
        <time>2019-01-02T13:36:54+01:00</time>
      </trkpt>
      <trkpt lat="45.00989" lon="4.70267">
        <ele>509</ele>
        <time>2019-01-02T13:37:05+01:00</time>
      </trkpt>
      <trkpt lat="45.0099" lon="4.70275">
        <ele>509</ele>
        <time>2019-01-02T13:37:12+01:00</time>
      </trkpt>
      <trkpt lat="45.00989" lon="4.70276">
        <ele>509</ele>
        <time>2019-01-02T13:37:13+01:00</time>
      </trkpt>
      <trkpt lat="45.00986" lon="4.70285">
        <ele>508</ele>
        <time>2019-01-02T13:37:20+01:00</time>
      </trkpt>
      <trkpt lat="45.00985" lon="4.70289">
        <ele>508</ele>
        <time>2019-01-02T13:37:29+01:00</time>
      </trkpt>
      <trkpt lat="45.00981" lon="4.70292">
        <ele>508</ele>
        <time>2019-01-02T13:37:38+01:00</time>
      </trkpt>
      <trkpt lat="45.00981" lon="4.70289">
        <ele>508</ele>
        <time>2019-01-02T13:37:45+01:00</time>
      </trkpt>
      <trkpt lat="45.00982" lon="4.70288">
        <ele>508</ele>
        <time>2019-01-02T13:37:57+01:00</time>
      </trkpt>
      <trkpt lat="45.00985" lon="4.70288">
        <ele>508</ele>
        <time>2019-01-02T13:38:06+01:00</time>
      </trkpt>
      <trkpt lat="45.0097" lon="4.70288">
        <ele>507</ele>
        <time>2019-01-02T13:38:13+01:00</time>
      </trkpt>
      <trkpt lat="45.00966" lon="4.7028">
        <ele>507</ele>
        <time>2019-01-02T13:38:18+01:00</time>
      </trkpt>
      <trkpt lat="45.0096" lon="4.70275">
        <ele>506</ele>
        <time>2019-01-02T13:38:25+01:00</time>
      </trkpt>
      <trkpt lat="45.00956" lon="4.7027">
        <ele>506</ele>
        <time>2019-01-02T13:38:30+01:00</time>
      </trkpt>
      <trkpt lat="45.00949" lon="4.70268">
        <ele>505</ele>
        <time>2019-01-02T13:38:37+01:00</time>
      </trkpt>
      <trkpt lat="45.00945" lon="4.70265">
        <ele>505</ele>
        <time>2019-01-02T13:38:41+01:00</time>
      </trkpt>
      <trkpt lat="45.00931" lon="4.7026">
        <ele>503</ele>
        <time>2019-01-02T13:38:53+01:00</time>
      </trkpt>
      <trkpt lat="45.00917" lon="4.70255">
        <ele>502</ele>
        <time>2019-01-02T13:39:03+01:00</time>
      </trkpt>
      <trkpt lat="45.00908" lon="4.7025">
        <ele>501</ele>
        <time>2019-01-02T13:39:13+01:00</time>
      </trkpt>
      <trkpt lat="45.00896" lon="4.70244">
        <ele>500</ele>
        <time>2019-01-02T13:39:22+01:00</time>
      </trkpt>
      <trkpt lat="45.00882" lon="4.70242">
        <ele>499</ele>
        <time>2019-01-02T13:39:33+01:00</time>
      </trkpt>
      <trkpt lat="45.00871" lon="4.70242">
        <ele>498</ele>
        <time>2019-01-02T13:39:43+01:00</time>
      </trkpt>
      <trkpt lat="45.0086" lon="4.70244">
        <ele>497</ele>
        <time>2019-01-02T13:39:52+01:00</time>
      </trkpt>
      <trkpt lat="45.00846" lon="4.70244">
        <ele>495</ele>
        <time>2019-01-02T13:40:02+01:00</time>
      </trkpt>
      <trkpt lat="45.00838" lon="4.70246">
        <ele>494</ele>
        <time>2019-01-02T13:40:09+01:00</time>
      </trkpt>
      <trkpt lat="45.00828" lon="4.70251">
        <ele>493</ele>
        <time>2019-01-02T13:40:18+01:00</time>
      </trkpt>
      <trkpt lat="45.00825" lon="4.7025">
        <ele>493</ele>
        <time>2019-01-02T13:40:22+01:00</time>
      </trkpt>
      <trkpt lat="45.0082" lon="4.70236">
        <ele>492</ele>
        <time>2019-01-02T13:40:32+01:00</time>
      </trkpt>
      <trkpt lat="45.00818" lon="4.70224">
        <ele>492</ele>
        <time>2019-01-02T13:40:41+01:00</time>
      </trkpt>
      <trkpt lat="45.00816" lon="4.70206">
        <ele>491</ele>
        <time>2019-01-02T13:40:52+01:00</time>
      </trkpt>
      <trkpt lat="45.00811" lon="4.70199">
        <ele>491</ele>
        <time>2019-01-02T13:40:57+01:00</time>
      </trkpt>
      <trkpt lat="45.00808" lon="4.70189">
        <ele>491</ele>
        <time>2019-01-02T13:41:05+01:00</time>
      </trkpt>
      <trkpt lat="45.00802" lon="4.70179">
        <ele>490</ele>
        <time>2019-01-02T13:41:13+01:00</time>
      </trkpt>
      <trkpt lat="45.00799" lon="4.70167">
        <ele>490</ele>
        <time>2019-01-02T13:41:22+01:00</time>
      </trkpt>
      <trkpt lat="45.00796" lon="4.70162">
        <ele>490</ele>
        <time>2019-01-02T13:41:32+01:00</time>
      </trkpt>
      <trkpt lat="45.00787" lon="4.70164">
        <ele>489</ele>
        <time>2019-01-02T13:41:41+01:00</time>
      </trkpt>
      <trkpt lat="45.00782" lon="4.7016">
        <ele>488</ele>
        <time>2019-01-02T13:41:46+01:00</time>
      </trkpt>
      <trkpt lat="45.00774" lon="4.70156">
        <ele>488</ele>
        <time>2019-01-02T13:41:55+01:00</time>
      </trkpt>
      <trkpt lat="45.00766" lon="4.70156">
        <ele>487</ele>
        <time>2019-01-02T13:42:02+01:00</time>
      </trkpt>
      <trkpt lat="45.00762" lon="4.70148">
        <ele>487</ele>
        <time>2019-01-02T13:42:09+01:00</time>
      </trkpt>
      <trkpt lat="45.00763" lon="4.70146">
        <ele>488</ele>
        <time>2019-01-02T13:42:12+01:00</time>
      </trkpt>
      <trkpt lat="45.00762" lon="4.70146">
        <ele>488</ele>
        <time>2019-01-02T13:42:13+01:00</time>
      </trkpt>
      <trkpt lat="45.00762" lon="4.70146">
        <ele>488</ele>
        <time>2019-01-02T13:42:14+01:00</time>
      </trkpt>
      <trkpt lat="45.00761" lon="4.70145">
        <ele>488</ele>
        <time>2019-01-02T13:42:29+01:00</time>
      </trkpt>
      <trkpt lat="45.00763" lon="4.70145">
        <ele>488</ele>
        <time>2019-01-02T13:42:43+01:00</time>
      </trkpt>
      <trkpt lat="45.00776" lon="4.70144">
        <ele>489</ele>
        <time>2019-01-02T13:42:52+01:00</time>
      </trkpt>
      <trkpt lat="45.00785" lon="4.70139">
        <ele>490</ele>
        <time>2019-01-02T13:43:00+01:00</time>
      </trkpt>
      <trkpt lat="45.00792" lon="4.70132">
        <ele>490</ele>
        <time>2019-01-02T13:43:07+01:00</time>
      </trkpt>
      <trkpt lat="45.00797" lon="4.70123">
        <ele>491</ele>
        <time>2019-01-02T13:43:14+01:00</time>
      </trkpt>
      <trkpt lat="45.008" lon="4.70107">
        <ele>491</ele>
        <time>2019-01-02T13:43:22+01:00</time>
      </trkpt>
      <trkpt lat="45.00799" lon="4.70101">
        <ele>492</ele>
        <time>2019-01-02T13:43:26+01:00</time>
      </trkpt>
      <trkpt lat="45.00798" lon="4.70086">
        <ele>492</ele>
        <time>2019-01-02T13:43:34+01:00</time>
      </trkpt>
      <trkpt lat="45.00798" lon="4.70076">
        <ele>492</ele>
        <time>2019-01-02T13:43:40+01:00</time>
      </trkpt>
      <trkpt lat="45.00796" lon="4.70062">
        <ele>493</ele>
        <time>2019-01-02T13:43:49+01:00</time>
      </trkpt>
      <trkpt lat="45.00796" lon="4.70059">
        <ele>493</ele>
        <time>2019-01-02T13:43:51+01:00</time>
      </trkpt>
      <trkpt lat="45.00792" lon="4.70041">
        <ele>495</ele>
        <time>2019-01-02T13:44:01+01:00</time>
      </trkpt>
      <trkpt lat="45.0079" lon="4.70026">
        <ele>495</ele>
        <time>2019-01-02T13:44:09+01:00</time>
      </trkpt>
      <trkpt lat="45.00784" lon="4.70011">
        <ele>496</ele>
        <time>2019-01-02T13:44:17+01:00</time>
      </trkpt>
      <trkpt lat="45.00783" lon="4.69998">
        <ele>497</ele>
        <time>2019-01-02T13:44:24+01:00</time>
      </trkpt>
      <trkpt lat="45.00786" lon="4.69989">
        <ele>497</ele>
        <time>2019-01-02T13:44:32+01:00</time>
      </trkpt>
      <trkpt lat="45.00786" lon="4.69989">
        <ele>497</ele>
        <time>2019-01-02T13:44:33+01:00</time>
      </trkpt>
      <trkpt lat="45.00793" lon="4.69983">
        <ele>498</ele>
        <time>2019-01-02T13:44:40+01:00</time>
      </trkpt>
      <trkpt lat="45.00801" lon="4.69978">
        <ele>498</ele>
        <time>2019-01-02T13:44:48+01:00</time>
      </trkpt>
      <trkpt lat="45.00804" lon="4.69976">
        <ele>498</ele>
        <time>2019-01-02T13:44:55+01:00</time>
      </trkpt>
      <trkpt lat="45.00809" lon="4.69974">
        <ele>498</ele>
        <time>2019-01-02T13:45:01+01:00</time>
      </trkpt>
      <trkpt lat="45.00817" lon="4.69972">
        <ele>498</ele>
        <time>2019-01-02T13:45:09+01:00</time>
      </trkpt>
      <trkpt lat="45.00825" lon="4.69971">
        <ele>498</ele>
        <time>2019-01-02T13:45:15+01:00</time>
      </trkpt>
      <trkpt lat="45.00837" lon="4.6997">
        <ele>498</ele>
        <time>2019-01-02T13:45:26+01:00</time>
      </trkpt>
      <trkpt lat="45.00842" lon="4.69971">
        <ele>499</ele>
        <time>2019-01-02T13:45:31+01:00</time>
      </trkpt>
      <trkpt lat="45.00845" lon="4.69971">
        <ele>499</ele>
        <time>2019-01-02T13:45:33+01:00</time>
      </trkpt>
      <trkpt lat="45.00857" lon="4.69968">
        <ele>500</ele>
        <time>2019-01-02T13:45:42+01:00</time>
      </trkpt>
      <trkpt lat="45.0087" lon="4.69968">
        <ele>501</ele>
        <time>2019-01-02T13:45:51+01:00</time>
      </trkpt>
      <trkpt lat="45.0088" lon="4.69967">
        <ele>502</ele>
        <time>2019-01-02T13:45:59+01:00</time>
      </trkpt>
      <trkpt lat="45.00891" lon="4.69966">
        <ele>504</ele>
        <time>2019-01-02T13:46:08+01:00</time>
      </trkpt>
      <trkpt lat="45.00895" lon="4.69965">
        <ele>504</ele>
        <time>2019-01-02T13:46:11+01:00</time>
      </trkpt>
      <trkpt lat="45.00902" lon="4.69965">
        <ele>504</ele>
        <time>2019-01-02T13:46:16+01:00</time>
      </trkpt>
      <trkpt lat="45.00912" lon="4.69969">
        <ele>505</ele>
        <time>2019-01-02T13:46:25+01:00</time>
      </trkpt>
      <trkpt lat="45.00917" lon="4.6997">
        <ele>506</ele>
        <time>2019-01-02T13:46:29+01:00</time>
      </trkpt>
      <trkpt lat="45.00923" lon="4.69965">
        <ele>506</ele>
        <time>2019-01-02T13:46:35+01:00</time>
      </trkpt>
      <trkpt lat="45.00924" lon="4.69965">
        <ele>506</ele>
        <time>2019-01-02T13:46:37+01:00</time>
      </trkpt>
      <trkpt lat="45.00923" lon="4.69968">
        <ele>506</ele>
        <time>2019-01-02T13:46:51+01:00</time>
      </trkpt>
      <trkpt lat="45.00921" lon="4.69959">
        <ele>506</ele>
        <time>2019-01-02T13:47:05+01:00</time>
      </trkpt>
      <trkpt lat="45.00914" lon="4.6995">
        <ele>506</ele>
        <time>2019-01-02T13:47:13+01:00</time>
      </trkpt>
      <trkpt lat="45.00909" lon="4.69942">
        <ele>506</ele>
        <time>2019-01-02T13:47:20+01:00</time>
      </trkpt>
      <trkpt lat="45.00904" lon="4.69932">
        <ele>506</ele>
        <time>2019-01-02T13:47:28+01:00</time>
      </trkpt>
      <trkpt lat="45.00904" lon="4.69933">
        <ele>505</ele>
        <time>2019-01-02T13:47:34+01:00</time>
      </trkpt>
      <trkpt lat="45.009" lon="4.69928">
        <ele>505</ele>
        <time>2019-01-02T13:47:42+01:00</time>
      </trkpt>
      <trkpt lat="45.00892" lon="4.69911">
        <ele>505</ele>
        <time>2019-01-02T13:47:51+01:00</time>
      </trkpt>
      <trkpt lat="45.00886" lon="4.69896">
        <ele>505</ele>
        <time>2019-01-02T13:48:01+01:00</time>
      </trkpt>
      <trkpt lat="45.00878" lon="4.6988">
        <ele>505</ele>
        <time>2019-01-02T13:48:11+01:00</time>
      </trkpt>
      <trkpt lat="45.00872" lon="4.69866">
        <ele>504</ele>
        <time>2019-01-02T13:48:20+01:00</time>
      </trkpt>
      <trkpt lat="45.00867" lon="4.69852">
        <ele>504</ele>
        <time>2019-01-02T13:48:30+01:00</time>
      </trkpt>
      <trkpt lat="45.00866" lon="4.69851">
        <ele>504</ele>
        <time>2019-01-02T13:48:31+01:00</time>
      </trkpt>
      <trkpt lat="45.00863" lon="4.69845">
        <ele>504</ele>
        <time>2019-01-02T13:48:35+01:00</time>
      </trkpt>
      <trkpt lat="45.0086" lon="4.69839">
        <ele>504</ele>
        <time>2019-01-02T13:48:39+01:00</time>
      </trkpt>
      <trkpt lat="45.00855" lon="4.69822">
        <ele>504</ele>
        <time>2019-01-02T13:48:50+01:00</time>
      </trkpt>
      <trkpt lat="45.00848" lon="4.69806">
        <ele>504</ele>
        <time>2019-01-02T13:49:00+01:00</time>
      </trkpt>
      <trkpt lat="45.00843" lon="4.69798">
        <ele>503</ele>
        <time>2019-01-02T13:49:07+01:00</time>
      </trkpt>
      <trkpt lat="45.00841" lon="4.69795">
        <ele>503</ele>
        <time>2019-01-02T13:49:09+01:00</time>
      </trkpt>
      <trkpt lat="45.00833" lon="4.69782">
        <ele>503</ele>
        <time>2019-01-02T13:49:18+01:00</time>
      </trkpt>
      <trkpt lat="45.00824" lon="4.69772">
        <ele>503</ele>
        <time>2019-01-02T13:49:27+01:00</time>
      </trkpt>
      <trkpt lat="45.00816" lon="4.69759">
        <ele>503</ele>
        <time>2019-01-02T13:49:36+01:00</time>
      </trkpt>
      <trkpt lat="45.0081" lon="4.69747">
        <ele>503</ele>
        <time>2019-01-02T13:49:44+01:00</time>
      </trkpt>
      <trkpt lat="45.00799" lon="4.69733">
        <ele>504</ele>
        <time>2019-01-02T13:49:55+01:00</time>
      </trkpt>
      <trkpt lat="45.00796" lon="4.69729">
        <ele>505</ele>
        <time>2019-01-02T13:50:00+01:00</time>
      </trkpt>
      <trkpt lat="45.00786" lon="4.6972">
        <ele>505</ele>
        <time>2019-01-02T13:50:10+01:00</time>
      </trkpt>
      <trkpt lat="45.00778" lon="4.6971">
        <ele>506</ele>
        <time>2019-01-02T13:50:19+01:00</time>
      </trkpt>
      <trkpt lat="45.0077" lon="4.69705">
        <ele>506</ele>
        <time>2019-01-02T13:50:27+01:00</time>
      </trkpt>
      <trkpt lat="45.00763" lon="4.69697">
        <ele>507</ele>
        <time>2019-01-02T13:50:36+01:00</time>
      </trkpt>
      <trkpt lat="45.00759" lon="4.69691">
        <ele>507</ele>
        <time>2019-01-02T13:50:42+01:00</time>
      </trkpt>
      <trkpt lat="45.00753" lon="4.69683">
        <ele>508</ele>
        <time>2019-01-02T13:50:50+01:00</time>
      </trkpt>
      <trkpt lat="45.00748" lon="4.69673">
        <ele>508</ele>
        <time>2019-01-02T13:50:59+01:00</time>
      </trkpt>
      <trkpt lat="45.00745" lon="4.69664">
        <ele>509</ele>
        <time>2019-01-02T13:51:06+01:00</time>
      </trkpt>
      <trkpt lat="45.00743" lon="4.69656">
        <ele>509</ele>
        <time>2019-01-02T13:51:13+01:00</time>
      </trkpt>
      <trkpt lat="45.00743" lon="4.69653">
        <ele>510</ele>
        <time>2019-01-02T13:51:15+01:00</time>
      </trkpt>
      <trkpt lat="45.00742" lon="4.6964">
        <ele>510</ele>
        <time>2019-01-02T13:51:24+01:00</time>
      </trkpt>
      <trkpt lat="45.0074" lon="4.69621">
        <ele>511</ele>
        <time>2019-01-02T13:51:36+01:00</time>
      </trkpt>
      <trkpt lat="45.00738" lon="4.69612">
        <ele>512</ele>
        <time>2019-01-02T13:51:42+01:00</time>
      </trkpt>
      <trkpt lat="45.00738" lon="4.69605">
        <ele>512</ele>
        <time>2019-01-02T13:51:47+01:00</time>
      </trkpt>
      <trkpt lat="45.00738" lon="4.69602">
        <ele>512</ele>
        <time>2019-01-02T13:51:49+01:00</time>
      </trkpt>
      <trkpt lat="45.00736" lon="4.69586">
        <ele>513</ele>
        <time>2019-01-02T13:51:59+01:00</time>
      </trkpt>
      <trkpt lat="45.00736" lon="4.69578">
        <ele>514</ele>
        <time>2019-01-02T13:52:07+01:00</time>
      </trkpt>
      <trkpt lat="45.00735" lon="4.69571">
        <ele>514</ele>
        <time>2019-01-02T13:52:12+01:00</time>
      </trkpt>
      <trkpt lat="45.00736" lon="4.69565">
        <ele>514</ele>
        <time>2019-01-02T13:52:16+01:00</time>
      </trkpt>
      <trkpt lat="45.00735" lon="4.69546">
        <ele>515</ele>
        <time>2019-01-02T13:52:27+01:00</time>
      </trkpt>
      <trkpt lat="45.00734" lon="4.69541">
        <ele>515</ele>
        <time>2019-01-02T13:52:31+01:00</time>
      </trkpt>
      <trkpt lat="45.00734" lon="4.69533">
        <ele>516</ele>
        <time>2019-01-02T13:52:36+01:00</time>
      </trkpt>
      <trkpt lat="45.00733" lon="4.69523">
        <ele>516</ele>
        <time>2019-01-02T13:52:44+01:00</time>
      </trkpt>
      <trkpt lat="45.00733" lon="4.69515">
        <ele>517</ele>
        <time>2019-01-02T13:52:51+01:00</time>
      </trkpt>
      <trkpt lat="45.00732" lon="4.69505">
        <ele>517</ele>
        <time>2019-01-02T13:52:59+01:00</time>
      </trkpt>
      <trkpt lat="45.0073" lon="4.69496">
        <ele>518</ele>
        <time>2019-01-02T13:53:06+01:00</time>
      </trkpt>
      <trkpt lat="45.0073" lon="4.69491">
        <ele>518</ele>
        <time>2019-01-02T13:53:10+01:00</time>
      </trkpt>
      <trkpt lat="45.00729" lon="4.69481">
        <ele>518</ele>
        <time>2019-01-02T13:53:16+01:00</time>
      </trkpt>
      <trkpt lat="45.00728" lon="4.69471">
        <ele>519</ele>
        <time>2019-01-02T13:53:22+01:00</time>
      </trkpt>
      <trkpt lat="45.00726" lon="4.69457">
        <ele>520</ele>
        <time>2019-01-02T13:53:31+01:00</time>
      </trkpt>
      <trkpt lat="45.00726" lon="4.69452">
        <ele>520</ele>
        <time>2019-01-02T13:53:34+01:00</time>
      </trkpt>
      <trkpt lat="45.00726" lon="4.69438">
        <ele>521</ele>
        <time>2019-01-02T13:53:42+01:00</time>
      </trkpt>
      <trkpt lat="45.00725" lon="4.69429">
        <ele>521</ele>
        <time>2019-01-02T13:53:48+01:00</time>
      </trkpt>
      <trkpt lat="45.00723" lon="4.69412">
        <ele>522</ele>
        <time>2019-01-02T13:53:58+01:00</time>
      </trkpt>
      <trkpt lat="45.00722" lon="4.69401">
        <ele>523</ele>
        <time>2019-01-02T13:54:05+01:00</time>
      </trkpt>
      <trkpt lat="45.0072" lon="4.69388">
        <ele>524</ele>
        <time>2019-01-02T13:54:13+01:00</time>
      </trkpt>
      <trkpt lat="45.0072" lon="4.6938">
        <ele>524</ele>
        <time>2019-01-02T13:54:18+01:00</time>
      </trkpt>
      <trkpt lat="45.0072" lon="4.69369">
        <ele>525</ele>
        <time>2019-01-02T13:54:25+01:00</time>
      </trkpt>
      <trkpt lat="45.00719" lon="4.69361">
        <ele>526</ele>
        <time>2019-01-02T13:54:30+01:00</time>
      </trkpt>
      <trkpt lat="45.00718" lon="4.69348">
        <ele>527</ele>
        <time>2019-01-02T13:54:39+01:00</time>
      </trkpt>
      <trkpt lat="45.00717" lon="4.69338">
        <ele>528</ele>
        <time>2019-01-02T13:54:46+01:00</time>
      </trkpt>
      <trkpt lat="45.00715" lon="4.69327">
        <ele>529</ele>
        <time>2019-01-02T13:54:53+01:00</time>
      </trkpt>
      <trkpt lat="45.00715" lon="4.69316">
        <ele>530</ele>
        <time>2019-01-02T13:55:01+01:00</time>
      </trkpt>
      <trkpt lat="45.00714" lon="4.69307">
        <ele>531</ele>
        <time>2019-01-02T13:55:08+01:00</time>
      </trkpt>
      <trkpt lat="45.00713" lon="4.69298">
        <ele>532</ele>
        <time>2019-01-02T13:55:15+01:00</time>
      </trkpt>
      <trkpt lat="45.00712" lon="4.69289">
        <ele>533</ele>
        <time>2019-01-02T13:55:22+01:00</time>
      </trkpt>
      <trkpt lat="45.00713" lon="4.69288">
        <ele>534</ele>
        <time>2019-01-02T13:55:23+01:00</time>
      </trkpt>
      <trkpt lat="45.00713" lon="4.69281">
        <ele>535</ele>
        <time>2019-01-02T13:55:29+01:00</time>
      </trkpt>
      <trkpt lat="45.00712" lon="4.69272">
        <ele>536</ele>
        <time>2019-01-02T13:55:36+01:00</time>
      </trkpt>
      <trkpt lat="45.0071" lon="4.69268">
        <ele>536</ele>
        <time>2019-01-02T13:55:44+01:00</time>
      </trkpt>
      <trkpt lat="45.00711" lon="4.69263">
        <ele>537</ele>
        <time>2019-01-02T13:55:50+01:00</time>
      </trkpt>
      <trkpt lat="45.00714" lon="4.69253">
        <ele>538</ele>
        <time>2019-01-02T13:55:59+01:00</time>
      </trkpt>
      <trkpt lat="45.00715" lon="4.69244">
        <ele>539</ele>
        <time>2019-01-02T13:56:08+01:00</time>
      </trkpt>
      <trkpt lat="45.00715" lon="4.69237">
        <ele>540</ele>
        <time>2019-01-02T13:56:17+01:00</time>
      </trkpt>
      <trkpt lat="45.00715" lon="4.69235">
        <ele>540</ele>
        <time>2019-01-02T13:56:19+01:00</time>
      </trkpt>
      <trkpt lat="45.00713" lon="4.69229">
        <ele>540</ele>
        <time>2019-01-02T13:56:26+01:00</time>
      </trkpt>
      <trkpt lat="45.0071" lon="4.69228">
        <ele>541</ele>
        <time>2019-01-02T13:56:36+01:00</time>
      </trkpt>
      <trkpt lat="45.00708" lon="4.69222">
        <ele>541</ele>
        <time>2019-01-02T13:56:49+01:00</time>
      </trkpt>
      <trkpt lat="45.00709" lon="4.69219">
        <ele>542</ele>
        <time>2019-01-02T13:56:52+01:00</time>
      </trkpt>
      <trkpt lat="45.0071" lon="4.69211">
        <ele>542</ele>
        <time>2019-01-02T13:56:59+01:00</time>
      </trkpt>
      <trkpt lat="45.00714" lon="4.69199">
        <ele>544</ele>
        <time>2019-01-02T13:57:08+01:00</time>
      </trkpt>
      <trkpt lat="45.00711" lon="4.69188">
        <ele>545</ele>
        <time>2019-01-02T13:57:17+01:00</time>
      </trkpt>
      <trkpt lat="45.0071" lon="4.6919">
        <ele>545</ele>
        <time>2019-01-02T13:57:26+01:00</time>
      </trkpt>
      <trkpt lat="45.00712" lon="4.69186">
        <ele>545</ele>
        <time>2019-01-02T13:57:36+01:00</time>
      </trkpt>
      <trkpt lat="45.00701" lon="4.69186">
        <ele>545</ele>
        <time>2019-01-02T13:57:45+01:00</time>
      </trkpt>
      <trkpt lat="45.00697" lon="4.69184">
        <ele>546</ele>
        <time>2019-01-02T13:57:54+01:00</time>
      </trkpt>
      <trkpt lat="45.00694" lon="4.69187">
        <ele>545</ele>
        <time>2019-01-02T13:58:04+01:00</time>
      </trkpt>
      <trkpt lat="45.00689" lon="4.69186">
        <ele>546</ele>
        <time>2019-01-02T13:58:16+01:00</time>
      </trkpt>
      <trkpt lat="45.00684" lon="4.69183">
        <ele>546</ele>
        <time>2019-01-02T13:58:26+01:00</time>
      </trkpt>
      <trkpt lat="45.00672" lon="4.69183">
        <ele>546</ele>
        <time>2019-01-02T13:58:38+01:00</time>
      </trkpt>
      <trkpt lat="45.00662" lon="4.69179">
        <ele>547</ele>
        <time>2019-01-02T13:58:47+01:00</time>
      </trkpt>
      <trkpt lat="45.00654" lon="4.69174">
        <ele>547</ele>
        <time>2019-01-02T13:58:54+01:00</time>
      </trkpt>
      <trkpt lat="45.00644" lon="4.69169">
        <ele>547</ele>
        <time>2019-01-02T13:59:02+01:00</time>
      </trkpt>
      <trkpt lat="45.00636" lon="4.69163">
        <ele>547</ele>
        <time>2019-01-02T13:59:09+01:00</time>
      </trkpt>
      <trkpt lat="45.00627" lon="4.69158">
        <ele>547</ele>
        <time>2019-01-02T13:59:16+01:00</time>
      </trkpt>
      <trkpt lat="45.00621" lon="4.69154">
        <ele>547</ele>
        <time>2019-01-02T13:59:24+01:00</time>
      </trkpt>
      <trkpt lat="45.00612" lon="4.69149">
        <ele>547</ele>
        <time>2019-01-02T13:59:32+01:00</time>
      </trkpt>
      <trkpt lat="45.00602" lon="4.69143">
        <ele>547</ele>
        <time>2019-01-02T13:59:40+01:00</time>
      </trkpt>
      <trkpt lat="45.00597" lon="4.6914">
        <ele>547</ele>
        <time>2019-01-02T13:59:44+01:00</time>
      </trkpt>
      <trkpt lat="45.00594" lon="4.69137">
        <ele>547</ele>
        <time>2019-01-02T13:59:47+01:00</time>
      </trkpt>
      <trkpt lat="45.00583" lon="4.6913">
        <ele>547</ele>
        <time>2019-01-02T13:59:56+01:00</time>
      </trkpt>
      <trkpt lat="45.00574" lon="4.69123">
        <ele>547</ele>
        <time>2019-01-02T14:00:04+01:00</time>
      </trkpt>
      <trkpt lat="45.00562" lon="4.69115">
        <ele>546</ele>
        <time>2019-01-02T14:00:15+01:00</time>
      </trkpt>
      <trkpt lat="45.00556" lon="4.6911">
        <ele>546</ele>
        <time>2019-01-02T14:00:21+01:00</time>
      </trkpt>
      <trkpt lat="45.00553" lon="4.69108">
        <ele>546</ele>
        <time>2019-01-02T14:00:24+01:00</time>
      </trkpt>
      <trkpt lat="45.00539" lon="4.69102">
        <ele>546</ele>
        <time>2019-01-02T14:00:35+01:00</time>
      </trkpt>
      <trkpt lat="45.00528" lon="4.69096">
        <ele>546</ele>
        <time>2019-01-02T14:00:45+01:00</time>
      </trkpt>
      <trkpt lat="45.00521" lon="4.69093">
        <ele>546</ele>
        <time>2019-01-02T14:00:52+01:00</time>
      </trkpt>
      <trkpt lat="45.0051" lon="4.69087">
        <ele>546</ele>
        <time>2019-01-02T14:01:02+01:00</time>
      </trkpt>
      <trkpt lat="45.00501" lon="4.69081">
        <ele>546</ele>
        <time>2019-01-02T14:01:10+01:00</time>
      </trkpt>
      <trkpt lat="45.00488" lon="4.69071">
        <ele>546</ele>
        <time>2019-01-02T14:01:21+01:00</time>
      </trkpt>
      <trkpt lat="45.00478" lon="4.69061">
        <ele>546</ele>
        <time>2019-01-02T14:01:31+01:00</time>
      </trkpt>
      <trkpt lat="45.00471" lon="4.69053">
        <ele>547</ele>
        <time>2019-01-02T14:01:39+01:00</time>
      </trkpt>
      <trkpt lat="45.00462" lon="4.69043">
        <ele>547</ele>
        <time>2019-01-02T14:01:48+01:00</time>
      </trkpt>
      <trkpt lat="45.00461" lon="4.69042">
        <ele>547</ele>
        <time>2019-01-02T14:01:49+01:00</time>
      </trkpt>
      <trkpt lat="45.00453" lon="4.69032">
        <ele>547</ele>
        <time>2019-01-02T14:01:58+01:00</time>
      </trkpt>
      <trkpt lat="45.00444" lon="4.69026">
        <ele>547</ele>
        <time>2019-01-02T14:02:07+01:00</time>
      </trkpt>
      <trkpt lat="45.00435" lon="4.69017">
        <ele>547</ele>
        <time>2019-01-02T14:02:15+01:00</time>
      </trkpt>
      <trkpt lat="45.00433" lon="4.69015">
        <ele>548</ele>
        <time>2019-01-02T14:02:17+01:00</time>
      </trkpt>
      <trkpt lat="45.00431" lon="4.69014">
        <ele>548</ele>
        <time>2019-01-02T14:02:18+01:00</time>
      </trkpt>
      <trkpt lat="45.00429" lon="4.69012">
        <ele>548</ele>
        <time>2019-01-02T14:02:20+01:00</time>
      </trkpt>
      <trkpt lat="45.00428" lon="4.69011">
        <ele>548</ele>
        <time>2019-01-02T14:02:21+01:00</time>
      </trkpt>
      <trkpt lat="45.00415" lon="4.69002">
        <ele>548</ele>
        <time>2019-01-02T14:02:32+01:00</time>
      </trkpt>
      <trkpt lat="45.00413" lon="4.69001">
        <ele>548</ele>
        <time>2019-01-02T14:02:34+01:00</time>
      </trkpt>
      <trkpt lat="45.00398" lon="4.6899">
        <ele>548</ele>
        <time>2019-01-02T14:02:47+01:00</time>
      </trkpt>
      <trkpt lat="45.00388" lon="4.6898">
        <ele>548</ele>
        <time>2019-01-02T14:02:57+01:00</time>
      </trkpt>
      <trkpt lat="45.0038" lon="4.68971">
        <ele>549</ele>
        <time>2019-01-02T14:03:05+01:00</time>
      </trkpt>
      <trkpt lat="45.0037" lon="4.68959">
        <ele>550</ele>
        <time>2019-01-02T14:03:15+01:00</time>
      </trkpt>
      <trkpt lat="45.00365" lon="4.68951">
        <ele>550</ele>
        <time>2019-01-02T14:03:22+01:00</time>
      </trkpt>
      <trkpt lat="45.00358" lon="4.68943">
        <ele>551</ele>
        <time>2019-01-02T14:03:29+01:00</time>
      </trkpt>
      <trkpt lat="45.00353" lon="4.68936">
        <ele>551</ele>
        <time>2019-01-02T14:03:35+01:00</time>
      </trkpt>
      <trkpt lat="45.00347" lon="4.68929">
        <ele>551</ele>
        <time>2019-01-02T14:03:42+01:00</time>
      </trkpt>
      <trkpt lat="45.00345" lon="4.68927">
        <ele>551</ele>
        <time>2019-01-02T14:03:44+01:00</time>
      </trkpt>
      <trkpt lat="45.00343" lon="4.68924">
        <ele>551</ele>
        <time>2019-01-02T14:03:53+01:00</time>
      </trkpt>
      <trkpt lat="45.0034" lon="4.68921">
        <ele>551</ele>
        <time>2019-01-02T14:04:02+01:00</time>
      </trkpt>
      <trkpt lat="45.00334" lon="4.6892">
        <ele>551</ele>
        <time>2019-01-02T14:04:08+01:00</time>
      </trkpt>
      <trkpt lat="45.00332" lon="4.68919">
        <ele>551</ele>
        <time>2019-01-02T14:04:10+01:00</time>
      </trkpt>
      <trkpt lat="45.00324" lon="4.68916">
        <ele>550</ele>
        <time>2019-01-02T14:04:16+01:00</time>
      </trkpt>
      <trkpt lat="45.00314" lon="4.6891">
        <ele>549</ele>
        <time>2019-01-02T14:04:24+01:00</time>
      </trkpt>
      <trkpt lat="45.00305" lon="4.68902">
        <ele>549</ele>
        <time>2019-01-02T14:04:32+01:00</time>
      </trkpt>
      <trkpt lat="45.00298" lon="4.68897">
        <ele>549</ele>
        <time>2019-01-02T14:04:38+01:00</time>
      </trkpt>
      <trkpt lat="45.00291" lon="4.68891">
        <ele>548</ele>
        <time>2019-01-02T14:04:45+01:00</time>
      </trkpt>
      <trkpt lat="45.00282" lon="4.68885">
        <ele>548</ele>
        <time>2019-01-02T14:04:52+01:00</time>
      </trkpt>
      <trkpt lat="45.00273" lon="4.68877">
        <ele>547</ele>
        <time>2019-01-02T14:05:01+01:00</time>
      </trkpt>
      <trkpt lat="45.00262" lon="4.68869">
        <ele>546</ele>
        <time>2019-01-02T14:05:10+01:00</time>
      </trkpt>
      <trkpt lat="45.00253" lon="4.68863">
        <ele>545</ele>
        <time>2019-01-02T14:05:18+01:00</time>
      </trkpt>
      <trkpt lat="45.00246" lon="4.68859">
        <ele>544</ele>
        <time>2019-01-02T14:05:25+01:00</time>
      </trkpt>
      <trkpt lat="45.00235" lon="4.68852">
        <ele>543</ele>
        <time>2019-01-02T14:05:34+01:00</time>
      </trkpt>
      <trkpt lat="45.00233" lon="4.6885">
        <ele>543</ele>
        <time>2019-01-02T14:05:37+01:00</time>
      </trkpt>
      <trkpt lat="45.00231" lon="4.68848">
        <ele>543</ele>
        <time>2019-01-02T14:05:39+01:00</time>
      </trkpt>
      <trkpt lat="45.0022" lon="4.68841">
        <ele>542</ele>
        <time>2019-01-02T14:05:47+01:00</time>
      </trkpt>
      <trkpt lat="45.0021" lon="4.68836">
        <ele>541</ele>
        <time>2019-01-02T14:05:55+01:00</time>
      </trkpt>
      <trkpt lat="45.00199" lon="4.68829">
        <ele>540</ele>
        <time>2019-01-02T14:06:04+01:00</time>
      </trkpt>
      <trkpt lat="45.00188" lon="4.68823">
        <ele>538</ele>
        <time>2019-01-02T14:06:13+01:00</time>
      </trkpt>
      <trkpt lat="45.00176" lon="4.68817">
        <ele>537</ele>
        <time>2019-01-02T14:06:23+01:00</time>
      </trkpt>
      <trkpt lat="45.00164" lon="4.68817">
        <ele>535</ele>
        <time>2019-01-02T14:06:34+01:00</time>
      </trkpt>
      <trkpt lat="45.00158" lon="4.68819">
        <ele>534</ele>
        <time>2019-01-02T14:06:41+01:00</time>
      </trkpt>
      <trkpt lat="45.00153" lon="4.68822">
        <ele>533</ele>
        <time>2019-01-02T14:06:48+01:00</time>
      </trkpt>
      <trkpt lat="45.00151" lon="4.68824">
        <ele>533</ele>
        <time>2019-01-02T14:06:58+01:00</time>
      </trkpt>
      <trkpt lat="45.0015" lon="4.68828">
        <ele>532</ele>
        <time>2019-01-02T14:07:05+01:00</time>
      </trkpt>
      <trkpt lat="45.00148" lon="4.68835">
        <ele>531</ele>
        <time>2019-01-02T14:07:12+01:00</time>
      </trkpt>
      <trkpt lat="45.00147" lon="4.6884">
        <ele>531</ele>
        <time>2019-01-02T14:07:18+01:00</time>
      </trkpt>
      <trkpt lat="45.00146" lon="4.68853">
        <ele>530</ele>
        <time>2019-01-02T14:07:26+01:00</time>
      </trkpt>
      <trkpt lat="45.00142" lon="4.68871">
        <ele>529</ele>
        <time>2019-01-02T14:07:37+01:00</time>
      </trkpt>
      <trkpt lat="45.00137" lon="4.68884">
        <ele>528</ele>
        <time>2019-01-02T14:07:45+01:00</time>
      </trkpt>
      <trkpt lat="45.00133" lon="4.68895">
        <ele>527</ele>
        <time>2019-01-02T14:07:52+01:00</time>
      </trkpt>
      <trkpt lat="45.00132" lon="4.68904">
        <ele>527</ele>
        <time>2019-01-02T14:07:57+01:00</time>
      </trkpt>
      <trkpt lat="45.00133" lon="4.6892">
        <ele>527</ele>
        <time>2019-01-02T14:08:06+01:00</time>
      </trkpt>
      <trkpt lat="45.00137" lon="4.6893">
        <ele>527</ele>
        <time>2019-01-02T14:08:14+01:00</time>
      </trkpt>
      <trkpt lat="45.00143" lon="4.68947">
        <ele>527</ele>
        <time>2019-01-02T14:08:24+01:00</time>
      </trkpt>
      <trkpt lat="45.00148" lon="4.68959">
        <ele>528</ele>
        <time>2019-01-02T14:08:34+01:00</time>
      </trkpt>
      <trkpt lat="45.00151" lon="4.68971">
        <ele>528</ele>
        <time>2019-01-02T14:08:42+01:00</time>
      </trkpt>
      <trkpt lat="45.00151" lon="4.68973">
        <ele>528</ele>
        <time>2019-01-02T14:08:44+01:00</time>
      </trkpt>
      <trkpt lat="45.00152" lon="4.68977">
        <ele>528</ele>
        <time>2019-01-02T14:08:47+01:00</time>
      </trkpt>
      <trkpt lat="45.00156" lon="4.68993">
        <ele>528</ele>
        <time>2019-01-02T14:08:56+01:00</time>
      </trkpt>
      <trkpt lat="45.00157" lon="4.68999">
        <ele>528</ele>
        <time>2019-01-02T14:08:59+01:00</time>
      </trkpt>
      <trkpt lat="45.0016" lon="4.69015">
        <ele>527</ele>
        <time>2019-01-02T14:09:08+01:00</time>
      </trkpt>
      <trkpt lat="45.00161" lon="4.69033">
        <ele>525</ele>
        <time>2019-01-02T14:09:18+01:00</time>
      </trkpt>
      <trkpt lat="45.00162" lon="4.69045">
        <ele>524</ele>
        <time>2019-01-02T14:09:25+01:00</time>
      </trkpt>
      <trkpt lat="45.00164" lon="4.69057">
        <ele>523</ele>
        <time>2019-01-02T14:09:32+01:00</time>
      </trkpt>
      <trkpt lat="45.00163" lon="4.69061">
        <ele>523</ele>
        <time>2019-01-02T14:09:34+01:00</time>
      </trkpt>
      <trkpt lat="45.00152" lon="4.69064">
        <ele>521</ele>
        <time>2019-01-02T14:09:43+01:00</time>
      </trkpt>
      <trkpt lat="45.00142" lon="4.6906">
        <ele>520</ele>
        <time>2019-01-02T14:09:52+01:00</time>
      </trkpt>
      <trkpt lat="45.00137" lon="4.6906">
        <ele>520</ele>
        <time>2019-01-02T14:09:58+01:00</time>
      </trkpt>
      <trkpt lat="45.00123" lon="4.69066">
        <ele>518</ele>
        <time>2019-01-02T14:10:08+01:00</time>
      </trkpt>
      <trkpt lat="45.00111" lon="4.69064">
        <ele>517</ele>
        <time>2019-01-02T14:10:17+01:00</time>
      </trkpt>
      <trkpt lat="45.001" lon="4.69052">
        <ele>516</ele>
        <time>2019-01-02T14:10:28+01:00</time>
      </trkpt>
      <trkpt lat="45.00094" lon="4.69044">
        <ele>516</ele>
        <time>2019-01-02T14:10:34+01:00</time>
      </trkpt>
      <trkpt lat="45.00085" lon="4.69032">
        <ele>516</ele>
        <time>2019-01-02T14:10:44+01:00</time>
      </trkpt>
      <trkpt lat="45.00077" lon="4.69021">
        <ele>515</ele>
        <time>2019-01-02T14:10:53+01:00</time>
      </trkpt>
      <trkpt lat="45.00077" lon="4.69019">
        <ele>515</ele>
        <time>2019-01-02T14:10:54+01:00</time>
      </trkpt>
      <trkpt lat="45.00071" lon="4.69008">
        <ele>515</ele>
        <time>2019-01-02T14:11:03+01:00</time>
      </trkpt>
      <trkpt lat="45.00065" lon="4.68997">
        <ele>515</ele>
        <time>2019-01-02T14:11:11+01:00</time>
      </trkpt>
      <trkpt lat="45.00065" lon="4.68995">
        <ele>514</ele>
        <time>2019-01-02T14:11:12+01:00</time>
      </trkpt>
      <trkpt lat="45.00064" lon="4.68991">
        <ele>514</ele>
        <time>2019-01-02T14:11:14+01:00</time>
      </trkpt>
      <trkpt lat="45.00056" lon="4.68973">
        <ele>513</ele>
        <time>2019-01-02T14:11:26+01:00</time>
      </trkpt>
      <trkpt lat="45.00053" lon="4.68959">
        <ele>513</ele>
        <time>2019-01-02T14:11:34+01:00</time>
      </trkpt>
      <trkpt lat="45.00052" lon="4.68942">
        <ele>513</ele>
        <time>2019-01-02T14:11:44+01:00</time>
      </trkpt>
      <trkpt lat="45.00051" lon="4.68929">
        <ele>513</ele>
        <time>2019-01-02T14:11:52+01:00</time>
      </trkpt>
      <trkpt lat="45.00055" lon="4.68913">
        <ele>514</ele>
        <time>2019-01-02T14:12:02+01:00</time>
      </trkpt>
      <trkpt lat="45.00058" lon="4.68906">
        <ele>515</ele>
        <time>2019-01-02T14:12:07+01:00</time>
      </trkpt>
      <trkpt lat="45.00061" lon="4.68892">
        <ele>517</ele>
        <time>2019-01-02T14:12:16+01:00</time>
      </trkpt>
      <trkpt lat="45.0006" lon="4.68885">
        <ele>517</ele>
        <time>2019-01-02T14:12:21+01:00</time>
      </trkpt>
      <trkpt lat="45.00056" lon="4.6888">
        <ele>517</ele>
        <time>2019-01-02T14:12:26+01:00</time>
      </trkpt>
      <trkpt lat="45.00054" lon="4.68876">
        <ele>517</ele>
        <time>2019-01-02T14:12:29+01:00</time>
      </trkpt>
      <trkpt lat="45.00047" lon="4.68869">
        <ele>516</ele>
        <time>2019-01-02T14:12:36+01:00</time>
      </trkpt>
      <trkpt lat="45.00041" lon="4.68865">
        <ele>516</ele>
        <time>2019-01-02T14:12:43+01:00</time>
      </trkpt>
      <trkpt lat="45.00031" lon="4.68862">
        <ele>515</ele>
        <time>2019-01-02T14:12:50+01:00</time>
      </trkpt>
      <trkpt lat="45.0002" lon="4.68862">
        <ele>513</ele>
        <time>2019-01-02T14:12:58+01:00</time>
      </trkpt>
      <trkpt lat="45.00009" lon="4.68857">
        <ele>513</ele>
        <time>2019-01-02T14:13:07+01:00</time>
      </trkpt>
      <trkpt lat="45.00001" lon="4.68851">
        <ele>512</ele>
        <time>2019-01-02T14:13:13+01:00</time>
      </trkpt>
      <trkpt lat="44.99992" lon="4.68842">
        <ele>513</ele>
        <time>2019-01-02T14:13:22+01:00</time>
      </trkpt>
      <trkpt lat="44.99985" lon="4.68831">
        <ele>514</ele>
        <time>2019-01-02T14:13:31+01:00</time>
      </trkpt>
      <trkpt lat="44.99979" lon="4.68824">
        <ele>515</ele>
        <time>2019-01-02T14:13:37+01:00</time>
      </trkpt>
      <trkpt lat="44.9997" lon="4.68817">
        <ele>516</ele>
        <time>2019-01-02T14:13:45+01:00</time>
      </trkpt>
      <trkpt lat="44.99963" lon="4.68814">
        <ele>516</ele>
        <time>2019-01-02T14:13:52+01:00</time>
      </trkpt>
      <trkpt lat="44.9996" lon="4.68813">
        <ele>516</ele>
        <time>2019-01-02T14:13:55+01:00</time>
      </trkpt>
      <trkpt lat="44.99949" lon="4.68823">
        <ele>514</ele>
        <time>2019-01-02T14:14:05+01:00</time>
      </trkpt>
      <trkpt lat="44.99949" lon="4.68828">
        <ele>514</ele>
        <time>2019-01-02T14:14:08+01:00</time>
      </trkpt>
      <trkpt lat="44.99952" lon="4.68843">
        <ele>512</ele>
        <time>2019-01-02T14:14:16+01:00</time>
      </trkpt>
      <trkpt lat="44.99956" lon="4.68856">
        <ele>510</ele>
        <time>2019-01-02T14:14:24+01:00</time>
      </trkpt>
      <trkpt lat="44.9996" lon="4.68871">
        <ele>509</ele>
        <time>2019-01-02T14:14:33+01:00</time>
      </trkpt>
      <trkpt lat="44.9996" lon="4.68883">
        <ele>508</ele>
        <time>2019-01-02T14:14:40+01:00</time>
      </trkpt>
      <trkpt lat="44.99953" lon="4.68893">
        <ele>506</ele>
        <time>2019-01-02T14:14:48+01:00</time>
      </trkpt>
      <trkpt lat="44.9995" lon="4.68896">
        <ele>506</ele>
        <time>2019-01-02T14:14:51+01:00</time>
      </trkpt>
      <trkpt lat="44.99938" lon="4.68906">
        <ele>505</ele>
        <time>2019-01-02T14:15:02+01:00</time>
      </trkpt>
      <trkpt lat="44.9993" lon="4.6891">
        <ele>504</ele>
        <time>2019-01-02T14:15:09+01:00</time>
      </trkpt>
      <trkpt lat="44.99919" lon="4.68908">
        <ele>504</ele>
        <time>2019-01-02T14:15:18+01:00</time>
      </trkpt>
      <trkpt lat="44.99907" lon="4.68903">
        <ele>504</ele>
        <time>2019-01-02T14:15:28+01:00</time>
      </trkpt>
      <trkpt lat="44.99895" lon="4.68898">
        <ele>505</ele>
        <time>2019-01-02T14:15:39+01:00</time>
      </trkpt>
      <trkpt lat="44.99883" lon="4.68897">
        <ele>505</ele>
        <time>2019-01-02T14:15:48+01:00</time>
      </trkpt>
      <trkpt lat="44.9988" lon="4.68897">
        <ele>505</ele>
        <time>2019-01-02T14:15:51+01:00</time>
      </trkpt>
      <trkpt lat="44.99868" lon="4.68902">
        <ele>504</ele>
        <time>2019-01-02T14:16:00+01:00</time>
      </trkpt>
      <trkpt lat="44.99863" lon="4.68906">
        <ele>503</ele>
        <time>2019-01-02T14:16:05+01:00</time>
      </trkpt>
      <trkpt lat="44.99857" lon="4.68921">
        <ele>502</ele>
        <time>2019-01-02T14:16:14+01:00</time>
      </trkpt>
      <trkpt lat="44.99855" lon="4.68929">
        <ele>501</ele>
        <time>2019-01-02T14:16:19+01:00</time>
      </trkpt>
      <trkpt lat="44.99851" lon="4.68945">
        <ele>499</ele>
        <time>2019-01-02T14:16:29+01:00</time>
      </trkpt>
      <trkpt lat="44.99849" lon="4.68957">
        <ele>497</ele>
        <time>2019-01-02T14:16:36+01:00</time>
      </trkpt>
      <trkpt lat="44.99842" lon="4.68969">
        <ele>496</ele>
        <time>2019-01-02T14:16:45+01:00</time>
      </trkpt>
      <trkpt lat="44.99832" lon="4.68974">
        <ele>495</ele>
        <time>2019-01-02T14:16:54+01:00</time>
      </trkpt>
      <trkpt lat="44.99818" lon="4.68974">
        <ele>495</ele>
        <time>2019-01-02T14:17:05+01:00</time>
      </trkpt>
      <trkpt lat="44.99807" lon="4.68973">
        <ele>495</ele>
        <time>2019-01-02T14:17:14+01:00</time>
      </trkpt>
      <trkpt lat="44.99792" lon="4.68971">
        <ele>496</ele>
        <time>2019-01-02T14:17:26+01:00</time>
      </trkpt>
      <trkpt lat="44.9978" lon="4.68968">
        <ele>496</ele>
        <time>2019-01-02T14:17:35+01:00</time>
      </trkpt>
      <trkpt lat="44.99768" lon="4.68968">
        <ele>496</ele>
        <time>2019-01-02T14:17:44+01:00</time>
      </trkpt>
      <trkpt lat="44.99754" lon="4.68971">
        <ele>496</ele>
        <time>2019-01-02T14:17:56+01:00</time>
      </trkpt>
      <trkpt lat="44.99746" lon="4.68977">
        <ele>494</ele>
        <time>2019-01-02T14:18:04+01:00</time>
      </trkpt>
      <trkpt lat="44.99739" lon="4.68981">
        <ele>494</ele>
        <time>2019-01-02T14:18:11+01:00</time>
      </trkpt>
      <trkpt lat="44.99729" lon="4.68985">
        <ele>492</ele>
        <time>2019-01-02T14:18:19+01:00</time>
      </trkpt>
      <trkpt lat="44.99719" lon="4.68991">
        <ele>491</ele>
        <time>2019-01-02T14:18:28+01:00</time>
      </trkpt>
      <trkpt lat="44.99706" lon="4.68992">
        <ele>490</ele>
        <time>2019-01-02T14:18:38+01:00</time>
      </trkpt>
      <trkpt lat="44.99694" lon="4.6899">
        <ele>490</ele>
        <time>2019-01-02T14:18:48+01:00</time>
      </trkpt>
      <trkpt lat="44.99692" lon="4.68989">
        <ele>490</ele>
        <time>2019-01-02T14:18:49+01:00</time>
      </trkpt>
      <trkpt lat="44.99687" lon="4.68986">
        <ele>490</ele>
        <time>2019-01-02T14:18:53+01:00</time>
      </trkpt>
      <trkpt lat="44.99677" lon="4.68975">
        <ele>490</ele>
        <time>2019-01-02T14:19:03+01:00</time>
      </trkpt>
      <trkpt lat="44.9967" lon="4.68962">
        <ele>491</ele>
        <time>2019-01-02T14:19:13+01:00</time>
      </trkpt>
      <trkpt lat="44.99663" lon="4.6895">
        <ele>492</ele>
        <time>2019-01-02T14:19:22+01:00</time>
      </trkpt>
      <trkpt lat="44.99658" lon="4.68941">
        <ele>493</ele>
        <time>2019-01-02T14:19:29+01:00</time>
      </trkpt>
      <trkpt lat="44.99652" lon="4.68929">
        <ele>494</ele>
        <time>2019-01-02T14:19:38+01:00</time>
      </trkpt>
      <trkpt lat="44.99646" lon="4.68921">
        <ele>494</ele>
        <time>2019-01-02T14:19:47+01:00</time>
      </trkpt>
      <trkpt lat="44.99636" lon="4.68909">
        <ele>495</ele>
        <time>2019-01-02T14:19:55+01:00</time>
      </trkpt>
      <trkpt lat="44.99627" lon="4.68901">
        <ele>495</ele>
        <time>2019-01-02T14:20:03+01:00</time>
      </trkpt>
      <trkpt lat="44.99614" lon="4.68903">
        <ele>494</ele>
        <time>2019-01-02T14:20:12+01:00</time>
      </trkpt>
      <trkpt lat="44.99606" lon="4.68909">
        <ele>493</ele>
        <time>2019-01-02T14:20:20+01:00</time>
      </trkpt>
      <trkpt lat="44.996" lon="4.68918">
        <ele>492</ele>
        <time>2019-01-02T14:20:27+01:00</time>
      </trkpt>
      <trkpt lat="44.99595" lon="4.68925">
        <ele>491</ele>
        <time>2019-01-02T14:20:33+01:00</time>
      </trkpt>
      <trkpt lat="44.99595" lon="4.68929">
        <ele>491</ele>
        <time>2019-01-02T14:20:36+01:00</time>
      </trkpt>
      <trkpt lat="44.99591" lon="4.68943">
        <ele>489</ele>
        <time>2019-01-02T14:20:44+01:00</time>
      </trkpt>
      <trkpt lat="44.9959" lon="4.68947">
        <ele>489</ele>
        <time>2019-01-02T14:20:46+01:00</time>
      </trkpt>
      <trkpt lat="44.99587" lon="4.68957">
        <ele>487</ele>
        <time>2019-01-02T14:20:53+01:00</time>
      </trkpt>
      <trkpt lat="44.99583" lon="4.68971">
        <ele>486</ele>
        <time>2019-01-02T14:21:02+01:00</time>
      </trkpt>
      <trkpt lat="44.99578" lon="4.68984">
        <ele>484</ele>
        <time>2019-01-02T14:21:10+01:00</time>
      </trkpt>
      <trkpt lat="44.99575" lon="4.68992">
        <ele>483</ele>
        <time>2019-01-02T14:21:18+01:00</time>
      </trkpt>
      <trkpt lat="44.99572" lon="4.68999">
        <ele>482</ele>
        <time>2019-01-02T14:21:23+01:00</time>
      </trkpt>
      <trkpt lat="44.99564" lon="4.69009">
        <ele>480</ele>
        <time>2019-01-02T14:21:33+01:00</time>
      </trkpt>
      <trkpt lat="44.99554" lon="4.69012">
        <ele>478</ele>
        <time>2019-01-02T14:21:43+01:00</time>
      </trkpt>
      <trkpt lat="44.99548" lon="4.69009">
        <ele>478</ele>
        <time>2019-01-02T14:21:51+01:00</time>
      </trkpt>
      <trkpt lat="44.99538" lon="4.68999">
        <ele>479</ele>
        <time>2019-01-02T14:22:02+01:00</time>
      </trkpt>
      <trkpt lat="44.99534" lon="4.68994">
        <ele>479</ele>
        <time>2019-01-02T14:22:06+01:00</time>
      </trkpt>
      <trkpt lat="44.99529" lon="4.68979">
        <ele>481</ele>
        <time>2019-01-02T14:22:16+01:00</time>
      </trkpt>
      <trkpt lat="44.99529" lon="4.68961">
        <ele>483</ele>
        <time>2019-01-02T14:22:26+01:00</time>
      </trkpt>
      <trkpt lat="44.99528" lon="4.68946">
        <ele>486</ele>
        <time>2019-01-02T14:22:35+01:00</time>
      </trkpt>
      <trkpt lat="44.99524" lon="4.68931">
        <ele>488</ele>
        <time>2019-01-02T14:22:44+01:00</time>
      </trkpt>
      <trkpt lat="44.99509" lon="4.68932">
        <ele>487</ele>
        <time>2019-01-02T14:22:52+01:00</time>
      </trkpt>
      <trkpt lat="44.99506" lon="4.68946">
        <ele>484</ele>
        <time>2019-01-02T14:23:00+01:00</time>
      </trkpt>
      <trkpt lat="44.99499" lon="4.68959">
        <ele>482</ele>
        <time>2019-01-02T14:23:10+01:00</time>
      </trkpt>
      <trkpt lat="44.99489" lon="4.68971">
        <ele>478</ele>
        <time>2019-01-02T14:23:20+01:00</time>
      </trkpt>
      <trkpt lat="44.99481" lon="4.6898">
        <ele>476</ele>
        <time>2019-01-02T14:23:29+01:00</time>
      </trkpt>
      <trkpt lat="44.99472" lon="4.68986">
        <ele>473</ele>
        <time>2019-01-02T14:23:38+01:00</time>
      </trkpt>
      <trkpt lat="44.99462" lon="4.68982">
        <ele>472</ele>
        <time>2019-01-02T14:23:46+01:00</time>
      </trkpt>
      <trkpt lat="44.99454" lon="4.68979">
        <ele>472</ele>
        <time>2019-01-02T14:23:55+01:00</time>
      </trkpt>
      <trkpt lat="44.99447" lon="4.68974">
        <ele>471</ele>
        <time>2019-01-02T14:24:04+01:00</time>
      </trkpt>
      <trkpt lat="44.99442" lon="4.68972">
        <ele>471</ele>
        <time>2019-01-02T14:24:09+01:00</time>
      </trkpt>
      <trkpt lat="44.99431" lon="4.68969">
        <ele>470</ele>
        <time>2019-01-02T14:24:19+01:00</time>
      </trkpt>
      <trkpt lat="44.99422" lon="4.68966">
        <ele>470</ele>
        <time>2019-01-02T14:24:27+01:00</time>
      </trkpt>
      <trkpt lat="44.99411" lon="4.68959">
        <ele>469</ele>
        <time>2019-01-02T14:24:36+01:00</time>
      </trkpt>
      <trkpt lat="44.99402" lon="4.68951">
        <ele>468</ele>
        <time>2019-01-02T14:24:45+01:00</time>
      </trkpt>
      <trkpt lat="44.99393" lon="4.68941">
        <ele>467</ele>
        <time>2019-01-02T14:24:54+01:00</time>
      </trkpt>
      <trkpt lat="44.99388" lon="4.68935">
        <ele>467</ele>
        <time>2019-01-02T14:24:59+01:00</time>
      </trkpt>
      <trkpt lat="44.99377" lon="4.68924">
        <ele>465</ele>
        <time>2019-01-02T14:25:09+01:00</time>
      </trkpt>
      <trkpt lat="44.9937" lon="4.68911">
        <ele>466</ele>
        <time>2019-01-02T14:25:16+01:00</time>
      </trkpt>
      <trkpt lat="44.99362" lon="4.68902">
        <ele>465</ele>
        <time>2019-01-02T14:25:24+01:00</time>
      </trkpt>
      <trkpt lat="44.99352" lon="4.68891">
        <ele>464</ele>
        <time>2019-01-02T14:25:33+01:00</time>
      </trkpt>
      <trkpt lat="44.99343" lon="4.68879">
        <ele>464</ele>
        <time>2019-01-02T14:25:42+01:00</time>
      </trkpt>
      <trkpt lat="44.99336" lon="4.68869">
        <ele>464</ele>
        <time>2019-01-02T14:25:52+01:00</time>
      </trkpt>
      <trkpt lat="44.9933" lon="4.6886">
        <ele>465</ele>
        <time>2019-01-02T14:26:00+01:00</time>
      </trkpt>
      <trkpt lat="44.9932" lon="4.68851">
        <ele>464</ele>
        <time>2019-01-02T14:26:10+01:00</time>
      </trkpt>
      <trkpt lat="44.99312" lon="4.68843">
        <ele>463</ele>
        <time>2019-01-02T14:26:20+01:00</time>
      </trkpt>
      <trkpt lat="44.99304" lon="4.68835">
        <ele>463</ele>
        <time>2019-01-02T14:26:29+01:00</time>
      </trkpt>
      <trkpt lat="44.99294" lon="4.68823">
        <ele>462</ele>
        <time>2019-01-02T14:26:38+01:00</time>
      </trkpt>
      <trkpt lat="44.99284" lon="4.68815">
        <ele>460</ele>
        <time>2019-01-02T14:26:47+01:00</time>
      </trkpt>
      <trkpt lat="44.99275" lon="4.68807">
        <ele>459</ele>
        <time>2019-01-02T14:26:55+01:00</time>
      </trkpt>
      <trkpt lat="44.99267" lon="4.68803">
        <ele>457</ele>
        <time>2019-01-02T14:27:03+01:00</time>
      </trkpt>
      <trkpt lat="44.99258" lon="4.68796">
        <ele>456</ele>
        <time>2019-01-02T14:27:13+01:00</time>
      </trkpt>
      <trkpt lat="44.99251" lon="4.68794">
        <ele>454</ele>
        <time>2019-01-02T14:27:24+01:00</time>
      </trkpt>
      <trkpt lat="44.99249" lon="4.68793">
        <ele>454</ele>
        <time>2019-01-02T14:27:33+01:00</time>
      </trkpt>
      <trkpt lat="44.99244" lon="4.6879">
        <ele>453</ele>
        <time>2019-01-02T14:27:44+01:00</time>
      </trkpt>
      <trkpt lat="44.99239" lon="4.68789">
        <ele>453</ele>
        <time>2019-01-02T14:27:54+01:00</time>
      </trkpt>
      <trkpt lat="44.99236" lon="4.68782">
        <ele>453</ele>
        <time>2019-01-02T14:28:00+01:00</time>
      </trkpt>
      <trkpt lat="44.9923" lon="4.68776">
        <ele>453</ele>
        <time>2019-01-02T14:28:08+01:00</time>
      </trkpt>
      <trkpt lat="44.99224" lon="4.6877">
        <ele>453</ele>
        <time>2019-01-02T14:28:17+01:00</time>
      </trkpt>
      <trkpt lat="44.99219" lon="4.68764">
        <ele>453</ele>
        <time>2019-01-02T14:28:25+01:00</time>
      </trkpt>
      <trkpt lat="44.9922" lon="4.68769">
        <ele>452</ele>
        <time>2019-01-02T14:28:31+01:00</time>
      </trkpt>
      <trkpt lat="44.99221" lon="4.68766">
        <ele>453</ele>
        <time>2019-01-02T14:28:41+01:00</time>
      </trkpt>
      <trkpt lat="44.99223" lon="4.68767">
        <ele>453</ele>
        <time>2019-01-02T14:28:50+01:00</time>
      </trkpt>
      <trkpt lat="44.99225" lon="4.68768">
        <ele>454</ele>
        <time>2019-01-02T14:29:02+01:00</time>
      </trkpt>
      <trkpt lat="44.99222" lon="4.68763">
        <ele>454</ele>
        <time>2019-01-02T14:29:15+01:00</time>
      </trkpt>
      <trkpt lat="44.99221" lon="4.68773">
        <ele>452</ele>
        <time>2019-01-02T14:29:24+01:00</time>
      </trkpt>
      <trkpt lat="44.9922" lon="4.68777">
        <ele>451</ele>
        <time>2019-01-02T14:29:32+01:00</time>
      </trkpt>
      <trkpt lat="44.99223" lon="4.68772">
        <ele>453</ele>
        <time>2019-01-02T14:29:45+01:00</time>
      </trkpt>
      <trkpt lat="44.99222" lon="4.68766">
        <ele>453</ele>
        <time>2019-01-02T14:29:52+01:00</time>
      </trkpt>
      <trkpt lat="44.99219" lon="4.68761">
        <ele>453</ele>
        <time>2019-01-02T14:29:58+01:00</time>
      </trkpt>
      <trkpt lat="44.99213" lon="4.68755">
        <ele>453</ele>
        <time>2019-01-02T14:30:07+01:00</time>
      </trkpt>
      <trkpt lat="44.99212" lon="4.68757">
        <ele>452</ele>
        <time>2019-01-02T14:30:12+01:00</time>
      </trkpt>
      <trkpt lat="44.99207" lon="4.68754">
        <ele>452</ele>
        <time>2019-01-02T14:30:19+01:00</time>
      </trkpt>
      <trkpt lat="44.99203" lon="4.6875">
        <ele>451</ele>
        <time>2019-01-02T14:30:32+01:00</time>
      </trkpt>
      <trkpt lat="44.99201" lon="4.68737">
        <ele>452</ele>
        <time>2019-01-02T14:30:40+01:00</time>
      </trkpt>
      <trkpt lat="44.99199" lon="4.68734">
        <ele>452</ele>
        <time>2019-01-02T14:30:45+01:00</time>
      </trkpt>
      <trkpt lat="44.99196" lon="4.68732">
        <ele>451</ele>
        <time>2019-01-02T14:30:53+01:00</time>
      </trkpt>
      <trkpt lat="44.9919" lon="4.68732">
        <ele>450</ele>
        <time>2019-01-02T14:31:03+01:00</time>
      </trkpt>
      <trkpt lat="44.99183" lon="4.68728">
        <ele>449</ele>
        <time>2019-01-02T14:31:12+01:00</time>
      </trkpt>
      <trkpt lat="44.99178" lon="4.68737">
        <ele>447</ele>
        <time>2019-01-02T14:31:20+01:00</time>
      </trkpt>
      <trkpt lat="44.99175" lon="4.68744">
        <ele>446</ele>
        <time>2019-01-02T14:31:28+01:00</time>
      </trkpt>
      <trkpt lat="44.9917" lon="4.68749">
        <ele>444</ele>
        <time>2019-01-02T14:31:35+01:00</time>
      </trkpt>
      <trkpt lat="44.99162" lon="4.68748">
        <ele>443</ele>
        <time>2019-01-02T14:31:43+01:00</time>
      </trkpt>
      <trkpt lat="44.99154" lon="4.68746">
        <ele>443</ele>
        <time>2019-01-02T14:31:50+01:00</time>
      </trkpt>
      <trkpt lat="44.99144" lon="4.68742">
        <ele>444</ele>
        <time>2019-01-02T14:31:59+01:00</time>
      </trkpt>
      <trkpt lat="44.99135" lon="4.68734">
        <ele>445</ele>
        <time>2019-01-02T14:32:09+01:00</time>
      </trkpt>
      <trkpt lat="44.99128" lon="4.68739">
        <ele>444</ele>
        <time>2019-01-02T14:32:17+01:00</time>
      </trkpt>
      <trkpt lat="44.99127" lon="4.68748">
        <ele>443</ele>
        <time>2019-01-02T14:32:25+01:00</time>
      </trkpt>
      <trkpt lat="44.99123" lon="4.68759">
        <ele>443</ele>
        <time>2019-01-02T14:32:32+01:00</time>
      </trkpt>
      <trkpt lat="44.99127" lon="4.68772">
        <ele>442</ele>
        <time>2019-01-02T14:32:40+01:00</time>
      </trkpt>
      <trkpt lat="44.99127" lon="4.68777">
        <ele>442</ele>
        <time>2019-01-02T14:32:44+01:00</time>
      </trkpt>
      <trkpt lat="44.99132" lon="4.68789">
        <ele>441</ele>
        <time>2019-01-02T14:32:52+01:00</time>
      </trkpt>
      <trkpt lat="44.99133" lon="4.68799">
        <ele>441</ele>
        <time>2019-01-02T14:33:00+01:00</time>
      </trkpt>
      <trkpt lat="44.99132" lon="4.68816">
        <ele>440</ele>
        <time>2019-01-02T14:33:10+01:00</time>
      </trkpt>
      <trkpt lat="44.9913" lon="4.68821">
        <ele>440</ele>
        <time>2019-01-02T14:33:14+01:00</time>
      </trkpt>
      <trkpt lat="44.99126" lon="4.68836">
        <ele>440</ele>
        <time>2019-01-02T14:33:23+01:00</time>
      </trkpt>
      <trkpt lat="44.99119" lon="4.68849">
        <ele>440</ele>
        <time>2019-01-02T14:33:33+01:00</time>
      </trkpt>
      <trkpt lat="44.99116" lon="4.68852">
        <ele>440</ele>
        <time>2019-01-02T14:33:36+01:00</time>
      </trkpt>
      <trkpt lat="44.99115" lon="4.68866">
        <ele>441</ele>
        <time>2019-01-02T14:33:45+01:00</time>
      </trkpt>
      <trkpt lat="44.99118" lon="4.6887">
        <ele>441</ele>
        <time>2019-01-02T14:33:48+01:00</time>
      </trkpt>
      <trkpt lat="44.99124" lon="4.68878">
        <ele>441</ele>
        <time>2019-01-02T14:33:57+01:00</time>
      </trkpt>
      <trkpt lat="44.99128" lon="4.68878">
        <ele>441</ele>
        <time>2019-01-02T14:34:04+01:00</time>
      </trkpt>
      <trkpt lat="44.99132" lon="4.68876">
        <ele>441</ele>
        <time>2019-01-02T14:34:12+01:00</time>
      </trkpt>
      <trkpt lat="44.99136" lon="4.6888">
        <ele>441</ele>
        <time>2019-01-02T14:34:21+01:00</time>
      </trkpt>
      <trkpt lat="44.99145" lon="4.68887">
        <ele>441</ele>
        <time>2019-01-02T14:34:29+01:00</time>
      </trkpt>
      <trkpt lat="44.99152" lon="4.68892">
        <ele>441</ele>
        <time>2019-01-02T14:34:38+01:00</time>
      </trkpt>
      <trkpt lat="44.9916" lon="4.68898">
        <ele>441</ele>
        <time>2019-01-02T14:34:47+01:00</time>
      </trkpt>
      <trkpt lat="44.99168" lon="4.68905">
        <ele>441</ele>
        <time>2019-01-02T14:34:55+01:00</time>
      </trkpt>
      <trkpt lat="44.99177" lon="4.68915">
        <ele>441</ele>
        <time>2019-01-02T14:35:04+01:00</time>
      </trkpt>
      <trkpt lat="44.99187" lon="4.68925">
        <ele>441</ele>
        <time>2019-01-02T14:35:14+01:00</time>
      </trkpt>
      <trkpt lat="44.99194" lon="4.68939">
        <ele>442</ele>
        <time>2019-01-02T14:35:25+01:00</time>
      </trkpt>
      <trkpt lat="44.99202" lon="4.68949">
        <ele>442</ele>
        <time>2019-01-02T14:35:32+01:00</time>
      </trkpt>
      <trkpt lat="44.99207" lon="4.68961">
        <ele>442</ele>
        <time>2019-01-02T14:35:40+01:00</time>
      </trkpt>
      <trkpt lat="44.99211" lon="4.68969">
        <ele>442</ele>
        <time>2019-01-02T14:35:47+01:00</time>
      </trkpt>
      <trkpt lat="44.99212" lon="4.68973">
        <ele>442</ele>
        <time>2019-01-02T14:35:50+01:00</time>
      </trkpt>
      <trkpt lat="44.99208" lon="4.68981">
        <ele>443</ele>
        <time>2019-01-02T14:35:58+01:00</time>
      </trkpt>
      <trkpt lat="44.99203" lon="4.68982">
        <ele>443</ele>
        <time>2019-01-02T14:36:05+01:00</time>
      </trkpt>
      <trkpt lat="44.99202" lon="4.68982">
        <ele>443</ele>
        <time>2019-01-02T14:36:06+01:00</time>
      </trkpt>
      <trkpt lat="44.99194" lon="4.6898">
        <ele>444</ele>
        <time>2019-01-02T14:36:13+01:00</time>
      </trkpt>
      <trkpt lat="44.99185" lon="4.68979">
        <ele>445</ele>
        <time>2019-01-02T14:36:21+01:00</time>
      </trkpt>
      <trkpt lat="44.99179" lon="4.68981">
        <ele>445</ele>
        <time>2019-01-02T14:36:28+01:00</time>
      </trkpt>
      <trkpt lat="44.99173" lon="4.68984">
        <ele>446</ele>
        <time>2019-01-02T14:36:36+01:00</time>
      </trkpt>
      <trkpt lat="44.99167" lon="4.68987">
        <ele>447</ele>
        <time>2019-01-02T14:36:43+01:00</time>
      </trkpt>
      <trkpt lat="44.99161" lon="4.68991">
        <ele>448</ele>
        <time>2019-01-02T14:36:50+01:00</time>
      </trkpt>
      <trkpt lat="44.99154" lon="4.68994">
        <ele>449</ele>
        <time>2019-01-02T14:36:57+01:00</time>
      </trkpt>
      <trkpt lat="44.99149" lon="4.68998">
        <ele>449</ele>
        <time>2019-01-02T14:37:04+01:00</time>
      </trkpt>
      <trkpt lat="44.99144" lon="4.69001">
        <ele>450</ele>
        <time>2019-01-02T14:37:11+01:00</time>
      </trkpt>
      <trkpt lat="44.99139" lon="4.69003">
        <ele>451</ele>
        <time>2019-01-02T14:37:18+01:00</time>
      </trkpt>
      <trkpt lat="44.99135" lon="4.69008">
        <ele>452</ele>
        <time>2019-01-02T14:37:24+01:00</time>
      </trkpt>
      <trkpt lat="44.99128" lon="4.69011">
        <ele>452</ele>
        <time>2019-01-02T14:37:34+01:00</time>
      </trkpt>
      <trkpt lat="44.99121" lon="4.69014">
        <ele>453</ele>
        <time>2019-01-02T14:37:42+01:00</time>
      </trkpt>
      <trkpt lat="44.99115" lon="4.69018">
        <ele>454</ele>
        <time>2019-01-02T14:37:50+01:00</time>
      </trkpt>
      <trkpt lat="44.99112" lon="4.6902">
        <ele>455</ele>
        <time>2019-01-02T14:37:54+01:00</time>
      </trkpt>
      <trkpt lat="44.99109" lon="4.69021">
        <ele>455</ele>
        <time>2019-01-02T14:37:57+01:00</time>
      </trkpt>
      <trkpt lat="44.99101" lon="4.69024">
        <ele>456</ele>
        <time>2019-01-02T14:38:06+01:00</time>
      </trkpt>
      <trkpt lat="44.99094" lon="4.69024">
        <ele>457</ele>
        <time>2019-01-02T14:38:12+01:00</time>
      </trkpt>
      <trkpt lat="44.99087" lon="4.69021">
        <ele>457</ele>
        <time>2019-01-02T14:38:19+01:00</time>
      </trkpt>
      <trkpt lat="44.99085" lon="4.6902">
        <ele>457</ele>
        <time>2019-01-02T14:38:21+01:00</time>
      </trkpt>
      <trkpt lat="44.99082" lon="4.69019">
        <ele>457</ele>
        <time>2019-01-02T14:38:25+01:00</time>
      </trkpt>
      <trkpt lat="44.99076" lon="4.69015">
        <ele>458</ele>
        <time>2019-01-02T14:38:34+01:00</time>
      </trkpt>
      <trkpt lat="44.99075" lon="4.69016">
        <ele>458</ele>
        <time>2019-01-02T14:38:35+01:00</time>
      </trkpt>
      <trkpt lat="44.9907" lon="4.69035">
        <ele>460</ele>
        <time>2019-01-02T14:38:46+01:00</time>
      </trkpt>
      <trkpt lat="44.99066" lon="4.69045">
        <ele>461</ele>
        <time>2019-01-02T14:38:54+01:00</time>
      </trkpt>
      <trkpt lat="44.99061" lon="4.69047">
        <ele>462</ele>
        <time>2019-01-02T14:39:00+01:00</time>
      </trkpt>
      <trkpt lat="44.9906" lon="4.69047">
        <ele>462</ele>
        <time>2019-01-02T14:39:01+01:00</time>
      </trkpt>
      <trkpt lat="44.99051" lon="4.69048">
        <ele>463</ele>
        <time>2019-01-02T14:39:09+01:00</time>
      </trkpt>
      <trkpt lat="44.99041" lon="4.69045">
        <ele>463</ele>
        <time>2019-01-02T14:39:18+01:00</time>
      </trkpt>
      <trkpt lat="44.99035" lon="4.69043">
        <ele>464</ele>
        <time>2019-01-02T14:39:25+01:00</time>
      </trkpt>
      <trkpt lat="44.9903" lon="4.69039">
        <ele>464</ele>
        <time>2019-01-02T14:39:34+01:00</time>
      </trkpt>
      <trkpt lat="44.99021" lon="4.69035">
        <ele>464</ele>
        <time>2019-01-02T14:39:42+01:00</time>
      </trkpt>
      <trkpt lat="44.99011" lon="4.69033">
        <ele>465</ele>
        <time>2019-01-02T14:39:50+01:00</time>
      </trkpt>
      <trkpt lat="44.99003" lon="4.69032">
        <ele>465</ele>
        <time>2019-01-02T14:39:57+01:00</time>
      </trkpt>
      <trkpt lat="44.98992" lon="4.6903">
        <ele>466</ele>
        <time>2019-01-02T14:40:06+01:00</time>
      </trkpt>
      <trkpt lat="44.98981" lon="4.69026">
        <ele>465</ele>
        <time>2019-01-02T14:40:15+01:00</time>
      </trkpt>
      <trkpt lat="44.9897" lon="4.69024">
        <ele>465</ele>
        <time>2019-01-02T14:40:24+01:00</time>
      </trkpt>
      <trkpt lat="44.98963" lon="4.69023">
        <ele>466</ele>
        <time>2019-01-02T14:40:30+01:00</time>
      </trkpt>
      <trkpt lat="44.98953" lon="4.69023">
        <ele>466</ele>
        <time>2019-01-02T14:40:39+01:00</time>
      </trkpt>
      <trkpt lat="44.98942" lon="4.69023">
        <ele>466</ele>
        <time>2019-01-02T14:40:48+01:00</time>
      </trkpt>
      <trkpt lat="44.98943" lon="4.69028">
        <ele>467</ele>
        <time>2019-01-02T14:40:55+01:00</time>
      </trkpt>
      <trkpt lat="44.98937" lon="4.69028">
        <ele>467</ele>
        <time>2019-01-02T14:41:03+01:00</time>
      </trkpt>
      <trkpt lat="44.98928" lon="4.69027">
        <ele>467</ele>
        <time>2019-01-02T14:41:11+01:00</time>
      </trkpt>
      <trkpt lat="44.98919" lon="4.69028">
        <ele>468</ele>
        <time>2019-01-02T14:41:19+01:00</time>
      </trkpt>
      <trkpt lat="44.98915" lon="4.69029">
        <ele>468</ele>
        <time>2019-01-02T14:41:23+01:00</time>
      </trkpt>
      <trkpt lat="44.9891" lon="4.69032">
        <ele>469</ele>
        <time>2019-01-02T14:41:27+01:00</time>
      </trkpt>
      <trkpt lat="44.98902" lon="4.6904">
        <ele>471</ele>
        <time>2019-01-02T14:41:36+01:00</time>
      </trkpt>
      <trkpt lat="44.98895" lon="4.69044">
        <ele>471</ele>
        <time>2019-01-02T14:41:43+01:00</time>
      </trkpt>
      <trkpt lat="44.98891" lon="4.69043">
        <ele>472</ele>
        <time>2019-01-02T14:41:47+01:00</time>
      </trkpt>
      <trkpt lat="44.98883" lon="4.6904">
        <ele>472</ele>
        <time>2019-01-02T14:41:55+01:00</time>
      </trkpt>
      <trkpt lat="44.98877" lon="4.69037">
        <ele>472</ele>
        <time>2019-01-02T14:42:00+01:00</time>
      </trkpt>
      <trkpt lat="44.98871" lon="4.69036">
        <ele>472</ele>
        <time>2019-01-02T14:42:06+01:00</time>
      </trkpt>
      <trkpt lat="44.98865" lon="4.69034">
        <ele>472</ele>
        <time>2019-01-02T14:42:10+01:00</time>
      </trkpt>
      <trkpt lat="44.98851" lon="4.69032">
        <ele>472</ele>
        <time>2019-01-02T14:42:20+01:00</time>
      </trkpt>
      <trkpt lat="44.98844" lon="4.69033">
        <ele>473</ele>
        <time>2019-01-02T14:42:28+01:00</time>
      </trkpt>
      <trkpt lat="44.98836" lon="4.69028">
        <ele>473</ele>
        <time>2019-01-02T14:42:36+01:00</time>
      </trkpt>
      <trkpt lat="44.98829" lon="4.69026">
        <ele>473</ele>
        <time>2019-01-02T14:42:41+01:00</time>
      </trkpt>
      <trkpt lat="44.98822" lon="4.69016">
        <ele>472</ele>
        <time>2019-01-02T14:42:49+01:00</time>
      </trkpt>
      <trkpt lat="44.98814" lon="4.69007">
        <ele>472</ele>
        <time>2019-01-02T14:42:58+01:00</time>
      </trkpt>
      <trkpt lat="44.98803" lon="4.68995">
        <ele>472</ele>
        <time>2019-01-02T14:43:08+01:00</time>
      </trkpt>
      <trkpt lat="44.98798" lon="4.68989">
        <ele>473</ele>
        <time>2019-01-02T14:43:15+01:00</time>
      </trkpt>
      <trkpt lat="44.98792" lon="4.68984">
        <ele>473</ele>
        <time>2019-01-02T14:43:20+01:00</time>
      </trkpt>
      <trkpt lat="44.98785" lon="4.6898">
        <ele>473</ele>
        <time>2019-01-02T14:43:26+01:00</time>
      </trkpt>
      <trkpt lat="44.98775" lon="4.68977">
        <ele>474</ele>
        <time>2019-01-02T14:43:34+01:00</time>
      </trkpt>
      <trkpt lat="44.98766" lon="4.68975">
        <ele>475</ele>
        <time>2019-01-02T14:43:42+01:00</time>
      </trkpt>
      <trkpt lat="44.98756" lon="4.68972">
        <ele>476</ele>
        <time>2019-01-02T14:43:51+01:00</time>
      </trkpt>
      <trkpt lat="44.98746" lon="4.6897">
        <ele>476</ele>
        <time>2019-01-02T14:43:59+01:00</time>
      </trkpt>
      <trkpt lat="44.98741" lon="4.68969">
        <ele>476</ele>
        <time>2019-01-02T14:44:04+01:00</time>
      </trkpt>
      <trkpt lat="44.9873" lon="4.68967">
        <ele>477</ele>
        <time>2019-01-02T14:44:12+01:00</time>
      </trkpt>
      <trkpt lat="44.98723" lon="4.68969">
        <ele>477</ele>
        <time>2019-01-02T14:44:19+01:00</time>
      </trkpt>
      <trkpt lat="44.98715" lon="4.6897">
        <ele>477</ele>
        <time>2019-01-02T14:44:26+01:00</time>
      </trkpt>
      <trkpt lat="44.98708" lon="4.68971">
        <ele>478</ele>
        <time>2019-01-02T14:44:34+01:00</time>
      </trkpt>
      <trkpt lat="44.98699" lon="4.68972">
        <ele>478</ele>
        <time>2019-01-02T14:44:43+01:00</time>
      </trkpt>
      <trkpt lat="44.98691" lon="4.68972">
        <ele>479</ele>
        <time>2019-01-02T14:44:50+01:00</time>
      </trkpt>
      <trkpt lat="44.98686" lon="4.68976">
        <ele>479</ele>
        <time>2019-01-02T14:44:56+01:00</time>
      </trkpt>
      <trkpt lat="44.98679" lon="4.68986">
        <ele>479</ele>
        <time>2019-01-02T14:45:05+01:00</time>
      </trkpt>
      <trkpt lat="44.98674" lon="4.68991">
        <ele>480</ele>
        <time>2019-01-02T14:45:12+01:00</time>
      </trkpt>
      <trkpt lat="44.98669" lon="4.68996">
        <ele>480</ele>
        <time>2019-01-02T14:45:19+01:00</time>
      </trkpt>
      <trkpt lat="44.98668" lon="4.68989">
        <ele>480</ele>
        <time>2019-01-02T14:45:52+01:00</time>
      </trkpt>
      <trkpt lat="44.98667" lon="4.6898">
        <ele>480</ele>
        <time>2019-01-02T14:45:58+01:00</time>
      </trkpt>
      <trkpt lat="44.98663" lon="4.6897">
        <ele>480</ele>
        <time>2019-01-02T14:46:06+01:00</time>
      </trkpt>
      <trkpt lat="44.98659" lon="4.68956">
        <ele>480</ele>
        <time>2019-01-02T14:46:13+01:00</time>
      </trkpt>
      <trkpt lat="44.98649" lon="4.68943">
        <ele>481</ele>
        <time>2019-01-02T14:46:22+01:00</time>
      </trkpt>
      <trkpt lat="44.98646" lon="4.68937">
        <ele>482</ele>
        <time>2019-01-02T14:46:28+01:00</time>
      </trkpt>
      <trkpt lat="44.98647" lon="4.68934">
        <ele>481</ele>
        <time>2019-01-02T14:46:30+01:00</time>
      </trkpt>
      <trkpt lat="44.98652" lon="4.68927">
        <ele>481</ele>
        <time>2019-01-02T14:46:37+01:00</time>
      </trkpt>
      <trkpt lat="44.98656" lon="4.68917">
        <ele>480</ele>
        <time>2019-01-02T14:46:45+01:00</time>
      </trkpt>
      <trkpt lat="44.98656" lon="4.68913">
        <ele>481</ele>
        <time>2019-01-02T14:46:49+01:00</time>
      </trkpt>
      <trkpt lat="44.98651" lon="4.68905">
        <ele>482</ele>
        <time>2019-01-02T14:46:56+01:00</time>
      </trkpt>
      <trkpt lat="44.98649" lon="4.68903">
        <ele>482</ele>
        <time>2019-01-02T14:47:03+01:00</time>
      </trkpt>
      <trkpt lat="44.9865" lon="4.68899">
        <ele>482</ele>
        <time>2019-01-02T14:47:09+01:00</time>
      </trkpt>
      <trkpt lat="44.98647" lon="4.68895">
        <ele>483</ele>
        <time>2019-01-02T14:47:16+01:00</time>
      </trkpt>
      <trkpt lat="44.98646" lon="4.68883">
        <ele>484</ele>
        <time>2019-01-02T14:47:24+01:00</time>
      </trkpt>
      <trkpt lat="44.98646" lon="4.6887">
        <ele>485</ele>
        <time>2019-01-02T14:47:32+01:00</time>
      </trkpt>
      <trkpt lat="44.98645" lon="4.6886">
        <ele>486</ele>
        <time>2019-01-02T14:47:39+01:00</time>
      </trkpt>
      <trkpt lat="44.98643" lon="4.6885">
        <ele>487</ele>
      </trkpt>
      <trkpt lat="44.98621" lon="4.68849">
        <ele>489</ele>
        <time>2019-01-02T14:48:39+01:00</time>
      </trkpt>
      <trkpt lat="44.98618" lon="4.6884">
        <ele>490</ele>
        <time>2019-01-02T14:48:46+01:00</time>
      </trkpt>
      <trkpt lat="44.98618" lon="4.68827">
        <ele>491</ele>
        <time>2019-01-02T14:48:57+01:00</time>
      </trkpt>
      <trkpt lat="44.98613" lon="4.68806">
        <ele>491</ele>
        <time>2019-01-02T14:49:04+01:00</time>
      </trkpt>
    </trkseg>
  </trk>
</gpx>